[[{"header":{"parameterUnit":"m.s-1","parameterCategory":1,"la1":31.0,"la2":29.5877,"lo1":-88.7671,"lo2":-86.6584,"dy":0.0162,"dx":0.0185,"nx":115,"ny":88,"refTime":"2023-05-09T12:00:00:Z","depth":0,"parameterNumber":2,"parameterNumberName":"U-component_of_WINDS"},"data":[0.0,0.0,0.0,0.0,0.0,0.0,0.0,0.0,0.0,0.0,0.0,0.0,0.0,0.0,0.0,0.0,0.0,0.0,0.0,0.0,0.0,0.0,0.0,0.0,0.0,0.0,0.0,0.0,0.0,0.0,0.0,0.0,0.0,0.0,0.0,0.0,0.0,0.0,0.0,0.0,0.0,0.0,0.0,0.0,0.0,0.0,0.0,0.0,0.0,0.0,0.0,0.0,0.0,0.0,0.0,0.0,0.0,0.0,0.0,0.0,0.0,0.0,0.0,0.0,0.0,0.0,0.0,0.0,0.0,0.0,0.0,0.0,0.0,0.0,0.0,0.0,0.0,0.0,0.0,0.0,0.0,0.0,0.0,0.0,0.0,0.0,0.0,0.0,0.0,0.0,0.0,0.0,0.0,0.0,0.0,0.0,0.0,0.0,0.0,0.0,0.0,0.0,0.0,0.0,0.0,0.0,0.0,0.0,0.0,0.0,0.0,0.0,0.0,0.0,0.0,0.0,0.0,0.0,0.0,0.0,0.0,0.0,0.0,0.0,0.0,0.0,0.0,0.0,0.0,0.0,0.0,0.0,0.0,0.0,0.0,0.0,0.0,0.0,0.0,0.0,0.0,0.0,0.0,0.0,0.0,0.0,0.0,0.0,0.0,0.0,0.0,0.0,0.0,0.0,0.0,0.0,0.0,0.0,0.0,0.0,0.0,0.0,0.0,0.0,0.0,0.0,0.0,0.0,0.0,0.0,0.0,0.0,0.0,0.0,0.0,0.0,0.0,0.0,0.0,0.0,0.0,0.0,0.0,0.0,0.0,0.0,0.0,0.0,0.0,0.0,0.0,0.0,0.0,0.0,0.0,0.0,0.0,0.0,0.0,0.0,0.0,0.0,0.0,0.0,0.0,0.0,0.0,0.0,0.0,0.0,0.0,0.0,0.0,0.0,0.0,0.0,0.0,0.0,0.0,0.0,0.0,0.0,0.0,0.0,0.0,0.0,0.0,0.0,0.0,0.0,0.0,0.0,0.0,0.0,0.0,0.0,0.0,0.0,0.0,0.0,0.0,0.0,0.0,0.0,0.0,0.0,0.0,0.0,0.0,0.0,0.0,0.0,0.0,0.0,0.0,0.0,0.0,0.0,0.0,0.0,0.0,0.0,0.0,0.0,0.0,0.0,0.0,0.0,0.0,0.0,0.0,0.0,0.0,0.0,0.0,0.0,0.0,0.0,0.0,0.0,0.0,0.0,0.0,0.0,0.0,0.0,0.0,0.0,0.0,0.0,0.0,0.0,0.0,0.0,0.0,0.0,0.0,0.0,0.0,0.0,0.0,0.0,0.0,0.0,0.0,0.0,0.0,0.0,0.0,0.0,0.0,0.0,0.0,0.0,0.0,0.0,0.0,0.0,0.0,0.0,0.0,0.0,0.0,0.0,0.0,0.0,0.0,0.0,0.0,0.0,0.0,0.0,0.0,0.0,0.0,0.0,0.0,0.0,0.0,0.0,0.0,0.0,0.0,0.0,0.0,0.0,0.0,0.0,0.0,0.0,0.0,0.0,0.0,0.0,0.0,0.0,0.0,0.0,0.0,0.0,0.0,0.0,0.0,0.0,0.0,0.0,0.0,0.0,0.0,0.0,0.0,0.0,0.0,0.0,0.0,0.0,0.0,0.0,0.0,0.0,0.0,0.0,0.0,0.0,0.0,0.0,0.0,0.0,0.0,0.0,0.0,0.0,0.0,0.0,0.0,0.0,0.0,0.0,0.0,0.0,0.0,0.0,0.0,0.0,0.0,0.0,0.0,0.0,0.0,0.0,0.0,0.0,0.0,0.0,0.0,0.0,0.0,0.0,0.0,0.0,0.0,0.0,0.0,0.0,0.0,0.0,0.0,0.0,0.0,0.0,0.0,0.0,0.0,0.0,0.0,0.0,0.0,0.0,0.0,0.0,0.0,0.0,0.0,0.0,0.0,0.0,0.0,0.0,0.0,0.0,0.0,0.0,0.0,0.0,0.0,0.0,0.0,0.0,0.0,0.0,0.0,0.0,0.0,0.0,0.0,0.0,0.0,0.0,0.0,0.0,0.0,0.0,0.0,0.0,0.0,0.0,0.0,0.0,0.0,0.0,0.0,0.0,0.0,0.0,0.0,0.0,0.0,0.0,0.0,0.0,0.0,0.0,0.0,0.0,0.0,0.0,0.0,0.0,0.0,0.0,0.0,0.0,0.0,0.0,0.0,0.0,0.0,0.0,0.0,0.0,0.0,0.0,0.0,0.0,0.0,0.0,0.0,0.0,0.0,0.0,0.0,0.0,0.0,0.0,0.0,0.0,0.0,0.0,0.0,0.0,0.0,0.0,0.0,0.0,0.0,0.0,0.0,0.0,0.0,0.0,0.0,0.0,0.0,0.0,0.0,0.0,0.0,0.0,0.0,0.0,0.0,0.0,0.0,0.0,0.0,0.0,0.0,0.0,0.0,0.0,0.0,0.0,0.0,0.0,0.0,0.0,0.0,0.0,0.0,0.0,0.0,0.0,0.0,0.0,0.0,0.0,0.0,0.0,0.0,0.0,0.0,0.0,0.0,0.0,0.0,0.0,0.0,0.0,0.0,0.0,0.0,0.0,0.0,0.0,0.0,0.0,0.0,0.0,0.0,0.0,0.0,0.0,0.0,0.0,0.0,0.0,0.0,0.0,0.0,0.0,0.0,0.0,0.0,0.0,0.0,0.0,0.0,0.0,0.0,0.0,0.0,0.0,0.0,0.0,0.0,0.0,0.0,0.0,0.0,0.0,0.0,0.0,0.0,0.0,0.0,0.0,0.0,0.0,0.0,0.0,0.0,0.0,0.0,0.0,0.0,0.0,0.0,0.0,0.0,0.0,0.0,0.0,0.0,0.0,0.0,0.0,0.0,0.0,0.0,0.0,0.0,0.0,0.0,0.0,0.0,0.0,0.0,0.0,0.0,0.0,0.0,0.0,0.0,0.0,0.0,0.0,0.0,0.0,0.0,0.0,0.0,0.0,0.0,0.0,0.0,0.0,0.0,0.0,0.0,0.0,0.0,0.0,0.0,0.0,0.0,0.0,0.0,0.0,0.0,0.0,0.0,0.0,0.0,0.0,0.0,0.0,0.0,0.0,0.0,0.0,0.0,0.0,0.0,0.0,0.0,0.0,0.0,0.0,0.0,0.0,0.0,0.0,0.0,0.0,0.0,0.0,0.0,0.0,0.0,0.0,0.0,0.0,0.0,0.0,0.0,0.0,0.0,0.0,0.0,0.0,0.0,0.0,0.0,0.0,0.0,0.0,0.0,0.0,0.0,0.0,0.0,0.0,0.0,0.0,0.0,0.0,0.0,0.0,0.0,0.0,0.0,0.0,0.0,0.0,0.0,0.0,0.0,0.0,0.0,0.0,0.0,0.0,0.0,0.0,0.0,0.0,0.0,0.0,0.0,0.0,0.0,0.0,0.0,0.0,0.0,0.0,0.0,0.0,0.0,0.0,0.0,0.0,0.0,0.0,0.0,0.0,0.0,0.0,0.0,0.0,0.0,0.0,0.0,0.0,0.0,0.0,0.0,0.0,0.0,0.0,0.0,0.0,0.0,0.0,0.0,0.0,0.0,0.0,0.0,0.0,0.0,0.0,0.0,0.0,0.0,0.0,0.0,0.0,0.0,0.0,0.0,0.0,0.0,0.0,0.0,0.0,0.0,0.0,0.0,0.0,0.0,0.0,0.0,0.0,0.0,0.0,0.0,0.0,0.0,0.0,0.0,0.0,0.0,0.0,0.0,0.0,0.0,0.0,0.0,0.0,0.0,0.0,0.0,0.0,0.0,0.0,0.0,0.0,0.0,0.0,0.0,0.0,0.0,0.0,0.0,0.0,0.0,0.0,0.0,0.0,0.0,0.0,0.0,0.0,0.0,0.0,0.0,0.0,0.0,0.0,0.0,0.0,0.0,0.0,0.0,0.0,0.0,0.0,0.0,0.0,0.0,0.0,0.0,0.0,0.0,0.0,0.0,0.0,0.0,0.0,0.0,0.0,0.0,0.0,0.0,0.0,0.0,0.0,0.0,0.0,0.0,0.0,0.0,0.0,0.0,0.0,0.0,0.0,0.0,0.0,0.0,0.0,0.0,0.0,0.0,0.0,0.0,0.0,0.0,0.0,0.0,0.0,0.0,0.0,0.0,0.0,0.0,0.0,0.0,0.0,0.0,0.0,0.0,0.0,0.0,0.0,0.0,0.0,0.0,0.0,0.0,0.0,-3.0586,0.0,0.0,0.0,-3.0706,0.0,0.0,0.0,0.0,0.0,0.0,0.0,0.0,0.0,0.0,0.0,0.0,0.0,0.0,0.0,0.0,0.0,0.0,0.0,0.0,0.0,0.0,0.0,0.0,0.0,0.0,0.0,0.0,0.0,0.0,0.0,0.0,0.0,0.0,0.0,0.0,0.0,0.0,0.0,0.0,0.0,0.0,0.0,0.0,0.0,0.0,0.0,0.0,0.0,0.0,0.0,0.0,0.0,0.0,0.0,0.0,0.0,0.0,0.0,0.0,0.0,0.0,0.0,0.0,0.0,0.0,0.0,0.0,0.0,0.0,0.0,0.0,0.0,0.0,0.0,0.0,0.0,0.0,0.0,0.0,0.0,0.0,0.0,0.0,0.0,0.0,0.0,0.0,0.0,0.0,0.0,0.0,0.0,0.0,0.0,0.0,0.0,0.0,0.0,0.0,0.0,0.0,0.0,0.0,0.0,0.0,0.0,0.0,0.0,0.0,-3.0539,-3.0636,-3.0725,-3.0756,-3.0693,0.0,0.0,0.0,0.0,0.0,0.0,0.0,0.0,0.0,0.0,0.0,0.0,0.0,0.0,0.0,0.0,0.0,0.0,0.0,0.0,0.0,0.0,0.0,0.0,0.0,0.0,0.0,0.0,0.0,0.0,0.0,0.0,0.0,0.0,0.0,0.0,0.0,0.0,0.0,0.0,0.0,0.0,0.0,0.0,0.0,0.0,0.0,0.0,0.0,0.0,0.0,0.0,0.0,0.0,0.0,0.0,0.0,0.0,0.0,0.0,0.0,0.0,0.0,0.0,0.0,0.0,0.0,0.0,0.0,0.0,0.0,0.0,0.0,0.0,0.0,0.0,0.0,0.0,0.0,0.0,0.0,0.0,0.0,0.0,0.0,0.0,0.0,0.0,0.0,0.0,0.0,0.0,0.0,0.0,0.0,0.0,0.0,0.0,0.0,0.0,0.0,0.0,0.0,0.0,0.0,0.0,0.0,0.0,0.0,0.0,0.0,0.0,-3.1308,-3.1242,-3.0935,0.0,0.0,0.0,0.0,0.0,0.0,0.0,0.0,0.0,0.0,0.0,0.0,0.0,0.0,0.0,0.0,0.0,0.0,0.0,0.0,0.0,0.0,0.0,0.0,0.0,0.0,0.0,0.0,0.0,0.0,0.0,0.0,0.0,0.0,0.0,0.0,0.0,0.0,0.0,0.0,0.0,0.0,0.0,0.0,0.0,0.0,0.0,0.0,0.0,0.0,0.0,0.0,0.0,0.0,0.0,0.0,0.0,0.0,0.0,0.0,0.0,0.0,0.0,0.0,0.0,0.0,0.0,0.0,0.0,0.0,0.0,0.0,0.0,0.0,0.0,0.0,0.0,0.0,0.0,0.0,0.0,0.0,0.0,0.0,0.0,0.0,0.0,0.0,0.0,0.0,0.0,0.0,0.0,0.0,0.0,0.0,0.0,0.0,0.0,0.0,0.0,0.0,0.0,0.0,0.0,0.0,0.0,0.0,0.0,0.0,-3.2075,-3.293,-3.3067,0.0,-3.1741,0.0,0.0,0.0,0.0,0.0,0.0,0.0,0.0,0.0,0.0,0.0,0.0,0.0,0.0,0.0,0.0,0.0,0.0,0.0,0.0,0.0,0.0,0.0,0.0,0.0,0.0,0.0,0.0,0.0,0.0,0.0,0.0,0.0,0.0,0.0,0.0,0.0,0.0,0.0,0.0,0.0,0.0,0.0,0.0,0.0,0.0,0.0,0.0,0.0,0.0,0.0,0.0,0.0,0.0,0.0,0.0,0.0,0.0,0.0,0.0,0.0,0.0,0.0,0.0,0.0,0.0,0.0,0.0,0.0,0.0,0.0,0.0,0.0,0.0,0.0,0.0,0.0,0.0,0.0,0.0,0.0,0.0,0.0,0.0,0.0,0.0,0.0,0.0,0.0,0.0,0.0,0.0,0.0,0.0,0.0,0.0,0.0,0.0,0.0,0.0,0.0,0.0,0.0,0.0,0.0,0.0,0.0,0.0,0.0,0.0,-3.2775,-3.32,-3.3242,-3.2805,0.0,0.0,0.0,0.0,0.0,0.0,0.0,0.0,0.0,0.0,0.0,0.0,0.0,0.0,0.0,0.0,0.0,0.0,0.0,0.0,0.0,0.0,0.0,0.0,0.0,0.0,0.0,0.0,0.0,0.0,0.0,0.0,0.0,0.0,0.0,0.0,0.0,0.0,0.0,0.0,0.0,0.0,0.0,0.0,0.0,0.0,0.0,0.0,0.0,0.0,0.0,0.0,0.0,0.0,0.0,0.0,0.0,0.0,0.0,0.0,0.0,0.0,0.0,0.0,0.0,0.0,0.0,0.0,0.0,0.0,0.0,0.0,0.0,0.0,0.0,0.0,0.0,0.0,0.0,0.0,0.0,0.0,0.0,0.0,0.0,0.0,0.0,0.0,0.0,0.0,0.0,0.0,0.0,0.0,0.0,0.0,0.0,0.0,0.0,0.0,0.0,0.0,0.0,0.0,0.0,0.0,0.0,0.0,0.0,0.0,-3.3745,-3.3965,-3.4263,-3.3814,-3.3112,-3.215,0.0,0.0,0.0,0.0,0.0,0.0,0.0,0.0,0.0,0.0,0.0,0.0,0.0,0.0,0.0,0.0,0.0,0.0,0.0,0.0,0.0,0.0,0.0,0.0,0.0,0.0,0.0,0.0,0.0,0.0,0.0,0.0,0.0,0.0,0.0,0.0,0.0,0.0,0.0,0.0,0.0,0.0,0.0,0.0,0.0,0.0,0.0,0.0,0.0,0.0,0.0,0.0,0.0,0.0,0.0,0.0,0.0,0.0,0.0,0.0,0.0,0.0,0.0,0.0,0.0,0.0,0.0,0.0,0.0,0.0,0.0,0.0,0.0,0.0,0.0,0.0,0.0,0.0,0.0,0.0,0.0,0.0,0.0,0.0,0.0,0.0,0.0,0.0,0.0,0.0,0.0,0.0,0.0,0.0,0.0,0.0,0.0,0.0,0.0,0.0,0.0,0.0,0.0,0.0,0.0,0.0,0.0,0.0,-3.5297,-3.55,-3.6031,-3.6874,-3.5351,-3.3984,0.0,0.0,0.0,0.0,0.0,0.0,0.0,0.0,0.0,0.0,0.0,0.0,0.0,0.0,0.0,0.0,0.0,0.0,0.0,0.0,0.0,0.0,0.0,0.0,0.0,0.0,0.0,0.0,0.0,0.0,0.0,0.0,0.0,0.0,0.0,0.0,0.0,0.0,0.0,0.0,0.0,0.0,0.0,0.0,0.0,0.0,0.0,0.0,0.0,0.0,0.0,0.0,0.0,0.0,0.0,0.0,0.0,0.0,0.0,0.0,0.0,0.0,0.0,0.0,0.0,0.0,0.0,0.0,0.0,0.0,0.0,0.0,0.0,0.0,0.0,0.0,0.0,0.0,0.0,0.0,0.0,0.0,0.0,0.0,0.0,0.0,0.0,0.0,0.0,0.0,0.0,0.0,0.0,0.0,0.0,0.0,0.0,0.0,0.0,0.0,0.0,0.0,0.0,0.0,0.0,0.0,0.0,0.0,0.0,-3.5582,-3.6296,-3.6539,-3.6359,-3.6189,-3.513,0.0,0.0,0.0,0.0,0.0,0.0,0.0,0.0,0.0,0.0,0.0,0.0,0.0,0.0,0.0,0.0,0.0,0.0,0.0,0.0,0.0,0.0,0.0,0.0,0.0,0.0,0.0,0.0,0.0,0.0,0.0,0.0,0.0,0.0,0.0,0.0,0.0,0.0,0.0,0.0,0.0,0.0,0.0,0.0,0.0,0.0,0.0,0.0,0.0,0.0,0.0,0.0,0.0,0.0,0.0,0.0,0.0,0.0,0.0,0.0,0.0,0.0,0.0,0.0,0.0,0.0,0.0,0.0,0.0,0.0,0.0,0.0,0.0,0.0,0.0,0.0,0.0,0.0,0.0,0.0,0.0,0.0,0.0,0.0,0.0,0.0,0.0,0.0,0.0,0.0,0.0,0.0,0.0,0.0,0.0,0.0,0.0,0.0,0.0,0.0,0.0,0.0,0.0,0.0,0.0,0.0,0.0,0.0,0.0,-3.6984,0.0,-3.7614,-3.6802,-3.6893,-3.5862,0.0,0.0,0.0,0.0,0.0,0.0,0.0,0.0,0.0,0.0,0.0,0.0,0.0,0.0,0.0,0.0,0.0,0.0,0.0,0.0,0.0,0.0,0.0,0.0,0.0,0.0,0.0,0.0,0.0,0.0,0.0,0.0,0.0,0.0,0.0,0.0,0.0,0.0,0.0,0.0,0.0,0.0,0.0,0.0,0.0,0.0,0.0,0.0,0.0,0.0,0.0,0.0,0.0,0.0,0.0,0.0,0.0,0.0,0.0,0.0,0.0,0.0,0.0,0.0,0.0,0.0,0.0,0.0,0.0,0.0,0.0,0.0,0.0,0.0,0.0,0.0,0.0,0.0,0.0,0.0,0.0,0.0,0.0,0.0,0.0,0.0,0.0,0.0,0.0,0.0,0.0,0.0,0.0,0.0,0.0,0.0,0.0,0.0,0.0,0.0,0.0,0.0,0.0,0.0,0.0,0.0,0.0,0.0,-3.7883,-3.9638,-3.9726,-3.9277,-3.8507,-3.7537,-3.6159,0.0,0.0,0.0,0.0,0.0,0.0,0.0,0.0,0.0,0.0,0.0,0.0,0.0,0.0,0.0,0.0,0.0,0.0,0.0,0.0,0.0,0.0,0.0,0.0,0.0,0.0,0.0,0.0,0.0,0.0,0.0,0.0,0.0,0.0,0.0,0.0,0.0,0.0,0.0,0.0,0.0,0.0,0.0,0.0,0.0,0.0,0.0,0.0,0.0,0.0,0.0,0.0,0.0,0.0,0.0,0.0,0.0,0.0,0.0,0.0,0.0,0.0,0.0,0.0,0.0,0.0,0.0,0.0,0.0,0.0,0.0,0.0,0.0,0.0,0.0,0.0,0.0,0.0,0.0,0.0,0.0,0.0,0.0,0.0,0.0,0.0,0.0,0.0,0.0,0.0,0.0,0.0,0.0,0.0,0.0,0.0,0.0,0.0,0.0,0.0,0.0,0.0,0.0,0.0,0.0,0.0,0.0,0.0,0.0,-3.8903,-3.949,-3.9367,-3.8468,-3.8085,-3.7022,0.0,0.0,0.0,0.0,0.0,0.0,0.0,0.0,0.0,0.0,0.0,0.0,0.0,0.0,0.0,0.0,0.0,0.0,0.0,0.0,0.0,0.0,0.0,0.0,0.0,0.0,0.0,0.0,0.0,0.0,0.0,0.0,0.0,0.0,0.0,0.0,0.0,0.0,0.0,0.0,0.0,0.0,0.0,0.0,0.0,0.0,0.0,0.0,0.0,0.0,0.0,0.0,0.0,0.0,0.0,0.0,0.0,0.0,0.0,0.0,0.0,0.0,0.0,0.0,0.0,0.0,0.0,0.0,0.0,0.0,0.0,0.0,0.0,0.0,0.0,0.0,0.0,0.0,0.0,0.0,0.0,0.0,0.0,0.0,0.0,0.0,0.0,0.0,0.0,0.0,0.0,0.0,0.0,0.0,0.0,0.0,0.0,0.0,0.0,0.0,0.0,0.0,0.0,0.0,0.0,0.0,0.0,0.0,0.0,-3.998,-4.0463,-4.028,-3.9338,-3.8954,-3.7876,-3.601,0.0,0.0,0.0,0.0,0.0,0.0,0.0,0.0,0.0,0.0,0.0,0.0,0.0,0.0,0.0,0.0,0.0,0.0,0.0,0.0,0.0,0.0,0.0,0.0,0.0,0.0,0.0,0.0,0.0,0.0,0.0,0.0,0.0,0.0,0.0,0.0,0.0,0.0,0.0,0.0,0.0,0.0,0.0,0.0,0.0,0.0,0.0,0.0,0.0,0.0,0.0,0.0,0.0,0.0,0.0,0.0,0.0,0.0,0.0,0.0,0.0,0.0,0.0,0.0,0.0,0.0,0.0,0.0,0.0,0.0,0.0,0.0,0.0,0.0,0.0,0.0,0.0,0.0,0.0,0.0,0.0,0.0,0.0,0.0,0.0,0.0,0.0,0.0,0.0,0.0,0.0,0.0,0.0,0.0,0.0,0.0,0.0,0.0,0.0,0.0,0.0,0.0,0.0,0.0,0.0,0.0,0.0,0.0,-4.2449,-4.2438,-4.1975,-4.0972,-4.0009,-3.8651,0.0,0.0,0.0,0.0,0.0,0.0,0.0,0.0,0.0,0.0,0.0,0.0,0.0,0.0,0.0,0.0,0.0,0.0,0.0,0.0,0.0,0.0,0.0,0.0,0.0,0.0,0.0,0.0,0.0,0.0,0.0,0.0,0.0,0.0,0.0,0.0,0.0,0.0,0.0,0.0,0.0,0.0,0.0,0.0,0.0,0.0,0.0,0.0,0.0,0.0,0.0,0.0,0.0,0.0,0.0,0.0,0.0,0.0,0.0,0.0,0.0,0.0,0.0,0.0,0.0,0.0,0.0,0.0,0.0,0.0,0.0,0.0,0.0,0.0,0.0,0.0,0.0,0.0,0.0,0.0,0.0,0.0,0.0,0.0,0.0,0.0,0.0,0.0,0.0,0.0,0.0,0.0,0.0,0.0,0.0,0.0,0.0,0.0,0.0,0.0,0.0,0.0,0.0,0.0,0.0,0.0,0.0,0.0,0.0,-4.327,-4.3854,-4.3389,-4.183,-4.0306,-3.8878,0.0,0.0,0.0,0.0,0.0,0.0,0.0,0.0,0.0,0.0,0.0,0.0,0.0,0.0,0.0,0.0,0.0,0.0,0.0,0.0,0.0,0.0,0.0,0.0,0.0,0.0,0.0,0.0,0.0,0.0,0.0,0.0,0.0,0.0,0.0,0.0,0.0,0.0,0.0,0.0,0.0,0.0,0.0,0.0,0.0,0.0,0.0,0.0,0.0,0.0,0.0,0.0,0.0,0.0,0.0,0.0,0.0,0.0,0.0,0.0,0.0,0.0,0.0,0.0,0.0,0.0,0.0,0.0,0.0,0.0,0.0,0.0,0.0,0.0,0.0,0.0,0.0,0.0,0.0,0.0,0.0,0.0,0.0,0.0,0.0,0.0,0.0,0.0,0.0,0.0,0.0,0.0,0.0,0.0,0.0,0.0,0.0,0.0,0.0,0.0,0.0,0.0,0.0,0.0,0.0,0.0,0.0,0.0,-4.2754,-4.3532,-4.3985,-4.3673,-4.258,-4.1222,-3.9669,0.0,0.0,0.0,0.0,0.0,0.0,0.0,0.0,0.0,0.0,0.0,0.0,0.0,0.0,0.0,0.0,0.0,0.0,0.0,0.0,0.0,0.0,0.0,0.0,0.0,0.0,0.0,0.0,0.0,0.0,0.0,0.0,0.0,0.0,0.0,0.0,0.0,0.0,0.0,0.0,0.0,0.0,0.0,0.0,0.0,0.0,0.0,0.0,0.0,0.0,0.0,0.0,0.0,0.0,0.0,0.0,0.0,0.0,0.0,0.0,0.0,0.0,0.0,0.0,0.0,0.0,0.0,0.0,0.0,0.0,0.0,0.0,0.0,0.0,0.0,0.0,0.0,0.0,0.0,0.0,0.0,0.0,0.0,0.0,0.0,0.0,0.0,0.0,0.0,0.0,0.0,0.0,0.0,0.0,0.0,0.0,0.0,0.0,0.0,0.0,0.0,0.0,0.0,0.0,0.0,0.0,0.0,0.0,-4.2822,-4.3614,-4.3649,-4.3505,-4.3187,-4.2353,-4.0634,0.0,0.0,0.0,0.0,0.0,0.0,0.0,0.0,0.0,0.0,0.0,0.0,0.0,0.0,0.0,0.0,0.0,0.0,0.0,0.0,0.0,0.0,0.0,0.0,0.0,0.0,0.0,0.0,0.0,0.0,0.0,0.0,0.0,0.0,0.0,0.0,0.0,0.0,0.0,0.0,0.0,0.0,0.0,0.0,0.0,0.0,0.0,0.0,0.0,0.0,0.0,0.0,0.0,0.0,0.0,0.0,0.0,0.0,0.0,0.0,0.0,0.0,0.0,0.0,0.0,0.0,0.0,0.0,0.0,0.0,0.0,0.0,0.0,0.0,0.0,0.0,0.0,0.0,0.0,0.0,0.0,0.0,0.0,0.0,0.0,0.0,0.0,0.0,0.0,0.0,0.0,0.0,0.0,0.0,0.0,0.0,0.0,0.0,0.0,0.0,0.0,0.0,0.0,0.0,0.0,0.0,0.0,0.0,-4.3718,-4.4501,-4.5076,-4.4673,-4.3218,-4.2287,-4.0577,0.0,0.0,0.0,0.0,0.0,0.0,0.0,0.0,0.0,0.0,0.0,0.0,0.0,0.0,0.0,0.0,0.0,0.0,0.0,0.0,0.0,0.0,0.0,0.0,0.0,0.0,0.0,0.0,0.0,0.0,0.0,0.0,0.0,0.0,0.0,0.0,0.0,0.0,0.0,0.0,0.0,0.0,0.0,0.0,0.0,0.0,0.0,0.0,-3.3336,0.0,0.0,0.0,0.0,0.0,0.0,0.0,0.0,0.0,0.0,0.0,0.0,0.0,0.0,0.0,0.0,0.0,0.0,0.0,0.0,0.0,0.0,0.0,0.0,0.0,0.0,0.0,0.0,0.0,0.0,0.0,0.0,0.0,0.0,0.0,0.0,0.0,0.0,0.0,0.0,0.0,0.0,0.0,0.0,0.0,0.0,0.0,0.0,0.0,0.0,0.0,0.0,0.0,0.0,0.0,0.0,0.0,0.0,0.0,-4.3915,-4.4694,-4.5441,-4.4998,-4.3242,-4.2604,-4.0927,0.0,0.0,0.0,0.0,0.0,0.0,0.0,0.0,0.0,0.0,0.0,0.0,0.0,0.0,0.0,0.0,0.0,0.0,0.0,0.0,0.0,0.0,0.0,0.0,0.0,0.0,0.0,0.0,0.0,0.0,0.0,0.0,0.0,0.0,0.0,0.0,0.0,0.0,0.0,0.0,0.0,0.0,0.0,0.0,0.0,0.0,0.0,0.0,0.0,0.0,0.0,0.0,0.0,0.0,0.0,0.0,0.0,0.0,0.0,0.0,0.0,0.0,0.0,0.0,0.0,0.0,0.0,0.0,0.0,0.0,0.0,0.0,0.0,0.0,0.0,0.0,0.0,0.0,0.0,0.0,0.0,0.0,0.0,0.0,0.0,0.0,0.0,0.0,0.0,0.0,0.0,0.0,0.0,0.0,0.0,0.0,0.0,0.0,0.0,0.0,0.0,0.0,0.0,0.0,0.0,0.0,0.0,-4.314,-4.3927,-4.4769,-4.5431,-4.4901,-4.3151,-4.2953,-4.1281,-3.7934,0.0,0.0,0.0,0.0,0.0,0.0,0.0,0.0,0.0,0.0,0.0,0.0,0.0,0.0,0.0,0.0,0.0,0.0,0.0,0.0,0.0,0.0,0.0,0.0,0.0,0.0,0.0,0.0,0.0,0.0,0.0,0.0,0.0,0.0,0.0,0.0,0.0,0.0,-3.5311,-3.594,0.0,0.0,0.0,0.0,0.0,0.0,0.0,0.0,-3.4002,0.0,0.0,0.0,0.0,0.0,0.0,0.0,0.0,0.0,0.0,0.0,0.0,0.0,0.0,0.0,0.0,0.0,0.0,0.0,0.0,0.0,0.0,0.0,0.0,0.0,0.0,0.0,0.0,0.0,0.0,0.0,0.0,0.0,0.0,0.0,0.0,0.0,0.0,0.0,0.0,0.0,0.0,0.0,0.0,0.0,0.0,0.0,0.0,0.0,0.0,0.0,0.0,0.0,0.0,0.0,0.0,-4.3337,-4.3424,-4.4109,-4.5569,-4.5615,-4.4795,-4.312,-4.289,-4.1227,-3.7944,0.0,0.0,0.0,0.0,0.0,0.0,0.0,0.0,0.0,0.0,0.0,0.0,0.0,0.0,0.0,0.0,0.0,0.0,0.0,0.0,0.0,0.0,0.0,0.0,0.0,0.0,0.0,0.0,0.0,0.0,0.0,0.0,0.0,0.0,0.0,0.0,0.0,0.0,0.0,-3.8451,-3.8854,0.0,0.0,0.0,0.0,0.0,0.0,0.0,0.0,-3.4177,0.0,0.0,0.0,0.0,0.0,0.0,0.0,0.0,0.0,0.0,0.0,0.0,0.0,0.0,0.0,0.0,0.0,0.0,0.0,0.0,0.0,0.0,0.0,0.0,0.0,0.0,0.0,0.0,0.0,0.0,0.0,0.0,0.0,0.0,0.0,0.0,0.0,0.0,0.0,0.0,0.0,0.0,0.0,0.0,0.0,0.0,0.0,0.0,0.0,0.0,0.0,0.0,0.0,0.0,0.0,-4.3403,-4.3889,-4.462,-4.5711,-4.5662,-4.4734,-4.2985,-4.2852,-4.1389,0.0,0.0,0.0,0.0,0.0,0.0,0.0,0.0,0.0,0.0,0.0,0.0,0.0,0.0,0.0,0.0,0.0,0.0,0.0,0.0,0.0,0.0,0.0,0.0,0.0,0.0,0.0,0.0,0.0,0.0,0.0,0.0,0.0,0.0,0.0,0.0,0.0,0.0,0.0,0.0,-4.0097,-4.0385,-4.1841,0.0,0.0,0.0,0.0,0.0,0.0,-3.5418,-3.4485,0.0,0.0,0.0,0.0,0.0,0.0,0.0,0.0,0.0,0.0,0.0,0.0,0.0,0.0,0.0,0.0,0.0,0.0,0.0,0.0,0.0,0.0,0.0,0.0,0.0,0.0,0.0,0.0,0.0,0.0,0.0,0.0,0.0,0.0,0.0,0.0,0.0,0.0,0.0,0.0,0.0,0.0,0.0,0.0,0.0,0.0,0.0,0.0,0.0,0.0,0.0,0.0,0.0,0.0,0.0,-4.3156,-4.4024,-4.4841,-4.5623,-4.5612,-4.4681,-4.2842,-4.2755,-4.1501,0.0,0.0,0.0,0.0,0.0,0.0,0.0,0.0,0.0,0.0,0.0,0.0,0.0,0.0,0.0,0.0,0.0,0.0,0.0,0.0,0.0,0.0,0.0,0.0,0.0,0.0,0.0,0.0,0.0,0.0,0.0,0.0,0.0,0.0,0.0,0.0,0.0,0.0,0.0,0.0,0.0,-4.1072,-4.1863,-4.1628,0.0,0.0,0.0,0.0,-3.667,-3.5584,0.0,0.0,0.0,0.0,0.0,0.0,0.0,0.0,0.0,0.0,0.0,0.0,0.0,0.0,0.0,0.0,0.0,0.0,0.0,0.0,0.0,0.0,0.0,0.0,0.0,0.0,0.0,0.0,0.0,0.0,0.0,0.0,0.0,0.0,0.0,0.0,0.0,0.0,0.0,0.0,0.0,0.0,0.0,0.0,0.0,0.0,0.0,0.0,0.0,0.0,0.0,0.0,0.0,0.0,0.0,0.0,-4.2276,-4.3084,-4.4155,-4.5517,-4.5495,-4.4555,-4.2772,-4.2601,-4.1347,0.0,0.0,0.0,0.0,0.0,0.0,0.0,0.0,0.0,0.0,0.0,0.0,0.0,0.0,0.0,0.0,0.0,0.0,0.0,0.0,0.0,0.0,0.0,0.0,0.0,0.0,0.0,0.0,0.0,0.0,0.0,0.0,0.0,0.0,0.0,0.0,0.0,0.0,0.0,0.0,0.0,-4.0161,-4.1704,-4.0971,-3.9814,0.0,0.0,-3.7692,-3.7338,-3.662,0.0,0.0,0.0,0.0,0.0,0.0,0.0,0.0,0.0,0.0,0.0,0.0,0.0,0.0,0.0,0.0,0.0,0.0,0.0,0.0,0.0,0.0,0.0,0.0,0.0,0.0,0.0,0.0,0.0,0.0,0.0,0.0,0.0,0.0,0.0,0.0,0.0,0.0,0.0,0.0,0.0,0.0,0.0,0.0,0.0,0.0,0.0,0.0,0.0,0.0,0.0,0.0,0.0,0.0,0.0,-3.9487,-4.1414,-4.2644,-4.3781,-4.4823,-4.517,-4.4465,-4.269,-4.2547,-4.1315,0.0,0.0,0.0,0.0,0.0,0.0,0.0,0.0,0.0,0.0,0.0,0.0,0.0,0.0,0.0,0.0,0.0,0.0,0.0,0.0,0.0,0.0,0.0,0.0,0.0,0.0,0.0,0.0,0.0,0.0,0.0,0.0,0.0,0.0,0.0,0.0,0.0,0.0,0.0,0.0,0.0,0.0,-4.0965,-4.12,0.0,0.0,0.0,-3.8409,-3.6609,0.0,0.0,0.0,0.0,0.0,0.0,0.0,0.0,0.0,0.0,0.0,0.0,0.0,0.0,0.0,0.0,0.0,0.0,0.0,0.0,0.0,0.0,0.0,0.0,0.0,0.0,0.0,0.0,0.0,0.0,0.0,0.0,0.0,0.0,0.0,0.0,0.0,0.0,0.0,0.0,0.0,0.0,0.0,0.0,0.0,0.0,0.0,0.0,0.0,0.0,0.0,0.0,0.0,0.0,0.0,0.0,0.0,-4.0815,-4.2189,-4.3389,-4.4487,-4.4995,-4.4486,-4.296,-4.2628,0.0,0.0,0.0,0.0,0.0,0.0,0.0,0.0,0.0,0.0,0.0,0.0,0.0,0.0,0.0,0.0,0.0,0.0,0.0,0.0,0.0,0.0,0.0,0.0,0.0,0.0,0.0,-3.0707,0.0,0.0,0.0,0.0,0.0,0.0,0.0,0.0,0.0,0.0,0.0,0.0,0.0,0.0,-4.0436,-4.0257,-4.1366,-4.1484,0.0,0.0,-3.8679,-3.6095,-3.5918,-3.5205,0.0,0.0,0.0,0.0,0.0,0.0,0.0,0.0,0.0,0.0,0.0,0.0,0.0,0.0,0.0,0.0,0.0,0.0,0.0,0.0,0.0,0.0,0.0,0.0,0.0,0.0,0.0,0.0,0.0,0.0,0.0,0.0,0.0,0.0,0.0,0.0,0.0,0.0,0.0,0.0,0.0,0.0,0.0,0.0,0.0,0.0,0.0,0.0,0.0,0.0,0.0,0.0,0.0,0.0,-3.8423,-4.066,-4.1503,-4.2934,-4.5022,-4.5124,-4.4673,-4.3749,-4.2864,-4.1598,0.0,0.0,0.0,0.0,0.0,0.0,0.0,0.0,0.0,0.0,0.0,0.0,0.0,0.0,0.0,0.0,0.0,0.0,0.0,0.0,0.0,0.0,0.0,0.0,0.0,0.0,0.0,0.0,0.0,0.0,0.0,0.0,0.0,0.0,0.0,0.0,0.0,0.0,0.0,0.0,0.0,-4.011,-3.9777,-4.0997,-4.1147,0.0,-3.8559,-3.7964,-3.6398,-3.582,-3.489,-3.3041,0.0,0.0,0.0,0.0,0.0,0.0,0.0,0.0,0.0,0.0,0.0,0.0,0.0,0.0,0.0,0.0,0.0,0.0,0.0,0.0,0.0,0.0,0.0,0.0,0.0,0.0,0.0,0.0,0.0,0.0,0.0,0.0,0.0,0.0,0.0,0.0,0.0,0.0,0.0,0.0,0.0,0.0,0.0,0.0,0.0,0.0,0.0,0.0,0.0,0.0,0.0,0.0,0.0,-3.7292,-3.9082,-4.0342,-4.1865,-4.3596,-4.4554,-4.4368,-4.3035,-4.2143,-4.062,0.0,0.0,0.0,0.0,0.0,0.0,0.0,0.0,0.0,0.0,0.0,0.0,0.0,0.0,0.0,0.0,0.0,0.0,0.0,0.0,0.0,0.0,0.0,0.0,0.0,0.0,0.0,0.0,-3.0589,-3.0742,-3.1307,0.0,0.0,0.0,0.0,0.0,0.0,0.0,0.0,0.0,0.0,-3.9826,-4.0212,-4.0425,0.0,0.0,-3.8753,-3.8219,-3.6309,-3.5799,-3.4927,-3.2835,-3.1864,0.0,0.0,0.0,0.0,0.0,0.0,0.0,0.0,0.0,0.0,0.0,0.0,0.0,0.0,0.0,0.0,0.0,0.0,0.0,0.0,0.0,0.0,0.0,0.0,0.0,0.0,0.0,0.0,0.0,0.0,0.0,0.0,0.0,0.0,0.0,0.0,0.0,0.0,0.0,0.0,0.0,0.0,0.0,0.0,0.0,0.0,0.0,0.0,0.0,0.0,0.0,0.0,-3.6718,-3.8376,-3.9757,-4.1278,-4.2969,-4.4285,-4.4417,-4.3248,-4.2151,-4.0479,0.0,0.0,0.0,0.0,0.0,0.0,0.0,0.0,0.0,0.0,0.0,0.0,0.0,0.0,0.0,0.0,0.0,0.0,0.0,0.0,0.0,0.0,0.0,0.0,0.0,0.0,0.0,0.0,-3.1244,-3.1403,-3.2028,0.0,0.0,0.0,0.0,0.0,0.0,0.0,0.0,0.0,0.0,-3.9485,-4.0179,-3.9921,-3.9321,-3.8393,-3.8522,-3.8043,-3.6013,-3.5572,-3.4713,-3.2452,0.0,0.0,0.0,0.0,0.0,0.0,0.0,0.0,0.0,0.0,0.0,0.0,0.0,0.0,0.0,0.0,0.0,0.0,0.0,0.0,0.0,0.0,0.0,0.0,0.0,0.0,0.0,-3.7036,0.0,0.0,-3.5927,0.0,0.0,0.0,0.0,0.0,0.0,0.0,0.0,0.0,0.0,0.0,0.0,0.0,0.0,0.0,0.0,0.0,0.0,0.0,0.0,0.0,0.0,-3.6881,-3.9053,-3.993,-4.1427,-4.3573,-4.4459,-4.4819,-4.4687,-4.3208,-4.1529,-3.9786,0.0,0.0,0.0,0.0,0.0,0.0,0.0,0.0,0.0,0.0,0.0,0.0,0.0,0.0,0.0,0.0,0.0,0.0,0.0,0.0,0.0,0.0,0.0,0.0,0.0,0.0,-3.2799,-3.284,-3.2782,0.0,0.0,0.0,0.0,0.0,0.0,0.0,0.0,0.0,-3.7891,-3.8486,-3.8992,-3.9502,-3.9581,-3.9105,-3.7918,-3.7685,-3.7107,-3.559,-3.5169,-3.4264,0.0,0.0,0.0,0.0,0.0,0.0,0.0,0.0,0.0,0.0,0.0,0.0,0.0,0.0,0.0,0.0,0.0,0.0,0.0,0.0,0.0,0.0,0.0,0.0,0.0,0.0,0.0,-3.7957,-3.7952,0.0,0.0,0.0,0.0,0.0,0.0,0.0,0.0,0.0,0.0,0.0,-3.7661,-3.7636,0.0,0.0,0.0,0.0,0.0,0.0,0.0,0.0,0.0,0.0,0.0,0.0,-3.689,-3.8992,-3.9384,-4.0624,-4.2765,-4.3102,-4.2988,-4.2458,-4.134,-3.9692,-3.7523,0.0,0.0,0.0,0.0,0.0,0.0,0.0,0.0,0.0,0.0,0.0,0.0,0.0,0.0,0.0,0.0,0.0,0.0,0.0,0.0,0.0,0.0,0.0,0.0,0.0,-3.2801,0.0,0.0,0.0,0.0,0.0,0.0,0.0,0.0,0.0,0.0,0.0,-3.7754,-3.9034,-3.9148,-3.9387,-4.0071,-3.9083,-3.8079,0.0,0.0,0.0,0.0,0.0,0.0,0.0,0.0,0.0,0.0,0.0,0.0,0.0,0.0,-2.9779,-2.9706,-2.9425,-2.9138,-2.8973,0.0,0.0,0.0,0.0,0.0,0.0,0.0,0.0,0.0,0.0,0.0,0.0,0.0,0.0,-3.8762,0.0,-3.802,0.0,0.0,0.0,0.0,0.0,0.0,0.0,0.0,-3.7695,-3.8,-3.85,-3.851,-3.8488,0.0,-3.79,-3.7313,0.0,0.0,0.0,0.0,0.0,0.0,0.0,0.0,-3.7054,-3.8631,-3.9269,-4.0346,-4.1893,-4.2249,-4.2003,-4.1219,-4.01,-3.8584,-3.6699,-3.5789,-3.523,0.0,0.0,0.0,0.0,0.0,0.0,0.0,0.0,0.0,0.0,0.0,0.0,0.0,0.0,0.0,0.0,0.0,0.0,0.0,0.0,0.0,0.0,0.0,-3.3355,0.0,0.0,0.0,0.0,0.0,0.0,0.0,0.0,0.0,-3.5925,-3.7129,-3.8457,-3.9747,-3.9407,-3.9319,-4.0074,0.0,0.0,0.0,0.0,0.0,0.0,0.0,-3.5057,-3.4203,-3.3555,-3.2754,-3.1663,-3.0773,-3.0116,-2.9826,0.0,0.0,-2.9618,-2.9162,-2.8695,-2.8312,-2.7698,-2.711,-2.6687,-2.6701,-2.6799,0.0,0.0,0.0,0.0,0.0,0.0,0.0,0.0,-3.9478,-3.9538,0.0,-3.8836,0.0,0.0,0.0,0.0,-3.7235,-3.7232,0.0,0.0,-3.8535,-3.8548,-3.8604,-3.8635,-3.8551,-3.8493,-3.8455,-3.8431,-3.8337,-3.6779,0.0,0.0,0.0,0.0,0.0,0.0,-3.7397,-3.807,-3.9562,-4.0641,-4.1222,-4.1931,-4.1939,-4.1143,-3.9494,-3.8235,-3.7466,-3.6527,-3.5771,-3.5153,-3.35,0.0,0.0,0.0,0.0,0.0,0.0,0.0,0.0,0.0,0.0,0.0,0.0,0.0,0.0,0.0,0.0,0.0,0.0,0.0,0.0,-3.4556,0.0,0.0,0.0,0.0,0.0,0.0,0.0,0.0,0.0,0.0,-3.6514,-3.7395,-3.8544,-3.991,0.0,0.0,0.0,0.0,-3.7314,-3.7331,-3.7142,-3.6908,-3.6599,-3.6023,-3.5206,-3.4054,0.0,0.0,-3.2097,-3.1161,-3.0374,-2.9516,-2.973,-2.9922,-2.959,-2.8835,-2.795,-2.7201,-2.6832,-2.6231,-2.5475,-2.5845,-2.6243,-4.2358,0.0,0.0,0.0,0.0,-4.0226,-4.0271,-4.0069,-4.0176,-4.0325,-4.0442,-3.9643,0.0,0.0,0.0,0.0,0.0,0.0,-3.8585,-3.9406,-3.9429,-3.9746,-4.0361,-4.0363,-4.0336,-4.0313,-3.9652,-3.9328,-3.9273,-3.8218,-3.7374,-3.6771,0.0,0.0,0.0,0.0,-3.7996,-3.9695,-3.9747,-4.0212,-4.132,-4.0996,-4.0658,-4.026,-3.8092,-3.7363,-3.8273,-3.6416,-3.5595,-3.5959,-3.4542,0.0,0.0,0.0,0.0,0.0,0.0,0.0,0.0,0.0,0.0,0.0,0.0,0.0,0.0,0.0,0.0,0.0,0.0,0.0,-3.4732,-3.4737,-3.4636,0.0,0.0,0.0,0.0,0.0,0.0,0.0,0.0,0.0,-3.7981,-3.8471,-3.8977,0.0,0.0,-3.9175,-3.8854,-3.7952,-3.7453,-3.7941,-3.7496,0.0,-3.7401,-3.6496,-3.5543,-3.491,-3.4105,-3.3187,-3.2172,-3.1591,-3.1011,-3.0323,-3.0353,-3.0411,-3.0236,-2.9275,-2.8593,-2.8605,-2.7588,-2.6643,-2.6757,-2.6594,-2.6416,-4.2978,-4.1751,-4.131,-4.0959,-4.0644,-4.0673,-4.0567,-4.0328,-4.0427,-4.0554,-4.066,-4.0281,-4.0138,-4.0143,-3.9361,0.0,0.0,0.0,-3.9481,-4.0316,-4.03,-4.0602,-4.1092,-4.1113,-4.1112,-4.1078,-4.0514,-4.0244,-4.0194,-3.9335,-3.8653,-3.8124,0.0,0.0,-3.7625,-3.7955,-3.8792,-4.0043,-3.9985,-4.0284,-4.0955,-3.9821,-3.9309,-3.9437,-3.7355,-3.67,-3.7718,-3.67,-3.6216,-3.6516,-3.5336,-3.4315,0.0,0.0,0.0,0.0,0.0,0.0,0.0,0.0,0.0,0.0,0.0,-3.4137,-3.4952,0.0,0.0,0.0,-3.5373,-3.5007,-3.4508,-3.4563,0.0,0.0,0.0,0.0,0.0,0.0,0.0,-3.6274,-3.6725,-3.7292,-3.8037,-3.8486,-3.9035,-3.9876,-3.9729,-3.927,-3.8455,0.0,-3.7321,-3.7719,-3.7328,-3.7068,-3.7317,-3.6401,-3.5436,-3.4849,-3.4111,-3.3345,-3.2664,-3.2173,-3.1562,-3.0821,-3.0587,-3.0525,-3.0234,-2.9532,-2.9017,-2.9158,-2.8239,-2.7457,-2.7554,-2.7426,-2.7348,-4.3322,-4.2602,-4.2723,-4.2246,-4.1398,-4.139,-4.0974,-4.0301,-4.0428,-4.0474,-4.0438,-4.0717,-4.084,-4.0767,-4.0167,0.0,-3.9883,-3.9899,-4.0345,-4.1104,-4.1104,-4.1102,-4.1113,-4.1106,-4.111,-4.1104,-4.1101,-4.1078,-4.0955,-4.0192,-3.9811,-3.9789,-3.8996,-3.8581,-3.8542,-3.9295,-3.9631,-3.9545,-4.0306,-4.0584,-4.0319,-3.8624,-3.8065,-3.8765,-3.7072,-3.6245,-3.6516,-3.7107,-3.7239,-3.6779,-3.5918,-3.5059,-3.4229,0.0,0.0,0.0,0.0,0.0,0.0,0.0,0.0,0.0,0.0,0.0,0.0,0.0,0.0,-3.5405,-3.5151,0.0,-3.3856,-3.4389,0.0,0.0,0.0,-3.5786,-3.6472,-3.6886,-3.6989,-3.6696,0.0,0.0,-3.7254,-3.7776,-3.871,-4.0137,-3.9735,-3.8971,-3.8041,-3.7235,-3.6867,-3.7112,-3.6891,-3.6756,-3.6917,-3.6092,-3.5168,-3.4317,-3.4101,-3.3841,-3.3251,-3.2707,-3.1913,-3.0724,-3.0513,-3.0292,-2.9668,-2.9464,-2.9362,-2.8817,-2.8563,-2.8337,-2.7913,-2.7976,-2.8223,-4.4497,-4.4308,-4.4332,-4.3509,-4.2162,-4.2199,-4.1768,-4.1051,-4.1122,-4.0889,-4.0489,-4.0571,-4.07,-4.0864,-4.0712,-4.0684,-4.0779,-4.0794,-4.0897,-4.1092,-4.1112,-4.1108,-4.1111,-4.1109,-4.1099,-4.1099,-4.1113,-4.1093,-4.1053,-4.0808,-4.0682,-4.0659,-4.0431,-3.9994,-3.9427,-3.9606,-3.998,-4.0538,-4.0732,-4.0474,-3.9644,-3.8473,-3.7923,-3.8049,-3.6397,-3.613,-3.7379,-3.6516,-3.6212,-3.6671,-3.6022,-3.495,-3.3464,-3.3019,0.0,0.0,0.0,0.0,0.0,0.0,0.0,0.0,0.0,-3.5396,-3.5548,0.0,-3.5435,0.0,-3.5633,-3.5681,-3.5394,-3.6054,0.0,0.0,-3.6435,-3.6639,-3.7052,-3.7067,-3.7125,-3.7327,-3.7378,-3.7565,-3.7956,-3.7613,-3.7451,-3.7802,-3.7714,-3.729,-3.6461,-3.5723,-3.5881,-3.7303,-3.6755,-3.6472,-3.73,-3.65,-3.5197,-3.4259,-3.4084,-3.3908,-3.3303,-3.2761,-3.2002,-3.0751,-3.0115,-2.9624,-2.9043,-2.8898,-2.887,-2.8684,-2.8252,-2.7968,-2.8265,-2.7714,-2.7097,-4.4662,-4.4402,-4.4762,-4.4364,-4.3493,-4.3168,-4.2568,-4.1825,-4.1497,-4.1189,-4.0886,-4.0622,-4.0609,-4.0798,-4.0869,-4.0958,-4.1023,-4.1075,-4.1107,-4.1107,-4.1107,-4.11,-4.1114,-4.1108,-4.11,-4.1115,-4.1101,-4.1108,-4.1051,-4.0283,-4.0077,-4.0447,-3.9627,-3.9373,-3.9703,-4.0048,-4.0286,-4.0364,-4.0733,-4.0436,-3.9499,-3.8511,-3.7798,-3.734,-3.6028,-3.5752,-3.6738,-3.6335,-3.6132,-3.6239,-3.5905,-3.4918,-3.3239,-3.2774,-3.2518,0.0,0.0,0.0,0.0,0.0,0.0,0.0,0.0,0.0,0.0,0.0,-3.5905,-3.6045,-3.5983,-3.6028,-3.6323,-3.6436,-3.6581,-3.687,-3.6719,-3.6796,-3.7259,-3.7328,-3.7375,-3.7468,-3.7033,-3.6847,-3.7138,-3.6763,-3.6197,-3.5548,-3.576,-3.583,-3.539,-3.4951,-3.518,-3.632,-3.5864,-3.5378,-3.5951,-3.548,-3.4745,-3.386,-3.3672,-3.3532,-3.3198,-3.2415,-3.1481,-3.0545,-2.9873,-2.9338,-2.8735,-2.8674,-2.8694,-2.8609,-2.8139,-2.794,-2.8481,-2.8047,-2.7559,-4.4392,-4.3861,-4.4586,-4.4883,-4.4838,-4.4156,-4.3395,-4.2617,-4.192,-4.1535,-4.135,-4.075,-4.0549,-4.0694,-4.0807,-4.0854,-4.0874,-4.0906,-4.0958,-4.1055,-4.0968,-4.1,-4.1112,-4.1106,-4.1098,-4.1111,-4.1103,-4.1049,-4.0894,-3.9391,-3.9002,-3.9553,-3.8044,-3.7981,-3.9352,-4.0174,-4.0344,-3.9878,-4.0534,-4.0437,-3.9455,-3.8564,-3.7661,-3.6685,-3.582,-3.5409,-3.5541,-3.626,-3.6375,-3.5736,-3.5591,-3.487,-3.3449,-3.2566,-3.2436,0.0,-3.3267,0.0,0.0,0.0,0.0,0.0,0.0,0.0,0.0,-3.6074,-3.6473,-3.6694,-3.6113,-3.5973,-3.6683,-3.6198,-3.6123,-3.6789,-3.661,-3.6643,-3.7101,-3.7377,-3.7399,-3.7052,-3.6318,-3.5783,-3.5706,-3.5582,-3.495,-3.3915,-3.4073,-3.4372,-3.439,-3.4319,-3.4389,-3.46,-3.4688,-3.4549,-3.3833,-3.3969,-3.3969,-3.3183,-3.2951,-3.2959,-3.291,-3.1941,-3.0905,-3.0242,-2.972,-2.9184,-2.8506,-2.8503,-2.8583,-2.8388,-2.7981,-2.7864,-2.8333,-2.8349,-2.8462,-4.454,-4.4323,-4.4669,-4.4846,-4.4876,-4.4724,-4.4249,-4.3548,-4.3388,-4.2618,-4.1359,-4.0644,-4.0413,-4.0534,-4.0552,-4.0629,-4.0703,-4.015,-4.0274,-4.092,-4.0324,-4.0429,-4.1075,-4.1112,-4.1106,-4.1118,-4.1111,-4.073,-4.0054,-3.9724,-3.9277,-3.8748,-3.8348,-3.7962,-3.766,0.0,0.0,0.0,-4.0806,-4.014,-3.8616,-3.8371,-3.75,-3.5991,-3.5722,0.0,-3.5662,-3.5817,-3.5858,-3.5702,-3.5025,0.0,0.0,0.0,0.0,0.0,0.0,0.0,0.0,0.0,0.0,0.0,-3.5527,-3.5783,-3.6395,-3.6322,-3.5951,-3.5301,-3.5518,-3.5768,-3.5917,-3.6378,-3.6708,-3.6795,-3.6763,-3.6609,-3.6303,-3.6215,-3.5984,-3.5474,-3.5188,-3.5009,-3.4917,-3.4372,-3.3863,-3.3547,-3.3108,-3.288,-3.288,-3.2915,-3.3336,-3.4408,-3.4582,-3.4319,-3.3451,-3.3389,-3.322,-3.2455,-3.2206,-3.2206,-3.2142,-3.1614,-3.0875,-3.0204,-2.9661,-2.8966,-2.7961,-2.8052,-2.8157,-2.7369,-2.7394,-2.761,-2.7819,-2.7505,-2.7169,-4.3915,-4.3565,-4.4139,-4.4231,0.0,-4.4479,-4.4531,-4.4298,-4.3498,-4.2265,-4.0806,-4.0416,-4.029,-4.0405,-4.0476,-4.0523,-4.0582,-4.0285,-4.038,-4.0759,-4.006,-4.0159,-4.1,-4.0626,-4.0691,-4.1067,-4.0678,-4.0237,-3.9774,-3.8973,-3.8337,-3.7851,-3.7389,-3.7152,-3.7171,-3.7972,-3.8813,-3.9649,-4.0485,-3.9864,-3.7841,-3.8103,-3.7477,-3.5783,-3.5706,0.0,0.0,0.0,0.0,0.0,0.0,0.0,0.0,-3.3549,0.0,-3.45,-3.4482,-3.4802,-3.5574,-3.5546,-3.5496,-3.5495,-3.5879,-3.6226,-3.6522,-3.5939,-3.5655,-3.5878,-3.5726,-3.5758,-3.6137,-3.6205,-3.6193,-3.6174,-3.6174,-3.5983,-3.5646,-3.569,-3.5582,-3.5168,-3.4553,-3.4268,-3.4653,-3.4004,-3.3547,-3.3494,-3.3196,-3.2774,-3.2493,-3.2406,-3.2757,-3.3441,-3.3564,-3.324,-3.2474,-3.2557,-3.2466,-3.1697,-3.1454,-3.1454,-3.1454,-3.0923,-3.0359,-3.0023,-2.9548,-2.8955,-2.8484,-2.8312,-2.8134,-2.768,-2.753,-2.7529,-2.7565,-2.7167,-2.6794,-4.3268,-4.2815,-4.354,-4.3644,-4.3376,-4.4032,-4.4423,-4.4512,0.0,0.0,0.0,-4.0262,-4.0215,-4.0282,-4.0413,-4.0468,-4.0457,-4.0286,-4.0295,-4.0398,-3.9663,-3.9723,-4.0392,-3.9971,-4.009,-4.0591,-3.9911,-3.9492,-3.9316,-3.7959,-3.7194,-3.6932,-3.625,-3.6345,-3.7202,-3.8163,-3.8565,-3.8494,-3.9904,-3.9678,-3.7657,-3.8056,-3.7568,-3.5994,-3.5795,-3.5728,-3.5728,-3.5728,-3.5408,-3.4709,-3.4556,-3.4312,-3.381,-3.368,-3.3981,-3.4754,-3.4779,-3.5026,-3.566,-3.5579,-3.5515,-3.549,-3.6105,-3.6423,-3.6255,-3.5577,-3.5551,-3.6566,-3.5848,-3.5597,-3.6197,-3.5677,-3.5268,-3.5256,-3.5268,-3.5162,-3.4944,-3.5086,-3.511,-3.482,-3.3792,-3.3371,-3.4073,-3.3354,-3.2967,-3.3038,-3.2915,-3.3003,-3.2546,-3.2406,-3.2423,-3.2546,-3.2616,-3.2178,-3.1534,-3.163,-3.1671,-3.1029,-3.08,-3.071,-3.0668,-3.0263,-2.9945,-2.9933,-2.9531,-2.9243,-2.9129,-2.885,-2.8519,-2.8336,-2.8021,-2.7715,-2.7515,-2.7188,-2.6922,-4.3332,-4.3243,-4.3588,-4.3746,-4.3806,-4.3918,-4.3762,-4.3393,-4.2775,-4.1982,-4.1111,-4.048,-4.0206,-4.0234,-4.0301,-4.0309,-4.0223,-3.8915,-3.8703,-3.936,-3.8665,-3.8437,-3.8702,-3.9313,-3.9365,-3.8873,-3.8744,-3.8326,-3.7698,-3.7407,-3.6907,-3.6234,-3.5975,-3.6326,-3.7266,-3.8801,-3.9227,-3.8541,-3.9406,-3.9701,-3.9343,-3.8714,-3.7916,-3.6943,-3.6161,-3.5788,-3.5785,-3.5785,-3.5755,-3.5672,-3.4988,-3.4897,-3.5546,-3.4904,-3.4864,-3.5635,-3.5704,-3.57,-3.5711,-3.5621,-3.5566,-3.5502,-3.5604,-3.5659,-3.5638,-3.5982,-3.5919,-3.5296,-3.4921,-3.4656,-3.458,-3.4488,-3.4401,-3.4414,-3.4383,-3.4309,-3.4129,-3.3879,-3.3668,-3.3454,-3.225,-3.1879,-3.2511,-3.1581,-3.1036,-3.1423,-3.1774,-3.1774,-3.2213,-3.2406,-3.2406,-3.2406,-3.2406,-3.2179,-3.171,-3.1368,-3.1147,-3.0663,-3.0321,-3.0145,-3.0139,-2.9961,-2.9848,-2.9896,-2.9744,-2.955,-2.9234,-2.9448,-2.9227,-2.8622,-2.8575,-2.8504,-2.779,-2.7464,-2.7265,-4.2629,-4.232,-4.2941,-4.3098,-4.2963,-4.3616,-4.3282,-4.2291,-4.2045,-4.1731,-4.1231,-4.0447,-4.0128,-4.0196,-4.0215,-4.0263,-4.0234,-3.9052,-3.8712,-3.8977,-3.7901,-3.7604,-3.805,-3.8161,-3.828,-3.8348,-3.796,-3.7613,-3.7251,-3.6815,-3.6373,-3.6027,-3.5964,-3.6403,-3.7246,-3.8006,-3.867,-3.9199,-3.9992,-3.9967,-3.9089,-3.8643,-3.8025,-3.7167,-3.6316,-3.5838,-3.5791,-3.5791,-3.5814,-3.5841,-3.552,-3.55,-3.59,-3.5599,-3.5582,-3.5929,-3.5911,-3.5851,-3.5764,-3.5645,-3.5568,-3.5515,-3.5489,-3.5489,-3.5481,-3.5668,-3.5539,-3.5063,-3.4385,-3.4044,-3.4353,-3.3902,-3.3726,-3.4172,-3.4216,-3.4124,-3.3908,-3.355,-3.3232,-3.2952,-3.1948,-3.1335,-3.1686,-3.0791,-3.0387,-3.1036,-3.1177,-3.1352,-3.1668,-3.1423,-3.1493,-3.2195,-3.2406,-3.2179,-3.1786,-3.1565,-3.1184,-3.0621,-3.0351,-3.013,-2.9935,-2.9637,-2.9507,-2.9783,-2.9605,-2.9404,-2.9425,-2.971,-2.9621,-2.9387,-2.9051,-2.885,-2.8432,-2.7947,-2.7352,-4.2105,-4.1662,-4.2395,-4.2556,-4.2356,-4.3266,-4.2908,-4.1708,-4.1486,-4.1259,-4.0991,-4.023,-3.9975,-4.0067,-4.0147,-4.0234,-4.0139,-3.9193,-3.8706,-3.857,-3.729,-3.6913,-3.7286,-3.7041,-3.7191,-3.7612,-3.7101,-3.6868,-3.6788,-3.6263,-3.5988,-3.6019,-3.6184,-3.6617,-3.7282,-3.7631,-3.8373,-3.9511,-4.0332,-4.0208,-3.9135,-3.8913,-3.8399,-3.7536,-3.6669,-3.6093,-3.5867,-3.5845,-3.5847,-3.5847,-3.5892,-3.5923,-3.5924,-3.5975,-3.6015,-3.5995,-3.5949,-3.5884,-3.5791,-3.5514,-3.5394,-3.5502,-3.5515,-3.5496,-3.5494,-3.5361,-3.5242,-3.507,-3.4112,-3.3681,-3.4028,-3.3355,-3.3013,-3.3596,-3.3838,-3.3833,-3.3696,-3.3465,-3.3262,-3.2996,-3.1978,-3.128,-3.1264,-3.051,-3.0053,-3.0457,-3.0685,-3.072,-3.0826,-3.044,-3.0703,-3.1458,-3.2002,-3.2091,-3.1843,-3.1749,-3.1329,-3.0543,-3.0277,-2.9893,-2.9479,-2.8973,-2.9038,-2.9459,-2.9378,-2.9356,-2.9783,-2.9896,-2.9874,-2.977,-2.9538,-2.925,-2.9028,-2.8167,-2.7393,-4.2351,-4.2414,-4.2488,-4.2609,-4.2699,-4.2921,-4.2648,-4.2042,-4.1364,-4.0794,-4.0342,-3.9858,-3.9672,-3.9712,-4.0027,-4.0196,-4.0091,-3.8554,-3.7865,-3.775,-3.6918,-3.6213,-3.5808,-3.6388,-3.6421,-3.5966,-3.5818,-3.5896,-3.5997,-3.5887,-3.5897,-3.6073,-3.6789,-3.7162,-3.7438,-3.8728,-3.9256,-3.8747,-3.9513,-4.022,-4.0791,-4.0151,-3.9373,-3.8476,-3.7597,-3.6797,-3.6014,-3.5976,-3.5976,-3.5976,-3.5996,-3.5976,-3.5976,-3.5996,-3.6016,-3.6016,-3.5975,-3.594,-3.5741,-3.5002,-3.4841,-3.549,-3.5508,-3.5509,-3.5502,-3.5468,-3.5403,-3.51,-3.4264,-3.3658,-3.3385,-3.2614,-3.2128,-3.2232,-3.276,-3.3101,-3.305,-3.3258,-3.3361,-3.3273,-3.1983,-3.1522,-3.179,-3.044,-2.9228,-2.9457,-2.9457,-2.9579,-3.0053,-3.0001,-2.9948,-3.0371,-3.0843,-3.1528,-3.1917,-3.1948,-3.1153,-3.023,-2.9727,-2.9184,-2.8522,-2.8498,-2.8876,-2.9038,-2.9394,-2.9637,-2.9815,-2.9896,-2.9896,-2.9896,-2.9792,-2.9665,-2.9159,-2.8304,-2.7479,-4.2328,-4.2387,-4.2483,-4.2336,-4.217,-4.2624,-4.2213,-4.1211,-4.1358,-4.0788,-3.9834,-3.973,-3.9606,-3.9452,-3.99,-4.0067,-3.9943,-3.8899,-3.8125,-3.7655,-3.6882,-3.6083,-3.5389,-3.5722,-3.5759,-3.5527,-3.5554,-3.562,-3.5689,-3.5721,-3.5776,-3.5833,-3.62,-3.6629,-3.7186,-3.7851,-3.8296,-3.8609,-3.8923,-3.9276,-3.9474,-3.8795,-3.8448,-3.845,-3.7261,-3.6384,-3.6054,-3.6015,-3.6015,-3.6016,-3.6016,-3.6016,-3.6016,-3.6016,-3.6016,-3.5976,-3.5464,-3.4921,-3.4402,-3.4406,-3.4578,-3.4875,-3.5303,-3.5559,-3.556,-3.5522,-3.5449,-3.5278,-3.4427,-3.3741,-3.3478,-3.2606,-3.1971,-3.1927,-3.2121,-3.2214,-3.1961,-3.1986,-3.2021,-3.216,-3.1337,-3.0938,-3.1383,-3.0525,-2.9685,-2.9527,-2.9246,-2.9053,-2.9351,-2.9,-2.893,-2.9316,-2.9667,-3.0141,-3.0862,-3.0902,-3.0352,-2.9632,-2.9218,-2.8732,-2.8005,-2.7867,-2.8255,-2.866,-2.9021,-2.9426,-2.9832,-2.988,-2.9896,-2.9896,-2.9874,-2.9748,-2.9205,-2.8496,-2.7839,-4.2308,-4.2308,-4.2445,-4.2117,-4.1607,-4.2441,-4.1901,-4.0673,-4.1343,-4.0963,-3.9802,-4.0014,-3.982,-3.9435,-3.9638,-3.9773,-3.9735,-3.9095,-3.8528,-3.7953,-3.7207,-3.6489,-3.5933,-3.5979,-3.6027,-3.6041,-3.6163,-3.6093,-3.591,-3.5727,-3.5708,-3.5715,-3.5709,-3.604,-3.6654,-3.6914,-3.7317,-3.7794,-3.8051,-3.8211,-3.8141,-3.7404,-3.7368,-3.8034,-3.7022,-3.6245,-3.6013,-3.6014,-3.6015,-3.6015,-3.6016,-3.6016,-3.6016,-3.6016,-3.5898,-3.5605,-3.48,-3.4026,-3.3452,-3.3682,-3.3906,-3.412,-3.4638,-3.4919,-3.495,-3.5071,-3.5168,-3.5098,-3.4651,-3.4236,-3.3631,-3.2525,-3.1744,-3.1606,-3.154,-3.1376,-3.1109,-3.1018,-3.122,-3.1327,-3.0815,-3.0315,-3.0515,-3.0082,-2.9613,-2.9263,-2.886,-2.8579,-2.8526,-2.8122,-2.7982,-2.8473,-2.8579,-2.9035,-2.9844,-3.0197,-2.9726,-2.9025,-2.8675,-2.8246,-2.7532,-2.7358,-2.7462,-2.7786,-2.8223,-2.8709,-2.9281,-2.9524,-2.9686,-2.9832,-2.9864,-2.9744,-2.9486,-2.8889,-2.8376,-4.2308,-4.2325,-4.2463,-4.204,-4.1398,-4.2327,-4.1882,-4.0456,-4.1306,-4.1216,-4.0491,-4.0729,-4.0377,-3.9422,-3.9225,-3.932,-3.9486,-3.8908,-3.8664,-3.8652,-3.801,-3.7636,-3.7597,-3.7606,-3.7538,-3.7392,-3.737,-3.7156,-3.6636,-3.6021,-3.5708,-3.5723,-3.5697,-3.5728,-3.5935,-3.6565,-3.6646,-3.6315,-3.6852,-3.7242,-3.7258,-3.6539,-3.6523,-3.7249,-3.7233,-3.6747,-3.6128,-3.6013,-3.6014,-3.6014,-3.6015,-3.6016,-3.6016,-3.6016,-3.5644,-3.4844,-3.3965,-3.3454,-3.3282,-3.2723,-3.2604,-3.3201,-3.3468,-3.3294,-3.3513,-3.4091,-3.4447,-3.4383,-3.4899,-3.4789,-3.3834,-3.2279,-3.1098,-3.0941,-3.0804,-3.0732,-3.0708,-3.0821,-3.1094,-3.1003,-3.0646,-3.0204,-2.9417,-2.9074,-2.881,-2.8338,-2.7889,-2.7851,-2.7944,-2.7795,-2.7827,-2.7833,-2.7974,-2.8313,-2.9685,-2.9704,-2.9315,-2.8661,-2.793,-2.7549,-2.6906,-2.6456,-2.6724,-2.7008,-2.7559,-2.8109,-2.8649,-2.8973,-2.9167,-2.9362,-2.9637,-2.9592,-2.9408,-2.9278,-2.8873,-4.2308,-4.2308,-4.2346,-4.1674,-4.0677,-4.1455,-4.13,-4.0528,-4.1269,-4.1197,-4.06,-4.0633,-3.9924,-3.8676,-3.8577,-3.8748,-3.9077,-3.9145,-3.8995,-3.8683,-3.8518,-3.8182,-3.7712,-3.7693,-3.7693,-3.7693,-3.7693,-3.7611,-3.7348,-3.6594,-3.6239,-3.6151,-3.5753,-3.5537,-3.5629,-3.5911,-3.5969,-3.5838,-3.6177,-3.6367,-3.6406,-3.6137,-3.616,-3.6376,-3.6435,-3.6332,-3.6026,-3.6009,-3.601,-3.6012,-3.6014,-3.6015,-3.6015,-3.6015,-3.5605,-3.4746,-3.3887,-3.3183,-3.2672,-3.2309,-3.2215,-3.2549,-3.3476,-3.3638,-3.3404,-3.3843,-3.4309,-3.433,-3.4424,-3.452,-3.4489,-3.3031,-3.159,-3.0882,-3.0305,-2.9926,-2.9792,-2.9828,-2.9977,-3.0292,-3.0445,-3.0412,-2.9917,-2.9482,-2.9053,-2.8947,-2.8477,-2.8164,-2.8183,-2.8206,-2.8129,-2.7992,-2.7971,-2.8092,-2.8348,-2.8544,-2.8314,-2.7829,-2.7282,-2.6944,-2.6409,-2.6456,-2.6701,-2.6704,-2.7138,-2.7527,-2.8045,-2.8255,-2.8466,-2.853,-2.8838,-2.92,-2.9178,-2.9092,-2.9,-4.2308,-4.2308,-4.2308,-4.1578,-4.0583,-4.132,-4.113,-4.0454,-4.1158,-4.1123,-4.0547,-4.0456,-3.975,-3.8735,-3.859,-3.8556,-3.8646,-3.9082,-3.9102,-3.8818,-3.9031,-3.8737,-3.809,-3.8069,-3.7952,-3.7674,-3.7406,-3.7443,-3.764,-3.6911,-3.6542,-3.6508,-3.6021,-3.5659,-3.5528,-3.5501,-3.5571,-3.5664,-3.5757,-3.5833,-3.584,-3.5877,-3.588,-3.5852,-3.5877,-3.5899,-3.589,-3.5664,-3.5534,-3.5482,-3.5276,-3.5262,-3.5515,-3.5834,-3.5583,-3.4724,-3.3867,-3.3047,-3.2285,-3.1909,-3.1707,-3.1744,-3.2608,-3.3012,-3.2506,-3.3081,-3.3461,-3.352,-3.3735,-3.4058,-3.4138,-3.3103,-3.1966,-3.1242,-3.0254,-2.9501,-2.9361,-2.9228,-2.9333,-2.9582,-2.9844,-3.0017,-2.9948,-2.9357,-2.9125,-2.9298,-2.8737,-2.843,-2.8478,-2.8458,-2.8368,-2.8156,-2.8041,-2.7933,-2.7988,-2.8035,-2.8035,-2.7604,-2.7272,-2.6742,-2.6416,-2.6537,-2.6515,-2.65,-2.6668,-2.7041,-2.7332,-2.7527,-2.764,-2.7652,-2.8061,-2.8514,-2.8672,-2.893,-2.8959,-4.2267,-4.2246,-4.2287,-4.1785,-4.1183,-4.1888,-4.15,-4.0482,-4.0989,-4.094,-4.042,-4.0366,-3.986,-3.9352,-3.9097,-3.8896,-3.8414,-3.8597,-3.8896,-3.9167,-3.9474,-3.9252,-3.862,-3.865,-3.8289,-3.764,-3.6969,-3.7026,-3.7599,-3.7058,-3.6728,-3.6526,-3.65,-3.6067,-3.5405,-3.5415,-3.547,-3.556,-3.5609,-3.5636,-3.5685,-3.5733,-3.5714,-3.5717,-3.5706,-3.5702,-3.5682,-3.5044,-3.4743,-3.461,-3.4021,-3.3816,-3.4725,-3.5373,-3.5485,-3.4651,-3.3844,-3.3047,-3.2305,-3.1484,-3.1035,-3.1094,-3.1024,-3.1246,-3.1232,-3.1693,-3.2115,-3.2222,-3.265,-3.3122,-3.2942,-3.2257,-3.1802,-3.2079,-3.064,-2.9673,-2.954,-2.9353,-2.9141,-2.906,-2.9113,-2.8894,-2.8803,-2.8801,-2.8782,-2.8704,-2.8601,-2.8559,-2.8633,-2.8596,-2.8344,-2.8192,-2.8151,-2.8073,-2.7876,-2.7716,-2.7733,-2.7659,-2.7373,-2.6988,-2.6674,-2.6616,-2.6286,-2.6185,-2.6024,-2.6345,-2.6636,-2.6847,-2.7106,-2.7235,-2.7608,-2.7899,-2.8306,-2.8624,-2.8998,-4.1445,-4.1731,-4.1749,-4.1498,-4.1143,-4.1435,-4.1244,-4.0911,-4.0661,-4.0395,-4.0183,-3.977,-3.9156,-3.8612,-3.8537,-3.8462,-3.8209,-3.8322,-3.8538,-3.889,-3.9266,-3.9296,-3.9006,-3.8652,-3.805,-3.7451,-3.7792,-3.7794,-3.7595,-3.7916,-3.7719,-3.6725,-3.6517,-3.6101,-3.5389,-3.5383,-3.5429,-3.5463,-3.5556,-3.5609,-3.5626,-3.5687,-3.5687,-3.5645,-3.564,-3.5604,-3.5544,-3.5408,-3.5325,-3.5271,-3.512,-3.4917,-3.4725,-3.4837,-3.488,-3.4569,-3.3851,-3.3335,-3.293,-3.1738,-3.0918,-3.0996,-3.1358,-3.1323,-3.0957,-3.1435,-3.1848,-3.1844,-3.2096,-3.2361,-3.2739,-3.2164,-3.1608,-3.152,-3.05,-2.9773,-2.9683,-2.955,-2.9372,-2.9144,-2.9101,-2.9012,-2.8875,-2.8785,-2.8749,-2.8862,-2.8803,-2.8773,-2.9019,-2.9014,-2.8957,-2.8785,-2.8576,-2.8282,-2.8105,-2.7936,-2.7879,-2.7792,-2.7524,-2.7246,-2.6939,-2.6674,-2.6297,-2.5957,-2.5752,-2.5732,-2.5988,-2.6199,-2.6474,-2.6587,-2.6733,-2.7235,-2.7883,-2.8338,-2.8683,-4.099,-4.1248,-4.1428,-4.1315,-4.1047,-4.1357,-4.1299,-4.0976,-4.0613,-4.0354,-4.0089,-3.9733,-3.9121,-3.8579,-3.8523,-3.8428,-3.8228,-3.8209,-3.8305,-3.8538,-3.8865,-3.8943,-3.8598,-3.774,-3.6904,-3.6351,-3.6892,-3.7143,-3.6883,-3.7604,-3.7486,-3.6517,-3.6443,-3.6099,-3.5388,-3.5339,-3.5369,-3.5386,-3.5477,-3.552,-3.5538,-3.5582,-3.5593,-3.5564,-3.5558,-3.5534,-3.552,-3.5568,-3.5475,-3.5219,-3.5203,-3.4971,-3.4544,-3.4529,-3.4547,-3.435,-3.356,-3.2896,-3.277,-3.1621,-3.0918,-3.1016,-3.1363,-3.1412,-3.0993,-3.1295,-3.1451,-3.1425,-3.1382,-3.1583,-3.1908,-3.1644,-3.1116,-3.0817,-3.0335,-2.994,-2.9808,-2.9701,-2.956,-2.9402,-2.9361,-2.9278,-2.913,-2.9041,-2.9,-2.9181,-2.9108,-2.9064,-2.9336,-2.9315,-2.9178,-2.9014,-2.8779,-2.8518,-2.8327,-2.8178,-2.8085,-2.7896,-2.7707,-2.7432,-2.7165,-2.6956,-2.6641,-2.619,-2.5917,-2.5715,-2.587,-2.5797,-2.5904,-2.5924,-2.6072,-2.6523,-2.7187,-2.7867,-2.8317,-4.0731,-4.0825,-4.1225,-4.1139,-4.0943,-4.17,-4.1453,-4.0637,-4.0813,-4.0644,-4.0185,-4.0066,-3.9695,-3.9229,-3.9085,-3.8776,-3.8284,-3.8209,-3.8209,-3.8307,-3.8476,-3.8342,-3.7715,-3.6621,-3.568,-3.4963,-3.5097,-3.5363,-3.5724,-3.6501,-3.6348,-3.5989,-3.6168,-3.6025,-3.5329,-3.5253,-3.5223,-3.5251,-3.533,-3.5379,-3.542,-3.5455,-3.552,-3.5514,-3.552,-3.5514,-3.5488,-3.5495,-3.5136,-3.4437,-3.4478,-3.4417,-3.4334,-3.4352,-3.4438,-3.4307,-3.2963,-3.2466,-3.2071,-3.1616,-3.1094,-3.1113,-3.1152,-3.0917,-3.0905,-3.0894,-3.0925,-3.0797,-3.0736,-3.0696,-3.077,-3.0728,-3.0577,-3.0375,-3.0196,-3.0041,-2.9905,-2.9763,-2.9673,-2.9598,-2.9598,-2.9569,-2.9443,-2.9394,-2.9394,-2.9412,-2.9343,-2.9341,-2.9372,-2.931,-2.9138,-2.9026,-2.8938,-2.8785,-2.8614,-2.8367,-2.8259,-2.8122,-2.7925,-2.7659,-2.7402,-2.7181,-2.694,-2.6487,-2.6101,-2.5885,-2.5735,-2.5749,-2.5675,-2.5735,-2.5913,-2.6053,-2.6555,-2.7316,-2.7867,-3.991,-4.0228,-4.0351,-4.0546,-4.0802,-4.1105,-4.1024,-4.0695,-4.06,-4.0532,-4.0335,-4.016,-3.9709,-3.9049,-3.9139,-3.876,-3.8125,-3.8121,-3.8209,-3.8225,-3.8257,-3.7931,-3.7284,-3.6434,-3.5574,-3.4927,-3.5056,-3.5046,-3.4769,-3.6053,-3.6119,-3.498,-3.5629,-3.5546,-3.4856,-3.4784,-3.487,-3.4997,-3.5077,-3.5223,-3.5357,-3.5405,-3.5453,-3.55,-3.55,-3.55,-3.55,-3.55,-3.5443,-3.5156,-3.452,-3.425,-3.4343,-3.4328,-3.4163,-3.3658,-3.3241,-3.2906,-3.2773,-3.2221,-3.1823,-3.1785,-3.1736,-3.1562,-3.0917,-3.0829,-3.0795,-3.0726,-3.0681,-3.0609,-3.0618,-3.06,-3.0569,-3.0505,-3.0291,-3.0073,-2.9961,-2.9874,-2.9798,-2.9701,-2.9664,-2.9579,-2.9463,-2.9384,-2.9355,-2.9324,-2.9322,-2.9332,-2.9394,-2.9423,-2.931,-2.928,-2.9198,-2.9056,-2.8874,-2.8632,-2.8445,-2.8309,-2.8132,-2.7925,-2.7659,-2.7417,-2.7101,-2.6725,-2.6419,-2.6174,-2.6066,-2.6008,-2.5881,-2.5733,-2.5761,-2.5956,-2.6367,-2.6976,-2.7316,-3.9398,-3.9731,-3.9919,-4.007,-4.0237,-4.0628,-4.0683,-4.0525,-4.0562,-4.0691,-4.0783,-4.0742,-3.9996,-3.8975,-3.9013,-3.8239,-3.7138,-3.7421,-3.7599,-3.7688,-3.7993,-3.7802,-3.7205,-3.6681,-3.5996,-3.5026,-3.523,-3.4821,-3.4365,-3.5355,-3.527,-3.469,-3.497,-3.4958,-3.4596,-3.454,-3.4614,-3.4735,-3.4813,-3.4972,-3.5086,-3.5231,-3.5304,-3.5369,-3.5424,-3.546,-3.5493,-3.55,-3.5494,-3.538,-3.5014,-3.4758,-3.4751,-3.4428,-3.4075,-3.365,-3.3372,-3.3044,-3.2782,-3.2567,-3.2443,-3.2183,-3.2141,-3.1931,-3.1484,-3.111,-3.0832,-3.0777,-3.0722,-3.0659,-3.0613,-3.0617,-3.0607,-3.0579,-3.0428,-3.0248,-3.0087,-2.9965,-2.9864,-2.9799,-2.9729,-2.9655,-2.9482,-2.9472,-2.9434,-2.9414,-2.9433,-2.9453,-2.9492,-2.9521,-2.9512,-2.9464,-2.9404,-2.9251,-2.9123,-2.8897,-2.8601,-2.8487,-2.8282,-2.8109,-2.7882,-2.7615,-2.7384,-2.7068,-2.6757,-2.6488,-2.6401,-2.6242,-2.6028,-2.5901,-2.583,-2.5868,-2.6216,-2.6581,-2.6906,-3.9104,-3.9325,-3.9756,-3.9696,-3.952,-4.0237,-4.0319,-4.0095,-4.0422,-4.0856,-4.1143,-4.1393,-4.0545,-3.9062,-3.9009,-3.7864,-3.6136,-3.6777,-3.6937,-3.7276,-3.7633,-3.768,-3.74,-3.7135,-3.645,-3.5499,-3.5381,-3.4957,-3.4652,-3.4753,-3.4608,-3.4531,-3.4605,-3.451,-3.439,-3.4386,-3.4442,-3.4486,-3.4561,-3.4674,-3.4698,-3.4802,-3.4869,-3.5157,-3.5304,-3.5383,-3.5439,-3.546,-3.5488,-3.5481,-3.55,-3.5424,-3.5342,-3.47,-3.4314,-3.415,-3.3644,-3.3067,-3.2481,-3.2983,-3.3081,-3.2629,-3.2428,-3.2172,-3.201,-3.1504,-3.1092,-3.0849,-3.0803,-3.0722,-3.0633,-3.0606,-3.0601,-3.0602,-3.0583,-3.051,-3.0344,-3.0087,-2.9921,-2.9899,-2.9773,-2.9701,-2.9701,-2.9701,-2.9673,-2.9579,-2.9589,-2.9617,-2.9654,-2.9664,-2.9645,-2.9617,-2.9541,-2.9443,-2.9322,-2.9188,-2.8885,-2.8633,-2.8396,-2.8201,-2.8039,-2.7821,-2.7674,-2.7446,-2.7178,-2.6922,-2.6708,-2.6505,-2.6261,-2.6064,-2.5974,-2.5883,-2.587,-2.6241,-2.658,-3.904,-3.9077,-3.9335,-3.9388,-3.9352,-3.952,-3.9556,-3.952,-3.9969,-4.0192,-4.047,-4.1122,-4.0801,-3.99,-3.907,-3.8563,-3.756,-3.7019,-3.705,-3.7693,-3.7306,-3.7629,-3.766,-3.7398,-3.6939,-3.6455,-3.6039,-3.5747,-3.56,-3.5427,-3.5409,-3.4884,-3.4692,-3.4581,-3.4066,-3.403,-3.408,-3.4208,-3.4298,-3.4405,-3.4448,-3.4186,-3.4273,-3.4775,-3.5105,-3.5223,-3.5289,-3.5417,-3.5493,-3.5481,-3.55,-3.5488,-3.5443,-3.5297,-3.4905,-3.4417,-3.4202,-3.3945,-3.3755,-3.3473,-3.3464,-3.3693,-3.3202,-3.2833,-3.2151,-3.197,-3.1504,-3.1092,-3.0811,-3.0758,-3.0652,-3.0605,-3.0618,-3.061,-3.0602,-3.0569,-3.05,-3.0254,-3.003,-2.9913,-2.9799,-2.9701,-2.9701,-2.9701,-2.9711,-2.972,-2.9755,-2.9796,-2.9813,-2.9805,-2.9796,-2.9787,-2.9673,-2.9589,-2.9503,-2.9355,-2.9079,-2.8838,-2.8608,-2.837,-2.8214,-2.8081,-2.7933,-2.7803,-2.7642,-2.7382,-2.7084,-2.6791,-2.6539,-2.6348,-2.6134,-2.599,-2.5965,-2.6173,-2.6199,-3.8876,-3.8996,-3.9104,-3.9218,-3.9299,-3.9315,-3.9315,-3.9269,-3.9146,-3.927,-3.9525,-3.9957,-3.9473,-3.851,-3.8064,-3.7426,-3.6417,-3.5878,-3.5992,-3.6612,-3.655,-3.6872,-3.7448,-3.7297,-3.7057,-3.7017,-3.6739,-3.6401,-3.6075,-3.5773,-3.5259,-3.493,-3.4679,-3.4219,-3.388,-3.3807,-3.3881,-3.3985,-3.4049,-3.4142,-3.4155,-3.4072,-3.3821,-3.4281,-3.4632,-3.476,-3.3955,-3.4894,-3.502,-3.4981,-3.5196,-3.5481,-3.55,-3.5482,-3.5238,-3.4937,-3.4828,-3.4583,-3.4284,-3.4295,-3.4197,-3.3891,-3.3492,-3.2871,-3.2163,-3.1783,-3.1381,-3.0994,-3.0839,-3.0803,-3.0709,-3.0617,-3.0614,-3.0614,-3.0601,-3.0602,-3.0574,-3.035,-3.0137,-3.0,-2.9899,-2.9782,-2.9729,-2.9747,-2.9764,-2.9816,-2.9832,-2.9897,-2.9969,-2.9969,-2.9988,-2.995,-2.983,-2.9726,-2.9663,-2.9494,-2.923,-2.9027,-2.8879,-2.8645,-2.8448,-2.8331,-2.8228,-2.8063,-2.785,-2.7716,-2.7428,-2.7149,-2.6825,-2.6572,-2.6348,-2.6134,-2.6023,-2.6069,-2.6047,-3.8755,-3.8958,-3.8985,-3.9094,-3.9245,-3.9245,-3.9272,-3.9199,-3.8642,-3.8696,-3.8745,-3.8578,-3.8207,-3.6939,-3.683,-3.5593,-3.4534,-3.4422,-3.5349,-3.6348,-3.573,-3.6176,-3.6783,-3.7015,-3.6866,-3.6964,-3.7164,-3.6921,-3.6455,-3.5768,-3.5743,-3.5115,-3.4577,-3.422,-3.3945,-3.3807,-3.382,-3.386,-3.39,-3.3926,-3.3886,-3.3926,-3.3683,-3.3652,-3.4249,-3.4215,-3.3705,-3.4312,-3.4792,-3.3979,-3.4759,-3.5163,-3.5299,-3.5474,-3.5481,-3.5462,-3.5399,-3.5111,-3.4744,-3.4814,-3.4613,-3.3391,-3.318,-3.2753,-3.2052,-3.1533,-3.1165,-3.0945,-3.0857,-3.0877,-3.0803,-3.0689,-3.0626,-3.0605,-3.0621,-3.0616,-3.0574,-3.0446,-3.0308,-3.0137,-3.0007,-2.9913,-2.9857,-2.9841,-2.9855,-2.9897,-2.9918,-2.9981,-3.008,-3.0124,-3.0143,-3.0102,-2.9985,-2.9864,-2.9787,-2.9664,-2.9394,-2.9198,-2.906,-2.8832,-2.8626,-2.8401,-2.8259,-2.8178,-2.8025,-2.7893,-2.773,-2.7461,-2.7149,-2.6825,-2.6555,-2.6313,-2.6155,-2.598,-2.5908,-3.8616,-3.8672,-3.8777,-3.8914,-3.9023,-3.9067,-3.9148,-3.9255,-3.909,-3.8795,-3.8385,-3.8619,-3.8231,-3.749,-3.6646,-3.5928,-3.5139,-3.5013,-3.5683,-3.6431,-3.562,-3.5398,-3.663,-3.6716,-3.655,-3.6544,-3.7084,-3.7604,-3.7707,-3.7758,-3.6638,-3.5969,-3.5568,-3.5011,-3.4014,-3.3766,-3.3807,-3.3807,-3.3834,-3.3834,-3.3763,-3.3454,-3.3161,-3.3106,-3.3889,-3.4075,-3.4147,-3.4519,-3.4608,-3.3804,-3.3999,-3.4155,-3.4458,-3.5045,-3.5352,-3.5488,-3.5488,-3.5354,-3.5207,-3.4732,-3.4493,-3.3997,-3.3471,-3.2708,-3.2073,-3.1727,-3.1265,-3.0951,-3.0852,-3.0879,-3.081,-3.0719,-3.0694,-3.0665,-3.0626,-3.0617,-3.06,-3.0549,-3.0477,-3.0314,-3.0164,-3.0037,-2.9988,-2.9958,-3.0004,-3.0052,-3.0096,-3.017,-3.0273,-3.0284,-3.0265,-3.0216,-3.0163,-3.0026,-2.9905,-2.9773,-2.9579,-2.9353,-2.9177,-2.8925,-2.8682,-2.8388,-2.8237,-2.8196,-2.8168,-2.8081,-2.7908,-2.7719,-2.7461,-2.7133,-2.6825,-2.6504,-2.6314,-2.609,-2.5866,-3.8548,-3.8616,-3.8672,-3.8766,-3.8887,-3.8887,-3.8996,-3.9071,-3.8784,-3.8474,-3.8159,-3.7909,-3.7677,-3.7191,-3.6384,-3.5621,-3.5134,-3.4761,-3.5257,-3.5633,-3.5101,-3.5272,-3.6513,-3.6399,-3.6324,-3.6355,-3.6837,-3.7285,-3.7586,-3.7582,-3.6996,-3.6152,-3.5644,-3.4826,-3.3991,-3.3739,-3.3766,-3.3793,-3.3807,-3.3807,-3.3807,-3.3388,-3.3169,-3.3068,-3.3469,-3.366,-3.325,-3.4223,-3.4202,-3.3619,-3.3591,-3.3937,-3.4279,-3.4526,-3.493,-3.5325,-3.5481,-3.5488,-3.5489,-3.5027,-3.4604,-3.3664,-3.3225,-3.2425,-3.1598,-3.1146,-3.1137,-3.089,-3.0756,-3.0813,-3.084,-3.0771,-3.0755,-3.073,-3.0692,-3.0655,-3.063,-3.0618,-3.0548,-3.0438,-3.0306,-3.0184,-3.0068,-3.0087,-3.0124,-3.019,-3.0265,-3.0337,-3.043,-3.043,-3.04,-3.0367,-3.0297,-3.0129,-3.0004,-2.988,-2.9746,-2.9541,-2.9314,-2.9053,-2.8814,-2.857,-2.8349,-2.8205,-2.8191,-2.8182,-2.8053,-2.785,-2.7642,-2.7415,-2.7021,-2.6657,-2.642,-2.6214,-2.5906,-3.8464,-3.8576,-3.856,-3.8628,-3.8722,-3.875,-3.8832,-3.8827,-3.8453,-3.822,-3.8013,-3.7251,-3.6891,-3.6645,-3.6044,-3.5255,-3.459,-3.437,-3.469,-3.5101,-3.4867,-3.535,-3.6023,-3.5993,-3.5735,-3.584,-3.6391,-3.6256,-3.6651,-3.6808,-3.6386,-3.5675,-3.4972,-3.4407,-3.3826,-3.3675,-3.3712,-3.3766,-3.3762,-3.3775,-3.3807,-3.377,-3.3558,-3.3009,-3.3569,-3.3331,-3.276,-3.3618,-3.3833,-3.3425,-3.3337,-3.3657,-3.4093,-3.3956,-3.4192,-3.4951,-3.5311,-3.5467,-3.5439,-3.5462,-3.4712,-3.33,-3.305,-3.2085,-3.1074,-3.0707,-3.0664,-3.0684,-3.0718,-3.0774,-3.0855,-3.082,-3.0798,-3.0791,-3.0757,-3.072,-3.0675,-3.0642,-3.0618,-3.0513,-3.0409,-3.0321,-3.0207,-3.0279,-3.0352,-3.0344,-3.0425,-3.0436,-3.0515,-3.055,-3.0525,-3.051,-3.0409,-3.0209,-3.0082,-3.0019,-2.988,-2.9736,-2.9504,-2.9268,-2.9034,-2.879,-2.854,-2.8268,-2.8209,-2.8168,-2.8081,-2.8011,-2.7821,-2.7552,-2.7133,-2.6808,-2.6573,-2.6115,-2.5658,-3.8391,-3.842,-3.842,-3.852,-3.8616,-3.8616,-3.8711,-3.8816,-3.881,-3.8529,-3.8061,-3.7317,-3.6696,-3.6148,-3.5843,-3.5532,-3.5309,-3.5028,-3.5163,-3.5575,-3.5105,-3.5212,-3.5879,-3.5631,-3.5217,-3.5285,-3.6028,-3.6262,-3.6188,-3.6093,-3.5657,-3.5005,-3.4794,-3.4291,-3.3582,-3.3534,-3.3643,-3.3698,-3.3698,-3.3739,-3.3775,-3.3807,-3.3715,-3.3692,-3.3705,-3.3713,-3.3405,-3.3895,-3.3764,-3.3111,-3.3078,-3.2868,-3.2562,-3.3006,-3.3383,-3.4049,-3.4733,-3.5424,-3.5316,-3.5391,-3.4757,-3.3327,-3.2923,-3.2011,-3.0998,-3.0511,-3.0606,-3.0698,-3.0694,-3.0737,-3.0824,-3.082,-3.08,-3.0798,-3.0789,-3.0757,-3.0709,-3.0653,-3.0633,-3.0358,-3.0193,-3.0311,-3.0332,-3.0458,-3.0574,-3.0559,-3.0564,-3.0569,-3.0593,-3.0598,-3.0617,-3.0559,-3.0515,-3.0333,-3.0184,-3.0103,-2.9996,-2.9891,-2.9557,-2.9345,-2.9119,-2.8833,-2.8541,-2.8308,-2.8268,-2.8209,-2.8154,-2.8067,-2.7965,-2.7701,-2.7338,-2.7021,-2.6725,-2.6168,-2.5575,-3.878,-3.8408,-3.8391,-3.842,-3.8476,-3.8476,-3.856,-3.8683,-3.8738,-3.8657,-3.8274,-3.7385,-3.6398,-3.5593,-3.5625,-3.5596,-3.5258,-3.5054,-3.5299,-3.5757,-3.541,-3.5483,-3.5812,-3.5558,-3.5042,-3.5065,-3.519,-3.5349,-3.5499,-3.6035,-3.5991,-3.5001,-3.4677,-3.4126,-3.3331,-3.3301,-3.3357,-3.3397,-3.3455,-3.3569,-3.3694,-3.3762,-3.3788,-3.3807,-3.3788,-3.3784,-3.3823,-3.3908,-3.3843,-3.3344,-3.3179,-3.2777,-3.2616,-3.2885,-3.3214,-3.3278,-3.4396,-3.5058,-3.5218,-3.5369,-3.448,-3.341,-3.2776,-3.2147,-3.0895,-3.0458,-3.0516,-3.0567,-3.063,-3.0694,-3.078,-3.0787,-3.0794,-3.0799,-3.08,-3.0776,-3.0737,-3.0674,-3.0561,-3.0254,-3.003,-3.0194,-3.0331,-3.0358,-3.0468,-3.0582,-3.0577,-3.0597,-3.0592,-3.0607,-3.0602,-3.0593,-3.0545,-3.0455,-3.0325,-3.0203,-3.008,-2.987,-2.9271,-2.9098,-2.9074,-2.8839,-2.8579,-2.846,-2.8474,-2.8406,-2.8264,-2.8154,-2.8067,-2.7836,-2.7567,-2.7276,-2.6956,-2.6402,-2.5759,-3.924,-3.8422,-3.8228,-3.8137,-3.8104,-3.7931,-3.8016,-3.8256,-3.8295,-3.846,-3.8357,-3.742,-3.61,-3.5175,-3.5339,-3.5321,-3.4939,-3.4899,-3.5095,-3.5339,-3.5571,-3.573,-3.5753,-3.5435,-3.5218,-3.5327,-3.5023,-3.504,-3.5456,-3.5881,-3.5896,-3.4971,-3.4662,-3.3908,-3.3166,-3.3078,-3.3216,-3.3034,-3.2841,-3.3038,-3.3371,-3.3044,-3.3086,-3.3218,-3.3387,-3.3401,-3.3419,-3.3752,-3.3842,-3.369,-3.3372,-3.2938,-3.2508,-3.2961,-3.2946,-3.3055,-3.3832,-3.4565,-3.4754,-3.48,-3.4374,-3.3468,-3.2545,-3.191,-3.0731,-3.0404,-3.0417,-3.0506,-3.0579,-3.0633,-3.0684,-3.0747,-3.0782,-3.079,-3.0795,-3.0799,-3.0781,-3.0727,-3.0679,-3.0523,-3.0288,-3.0114,-3.0194,-3.0195,-3.0319,-3.0552,-3.0617,-3.0608,-3.0619,-3.0606,-3.0621,-3.0616,-3.0588,-3.052,-3.0471,-3.0325,-3.0183,-2.9906,-2.9304,-2.9032,-2.9108,-2.8997,-2.8758,-2.8691,-2.8688,-2.8563,-2.844,-2.8313,-2.8182,-2.7982,-2.7763,-2.7507,-2.7148,-2.659,-2.5761,-3.9668,-3.844,-3.7745,-3.7448,-3.7337,-3.6708,-3.6837,-3.736,-3.7525,-3.7997,-3.8318,-3.731,-3.6047,-3.5078,-3.4946,-3.5011,-3.4899,-3.4899,-3.4954,-3.5102,-3.5339,-3.5543,-3.5484,-3.5305,-3.5105,-3.5167,-3.5059,-3.5186,-3.5403,-3.5663,-3.5171,-3.4243,-3.4358,-3.3547,-3.2932,-3.2808,-3.2876,-3.2603,-3.2222,-3.2353,-3.2433,-3.2061,-3.1524,-3.2155,-3.2317,-3.2323,-3.2373,-3.3259,-3.3753,-3.3743,-3.3623,-3.3002,-3.244,-3.2982,-3.2951,-3.2679,-3.3334,-3.381,-3.3727,-3.4251,-3.4217,-3.3189,-3.2148,-3.1379,-3.0464,-3.0398,-3.0428,-3.0496,-3.0539,-3.063,-3.0677,-3.0741,-3.0773,-3.0783,-3.0789,-3.0793,-3.0799,-3.0781,-3.0735,-3.0705,-3.0477,-3.0129,-2.9985,-2.9961,-3.0283,-3.0522,-3.0637,-3.0649,-3.061,-3.0617,-3.0608,-3.0619,-3.0616,-3.0598,-3.0593,-3.0485,-3.0339,-3.0062,-2.9591,-2.9401,-2.9362,-2.9159,-2.8724,-2.8905,-2.8902,-2.8767,-2.8596,-2.8466,-2.8313,-2.815,-2.7922,-2.7612,-2.7249,-2.675,-2.568,-3.953,-3.8935,-3.7419,-3.6739,-3.6657,-3.6413,-3.6232,-3.6274,-3.7014,-3.7573,-3.7888,-3.7383,-3.6492,-3.5546,-3.521,-3.5054,-3.4829,-3.4763,-3.4811,-3.4906,-3.5078,-3.5188,-3.5113,-3.5121,-3.502,-3.5104,-3.5215,-3.5437,-3.5679,-3.5624,-3.5249,-3.4708,-3.4187,-3.3086,-3.2491,-3.2333,-3.2318,-3.2249,-3.1915,-3.2029,-3.1771,-3.1671,-3.1344,-3.1766,-3.1867,-3.217,-3.261,-3.3169,-3.3415,-3.3536,-3.3662,-3.3046,-3.2346,-3.2928,-3.2801,-3.2281,-3.3081,-3.2899,-3.2683,-3.3317,-3.3365,-3.2084,-3.1143,-3.0592,-3.0247,-3.0311,-3.041,-3.046,-3.052,-3.0583,-3.0646,-3.0706,-3.0757,-3.0774,-3.0783,-3.0787,-3.0793,-3.0798,-3.0625,-3.0526,-3.0167,-2.9804,-2.9723,-2.9681,-3.0096,-3.0498,-3.06,-3.0677,-3.0653,-3.063,-3.063,-3.0634,-3.0633,-3.0615,-3.0606,-3.0559,-3.0482,-3.019,-2.9858,-2.9711,-2.9512,-2.8877,-2.8605,-2.8874,-2.9126,-2.9016,-2.8832,-2.8596,-2.8409,-2.8286,-2.7979,-2.7627,-2.7243,-2.6885,-2.5932,-3.8982,-3.8602,-3.6843,-3.6089,-3.5988,-3.5591,-3.5428,-3.5526,-3.6046,-3.6712,-3.714,-3.7281,-3.6873,-3.6016,-3.556,-3.539,-3.5013,-3.4856,-3.4813,-3.4851,-3.4899,-3.4899,-3.4899,-3.4913,-3.4948,-3.5041,-3.5128,-3.5322,-3.5548,-3.5487,-3.5113,-3.4596,-3.4034,-3.31,-3.2154,-3.174,-3.171,-3.1712,-3.1492,-3.1655,-3.1474,-3.0981,-3.1062,-3.128,-3.1432,-3.1623,-3.2181,-3.2704,-3.3181,-3.3335,-3.3389,-3.3214,-3.2842,-3.2588,-3.2627,-3.261,-3.2409,-3.2096,-3.2042,-3.2047,-3.2231,-3.1305,-3.0893,-3.0434,-3.0135,-3.0195,-3.0273,-3.0324,-3.0414,-3.0539,-3.0579,-3.0655,-3.0709,-3.0751,-3.0789,-3.0796,-3.0803,-3.0771,-3.0521,-3.0291,-3.0059,-3.0078,-3.0096,-3.0134,-3.0273,-3.0618,-3.0674,-3.0728,-3.0711,-3.0684,-3.0658,-3.0662,-3.0655,-3.0638,-3.0617,-3.0572,-3.052,-3.0375,-3.0068,-2.9865,-2.955,-2.8992,-2.8818,-2.9203,-2.9373,-2.9272,-2.9115,-2.8913,-2.8658,-2.8406,-2.8105,-2.7806,-2.7562,-2.7187,-2.6534,-3.8022,-3.7282,-3.5989,-3.5431,-3.5281,-3.406,-3.4208,-3.4961,-3.4731,-3.5261,-3.6438,-3.6967,-3.6875,-3.6186,-3.557,-3.533,-3.5152,-3.4849,-3.4683,-3.4715,-3.4828,-3.4875,-3.4899,-3.4899,-3.4923,-3.4947,-3.5018,-3.5111,-3.5182,-3.5291,-3.4936,-3.4538,-3.4092,-3.3405,-3.2297,-3.1568,-3.1305,-3.123,-3.0723,-3.1067,-3.1129,-3.0352,-3.0335,-3.0716,-3.0974,-3.1164,-3.1617,-3.2321,-3.2793,-3.3034,-3.3229,-3.3077,-3.2739,-3.2595,-3.2612,-3.2711,-3.1916,-3.1519,-3.1385,-3.1157,-3.0894,-3.079,-3.0438,-3.0366,-2.9983,-2.9973,-3.0118,-3.0168,-3.0334,-3.0471,-3.0548,-3.061,-3.0649,-3.0694,-3.0737,-3.0774,-3.0764,-3.0796,-3.0549,-3.0415,-3.0609,-3.0745,-3.0732,-3.0719,-3.0682,-3.0771,-3.0783,-3.0777,-3.0773,-3.0758,-3.0717,-3.0706,-3.0706,-3.0656,-3.0637,-3.0618,-3.0552,-3.0437,-3.0294,-3.0094,-2.9952,-2.9673,-2.9603,-2.9691,-2.9608,-2.9523,-2.9405,-2.9254,-2.8948,-2.8639,-2.8327,-2.8053,-2.7818,-2.7516,-2.6926,-3.7293,-3.6671,-3.5774,-3.513,-3.4729,-3.4223,-3.3818,-3.3507,-3.3692,-3.4683,-3.6072,-3.6594,-3.6238,-3.5701,-3.5419,-3.5112,-3.4782,-3.466,-3.4448,-3.457,-3.4715,-3.4739,-3.4787,-3.4835,-3.4899,-3.4923,-3.497,-3.497,-3.4977,-3.5088,-3.5091,-3.476,-3.3945,-3.3132,-3.2324,-3.1616,-3.123,-3.1215,-3.098,-3.0887,-3.075,-3.0233,-3.0098,-3.0587,-3.066,-3.0885,-3.1265,-3.2039,-3.2368,-3.2636,-3.2844,-3.2991,-3.2806,-3.2702,-3.2725,-3.2783,-3.2206,-3.1108,-3.0613,-3.0109,-2.9726,-2.9814,-2.9953,-2.9908,-2.9579,-2.9848,-2.9969,-3.0056,-3.0221,-3.0346,-3.0452,-3.0463,-3.0511,-3.057,-3.063,-3.07,-3.0723,-3.0773,-3.071,-3.0692,-3.0786,-3.0786,-3.0773,-3.0782,-3.0797,-3.0801,-3.08,-3.0797,-3.0775,-3.0785,-3.0753,-3.0752,-3.0739,-3.0697,-3.0652,-3.0658,-3.063,-3.0539,-3.0451,-3.0319,-3.0209,-3.0114,-2.9981,-2.9864,-2.9813,-2.9761,-2.9589,-2.9405,-2.9158,-2.8855,-2.8545,-2.8313,-2.8091,-2.7855,-2.7505,-3.635,-3.5988,-3.5337,-3.4818,-3.4389,-3.415,-3.3369,-3.2676,-3.3368,-3.4516,-3.547,-3.583,-3.5916,-3.557,-3.5276,-3.5091,-3.4608,-3.4381,-3.4325,-3.4448,-3.457,-3.4643,-3.4715,-3.4787,-3.4851,-3.4875,-3.4899,-3.4923,-3.4923,-3.497,-3.4848,-3.4424,-3.3684,-3.2925,-3.2167,-3.1587,-3.119,-3.1193,-3.1075,-3.0992,-3.0798,-3.0542,-3.0596,-3.0704,-3.0793,-3.0948,-3.1348,-3.1673,-3.1913,-3.2179,-3.247,-3.2797,-3.2724,-3.2646,-3.269,-3.2778,-3.2173,-3.0874,-2.9868,-2.9415,-2.92,-2.923,-2.923,-2.9285,-2.9346,-2.957,-2.9775,-2.991,-3.0075,-3.0215,-3.0309,-3.0319,-3.0393,-3.047,-3.0536,-3.0598,-3.063,-3.0673,-3.0718,-3.0723,-3.0723,-3.0709,-3.0739,-3.0781,-3.0798,-3.0789,-3.0797,-3.08,-3.0801,-3.08,-3.0796,-3.0774,-3.0769,-3.0725,-3.0706,-3.0684,-3.0662,-3.0645,-3.0558,-3.0481,-3.0367,-3.0247,-3.0129,-3.0034,-2.9981,-2.9894,-2.9735,-2.9523,-2.9285,-2.9049,-2.8785,-2.8563,-2.838,-2.8121,-2.7865,-3.5204,-3.5247,-3.4661,-3.437,-3.4273,-3.3773,-3.3145,-3.2542,-3.3796,-3.4278,-3.4304,-3.496,-3.5309,-3.5792,-3.5354,-3.5049,-3.4913,-3.4437,-3.434,-3.4325,-3.4448,-3.4546,-3.4618,-3.4667,-3.4739,-3.4811,-3.4811,-3.4715,-3.4875,-3.4923,-3.4662,-3.3989,-3.3362,-3.2596,-3.1926,-3.1402,-3.1148,-3.1151,-3.1134,-3.1086,-3.0973,-3.1041,-3.1026,-3.1065,-3.1138,-3.1174,-3.1368,-3.1464,-3.1653,-3.1839,-3.2003,-3.2179,-3.2207,-3.2083,-3.2486,-3.2397,-3.1656,-3.056,-2.9357,-2.8985,-2.8972,-2.906,-2.9173,-2.9133,-2.9171,-2.9345,-2.9532,-2.9671,-2.9817,-3.0004,-3.0154,-3.0228,-3.0327,-3.0381,-3.0438,-3.0477,-3.049,-3.0536,-3.0595,-3.0605,-3.0582,-3.057,-3.0614,-3.0667,-3.0713,-3.0753,-3.0749,-3.0799,-3.0787,-3.0793,-3.0798,-3.0801,-3.078,-3.0772,-3.075,-3.0713,-3.0689,-3.0665,-3.0677,-3.0595,-3.0492,-3.0386,-3.0296,-3.0209,-3.0136,-3.0015,-2.9828,-2.9645,-2.9425,-2.9201,-2.9027,-2.8755,-2.8556,-2.8375,-2.8166,-3.4476,-3.3883,-3.4095,-3.4018,-3.3746,-3.359,-3.3348,-3.3185,-3.3111,-3.2991,-3.2994,-3.3558,-3.4053,-3.4091,-3.4278,-3.4415,-3.4369,-3.4239,-3.4199,-3.4226,-3.43,-3.4374,-3.4448,-3.4521,-3.4618,-3.4594,-3.4521,-3.4521,-3.4787,-3.4859,-3.4097,-3.3178,-3.2918,-3.2179,-3.1496,-3.1029,-3.1043,-3.1052,-3.1055,-3.1112,-3.1151,-3.1171,-3.1171,-3.119,-3.123,-3.1232,-3.1269,-3.1269,-3.1406,-3.1485,-3.1694,-3.1878,-3.2003,-3.2087,-3.2248,-3.1339,-3.1007,-3.0573,-2.9278,-2.9345,-2.9412,-2.9095,-2.9314,-2.9362,-2.9276,-2.9229,-2.938,-2.9513,-2.9729,-2.9956,-3.0018,-3.0063,-3.0155,-3.0228,-3.0309,-3.0359,-3.0378,-3.0414,-3.0482,-3.0495,-3.0467,-3.0498,-3.052,-3.056,-3.062,-3.0667,-3.0714,-3.0754,-3.078,-3.0791,-3.0801,-3.0793,-3.0799,-3.0781,-3.0772,-3.0749,-3.0717,-3.0695,-3.0695,-3.0711,-3.064,-3.0544,-3.0472,-3.0373,-3.0273,-3.0107,-2.9921,-2.9667,-2.9362,-2.9456,-2.9316,-2.9023,-2.8737,-2.8551,-2.8388,-3.3982,-3.3566,-3.3867,-3.3912,-3.3743,-3.3733,-3.3652,-3.3301,-3.2446,-3.2139,-3.2401,-3.2505,-3.2783,-3.3314,-3.3642,-3.3889,-3.4133,-3.4133,-3.4101,-3.4126,-3.4192,-3.425,-3.4325,-3.4374,-3.4497,-3.4448,-3.4399,-3.4399,-3.4521,-3.4094,-3.3388,-3.212,-3.2216,-3.1667,-3.0979,-3.0725,-3.0807,-3.0855,-3.0935,-3.1012,-3.1072,-3.1112,-3.1112,-3.1131,-3.1151,-3.119,-3.119,-3.119,-3.1213,-3.1235,-3.1468,-3.1524,-3.1673,-3.1826,-3.1512,-3.0772,-3.0675,-2.999,-2.8936,-2.9052,-2.9089,-2.9077,-2.9259,-2.918,-2.9319,-2.935,-2.9388,-2.9454,-2.9752,-2.9964,-2.9896,-2.9864,-2.998,-3.0064,-3.0161,-3.0241,-3.0291,-3.0327,-3.0361,-3.0403,-3.0411,-3.0428,-3.0443,-3.0461,-3.0488,-3.0536,-3.0605,-3.0655,-3.0723,-3.0781,-3.0792,-3.0783,-3.0793,-3.0779,-3.0781,-3.0771,-3.075,-3.072,-3.07,-3.0704,-3.071,-3.0665,-3.0567,-3.0467,-3.0364,-3.0177,-2.9971,-2.9559,-2.9276,-2.9384,-2.9383,-2.9067,-2.8813,-2.8713,-2.8538,-3.3646,-3.3734,-3.3811,-3.3885,-3.4059,-3.4051,-3.3869,-3.338,-3.2193,-3.1848,-3.2139,-3.1793,-3.2185,-3.2906,-3.3135,-3.3569,-3.3841,-3.3984,-3.3984,-3.4075,-3.4101,-3.4176,-3.4226,-3.43,-3.4374,-3.4472,-3.4399,-3.4134,-3.3889,-3.3697,-3.3036,-3.1125,-3.1544,-3.1243,-3.0379,-3.0359,-3.0426,-3.051,-3.0712,-3.0871,-3.0932,-3.0972,-3.1012,-3.1015,-3.1092,-3.1151,-3.1151,-3.1171,-3.1188,-3.119,-3.1173,-3.1213,-3.1351,-3.1529,-3.1029,-3.055,-3.0442,-2.9846,-2.9064,-2.8932,-2.8936,-2.8886,-2.8846,-2.8913,-2.9101,-2.9271,-2.9269,-2.9248,-2.9487,-2.9624,-2.9606,-2.9654,-2.9751,-2.9905,-3.0019,-3.0121,-3.0202,-3.0235,-3.028,-3.0311,-3.0334,-3.0344,-3.0321,-3.0342,-3.0388,-3.0423,-3.0448,-3.0528,-3.0607,-3.0699,-3.0753,-3.0765,-3.0801,-3.0791,-3.0798,-3.0781,-3.0771,-3.0752,-3.0685,-3.0706,-3.0694,-3.0694,-3.0669,-3.0563,-3.0467,-3.0235,-2.9976,-2.9526,-2.9201,-2.926,-2.9214,-2.9014,-2.8882,-2.8816,-2.87,-3.3169,-3.2936,-3.3072,-3.3411,-3.3922,-3.3951,-3.3899,-3.369,-3.2526,-3.1884,-3.1729,-3.1648,-3.1879,-3.2477,-3.2648,-3.3139,-3.3896,-3.3858,-3.3781,-3.4016,-3.4133,-3.4101,-3.4151,-3.4176,-3.4226,-3.4176,-3.405,-3.3748,-3.3673,-3.3648,-3.3322,-3.1841,-3.1789,-3.1163,-2.9877,-2.9973,-3.0249,-3.0274,-3.0485,-3.0729,-3.0851,-3.0892,-3.0932,-3.0932,-3.0972,-3.0992,-3.0992,-3.0992,-3.1012,-3.1015,-3.1035,-3.1112,-3.121,-3.1507,-3.1194,-3.056,-3.0238,-2.9837,-2.942,-2.9006,-2.8913,-2.9056,-2.908,-2.8933,-2.894,-2.9052,-2.9095,-2.9087,-2.9161,-2.9318,-2.9355,-2.9443,-2.9551,-2.9706,-2.9886,-2.9992,-3.0101,-3.015,-3.019,-3.0219,-3.0266,-3.026,-3.0233,-3.0241,-3.0286,-3.0315,-3.0331,-3.0383,-3.0472,-3.0568,-3.0659,-3.0687,-3.0785,-3.08,-3.0792,-3.0739,-3.0703,-3.0619,-3.0548,-3.0599,-3.0616,-3.0532,-3.0411,-3.0576,-3.0546,-3.0274,-2.9867,-2.9341,-2.9123,-2.9027,-2.8726,-2.8412,-2.8874,-2.9,-2.8842,-3.2981,-3.2577,-3.2919,-3.3334,-3.3659,-3.3494,-3.34,-3.3225,-3.2209,-3.1559,-3.1312,-3.1218,-3.1437,-3.2042,-3.2253,-3.3001,-3.3879,-3.3837,-3.419,-3.4426,-3.4156,-3.4117,-3.4101,-3.4075,-3.3866,-3.3764,-3.3135,-3.287,-3.3224,-3.2718,-3.2087,-3.151,-3.1398,-3.1147,-2.9918,-3.0247,-3.0326,-3.0172,-3.0363,-3.0568,-3.0733,-3.0773,-3.081,-3.081,-3.0851,-3.0892,-3.0912,-3.0912,-3.0932,-3.0952,-3.0972,-3.0975,-3.1075,-3.1235,-3.0944,-3.0478,-3.0179,-3.0055,-2.9688,-2.9297,-2.898,-2.913,-2.8831,-2.8497,-2.8504,-2.8621,-2.8858,-2.8925,-2.9485,-2.9689,-2.9225,-2.9155,-2.9285,-2.9446,-2.9616,-2.9748,-2.9894,-2.9984,-3.0064,-3.0164,-3.0206,-3.0245,-3.0218,-3.0225,-3.026,-3.0266,-3.026,-3.0297,-3.037,-3.0428,-3.0517,-3.0601,-3.0667,-3.0758,-3.08,-3.0693,-3.0563,-3.0488,-3.0389,-2.9868,-2.9624,-2.9966,-3.015,-3.0212,-3.0238,-3.0191,-2.9751,-2.9091,-2.8587,-2.8375,-2.8038,-2.7685,-2.8331,-2.8894,-2.8673,-3.2792,-3.2511,-3.3045,-3.3382,-3.3465,-3.3018,-3.2803,-3.2654,-3.1711,-3.1154,-3.1031,-3.072,-3.0925,-3.15,-3.1886,-3.2951,-3.35,-3.3251,-3.3925,-3.4374,-3.4117,-3.4048,-3.405,-3.4075,-3.3866,-3.3491,-3.2949,-3.2635,-3.2618,-3.2273,-3.1896,-3.0869,-3.0838,-3.1118,-3.0881,-3.0939,-3.0811,-3.0293,-3.0241,-3.0405,-3.051,-3.0572,-3.0651,-3.0712,-3.0707,-3.0767,-3.0801,-3.0734,-3.0734,-3.0892,-3.0892,-3.0932,-3.0932,-3.1018,-3.0769,-3.0395,-3.0192,-3.0034,-2.9746,-2.9212,-2.9082,-2.8923,-2.8417,-2.8184,-2.8253,-2.8327,-2.8559,-2.8898,-2.9457,-2.9588,-2.9101,-2.8927,-2.9056,-2.9201,-2.9378,-2.9523,-2.967,-2.9792,-2.9902,-3.0015,-3.0072,-3.0121,-3.0161,-3.0169,-3.0197,-3.0197,-3.0213,-3.0254,-3.0292,-3.0321,-3.0392,-3.0472,-3.0521,-3.063,-3.0747,-3.0695,-3.0566,-3.0344,-3.0116,-2.9236,-2.8697,-2.9074,-2.9428,-2.9672,-2.9703,-2.9705,-2.9303,-2.8652,-2.8211,-2.7734,-2.742,-2.7198,-2.7675,-2.8145,-2.8181,-3.2061,-3.2469,-3.3038,-3.3312,-3.3333,-3.322,-3.2931,-3.2416,-3.1877,-3.1332,-3.0824,-3.0502,-3.0598,-3.1204,-3.0776,-3.153,-3.2834,-3.2614,-3.2874,-3.3319,-3.3587,-3.3787,-3.3933,-3.3958,-3.3984,-3.3713,-3.3413,-3.3405,-3.2714,-3.2744,-3.2348,-3.1094,-3.1221,-3.0797,-2.9483,-2.9821,-3.0385,-2.9984,-3.0044,-3.022,-3.0092,-3.022,-3.0489,-3.0352,-2.9987,-3.019,-3.0257,-2.9975,-3.0218,-3.0533,-3.081,-3.0851,-3.0871,-3.0855,-3.0727,-3.0479,-3.0285,-3.0253,-2.9929,-2.9273,-2.9092,-2.9592,-2.9084,-2.8332,-2.8298,-2.8126,-2.8304,-2.843,-2.8842,-2.9013,-2.8767,-2.8798,-2.8892,-2.9038,-2.9204,-2.9319,-2.9447,-2.9514,-2.9607,-2.9696,-2.9784,-2.9861,-2.9937,-2.9992,-3.0101,-3.0135,-3.0171,-3.02,-3.0233,-3.0241,-3.0273,-3.0327,-3.0402,-3.0535,-3.0675,-3.0709,-3.0576,-3.0305,-2.9735,-2.869,-2.8143,-2.8286,-2.8577,-2.8813,-2.9073,-2.9174,-2.8683,-2.8067,-2.7582,-2.7097,-2.6834,-2.6749,-2.7154,-2.7421,-2.7474]},{"header":{"parameterUnit":"m.s-1","parameterCategory":1,"la1":31.0,"la2":29.5877,"lo1":-88.7671,"lo2":-86.6584,"dy":0.0162,"dx":0.0185,"nx":115,"ny":88,"refTime":"2023-05-09T12:00:00:Z","depth":0,"parameterNumber":3,"parameterNumberName":"V-component_of_WINDS"},"data":[0.0,0.0,0.0,0.0,0.0,0.0,0.0,0.0,0.0,0.0,0.0,0.0,0.0,0.0,0.0,0.0,0.0,0.0,0.0,0.0,0.0,0.0,0.0,0.0,0.0,0.0,0.0,0.0,0.0,0.0,0.0,0.0,0.0,0.0,0.0,0.0,0.0,0.0,0.0,0.0,0.0,0.0,0.0,0.0,0.0,0.0,0.0,0.0,0.0,0.0,0.0,0.0,0.0,0.0,0.0,0.0,0.0,0.0,0.0,0.0,0.0,0.0,0.0,0.0,0.0,0.0,0.0,0.0,0.0,0.0,0.0,0.0,0.0,0.0,0.0,0.0,0.0,0.0,0.0,0.0,0.0,0.0,0.0,0.0,0.0,0.0,0.0,0.0,0.0,0.0,0.0,0.0,0.0,0.0,0.0,0.0,0.0,0.0,0.0,0.0,0.0,0.0,0.0,0.0,0.0,0.0,0.0,0.0,0.0,0.0,0.0,0.0,0.0,0.0,0.0,0.0,0.0,0.0,0.0,0.0,0.0,0.0,0.0,0.0,0.0,0.0,0.0,0.0,0.0,0.0,0.0,0.0,0.0,0.0,0.0,0.0,0.0,0.0,0.0,0.0,0.0,0.0,0.0,0.0,0.0,0.0,0.0,0.0,0.0,0.0,0.0,0.0,0.0,0.0,0.0,0.0,0.0,0.0,0.0,0.0,0.0,0.0,0.0,0.0,0.0,0.0,0.0,0.0,0.0,0.0,0.0,0.0,0.0,0.0,0.0,0.0,0.0,0.0,0.0,0.0,0.0,0.0,0.0,0.0,0.0,0.0,0.0,0.0,0.0,0.0,0.0,0.0,0.0,0.0,0.0,0.0,0.0,0.0,0.0,0.0,0.0,0.0,0.0,0.0,0.0,0.0,0.0,0.0,0.0,0.0,0.0,0.0,0.0,0.0,0.0,0.0,0.0,0.0,0.0,0.0,0.0,0.0,0.0,0.0,0.0,0.0,0.0,0.0,0.0,0.0,0.0,0.0,0.0,0.0,0.0,0.0,0.0,0.0,0.0,0.0,0.0,0.0,0.0,0.0,0.0,0.0,0.0,0.0,0.0,0.0,0.0,0.0,0.0,0.0,0.0,0.0,0.0,0.0,0.0,0.0,0.0,0.0,0.0,0.0,0.0,0.0,0.0,0.0,0.0,0.0,0.0,0.0,0.0,0.0,0.0,0.0,0.0,0.0,0.0,0.0,0.0,0.0,0.0,0.0,0.0,0.0,0.0,0.0,0.0,0.0,0.0,0.0,0.0,0.0,0.0,0.0,0.0,0.0,0.0,0.0,0.0,0.0,0.0,0.0,0.0,0.0,0.0,0.0,0.0,0.0,0.0,0.0,0.0,0.0,0.0,0.0,0.0,0.0,0.0,0.0,0.0,0.0,0.0,0.0,0.0,0.0,0.0,0.0,0.0,0.0,0.0,0.0,0.0,0.0,0.0,0.0,0.0,0.0,0.0,0.0,0.0,0.0,0.0,0.0,0.0,0.0,0.0,0.0,0.0,0.0,0.0,0.0,0.0,0.0,0.0,0.0,0.0,0.0,0.0,0.0,0.0,0.0,0.0,0.0,0.0,0.0,0.0,0.0,0.0,0.0,0.0,0.0,0.0,0.0,0.0,0.0,0.0,0.0,0.0,0.0,0.0,0.0,0.0,0.0,0.0,0.0,0.0,0.0,0.0,0.0,0.0,0.0,0.0,0.0,0.0,0.0,0.0,0.0,0.0,0.0,0.0,0.0,0.0,0.0,0.0,0.0,0.0,0.0,0.0,0.0,0.0,0.0,0.0,0.0,0.0,0.0,0.0,0.0,0.0,0.0,0.0,0.0,0.0,0.0,0.0,0.0,0.0,0.0,0.0,0.0,0.0,0.0,0.0,0.0,0.0,0.0,0.0,0.0,0.0,0.0,0.0,0.0,0.0,0.0,0.0,0.0,0.0,0.0,0.0,0.0,0.0,0.0,0.0,0.0,0.0,0.0,0.0,0.0,0.0,0.0,0.0,0.0,0.0,0.0,0.0,0.0,0.0,0.0,0.0,0.0,0.0,0.0,0.0,0.0,0.0,0.0,0.0,0.0,0.0,0.0,0.0,0.0,0.0,0.0,0.0,0.0,0.0,0.0,0.0,0.0,0.0,0.0,0.0,0.0,0.0,0.0,0.0,0.0,0.0,0.0,0.0,0.0,0.0,0.0,0.0,0.0,0.0,0.0,0.0,0.0,0.0,0.0,0.0,0.0,0.0,0.0,0.0,0.0,0.0,0.0,0.0,0.0,0.0,0.0,0.0,0.0,0.0,0.0,0.0,0.0,0.0,0.0,0.0,0.0,0.0,0.0,0.0,0.0,0.0,0.0,0.0,0.0,0.0,0.0,0.0,0.0,0.0,0.0,0.0,0.0,0.0,0.0,0.0,0.0,0.0,0.0,0.0,0.0,0.0,0.0,0.0,0.0,0.0,0.0,0.0,0.0,0.0,0.0,0.0,0.0,0.0,0.0,0.0,0.0,0.0,0.0,0.0,0.0,0.0,0.0,0.0,0.0,0.0,0.0,0.0,0.0,0.0,0.0,0.0,0.0,0.0,0.0,0.0,0.0,0.0,0.0,0.0,0.0,0.0,0.0,0.0,0.0,0.0,0.0,0.0,0.0,0.0,0.0,0.0,0.0,0.0,0.0,0.0,0.0,0.0,0.0,0.0,0.0,0.0,0.0,0.0,0.0,0.0,0.0,0.0,0.0,0.0,0.0,0.0,0.0,0.0,0.0,0.0,0.0,0.0,0.0,0.0,0.0,0.0,0.0,0.0,0.0,0.0,0.0,0.0,0.0,0.0,0.0,0.0,0.0,0.0,0.0,0.0,0.0,0.0,0.0,0.0,0.0,0.0,0.0,0.0,0.0,0.0,0.0,0.0,0.0,0.0,0.0,0.0,0.0,0.0,0.0,0.0,0.0,0.0,0.0,0.0,0.0,0.0,0.0,0.0,0.0,0.0,0.0,0.0,0.0,0.0,0.0,0.0,0.0,0.0,0.0,0.0,0.0,0.0,0.0,0.0,0.0,0.0,0.0,0.0,0.0,0.0,0.0,0.0,0.0,0.0,0.0,0.0,0.0,0.0,0.0,0.0,0.0,0.0,0.0,0.0,0.0,0.0,0.0,0.0,0.0,0.0,0.0,0.0,0.0,0.0,0.0,0.0,0.0,0.0,0.0,0.0,0.0,0.0,0.0,0.0,0.0,0.0,0.0,0.0,0.0,0.0,0.0,0.0,0.0,0.0,0.0,0.0,0.0,0.0,0.0,0.0,0.0,0.0,0.0,0.0,0.0,0.0,0.0,0.0,0.0,0.0,0.0,0.0,0.0,0.0,0.0,0.0,0.0,0.0,0.0,0.0,0.0,0.0,0.0,0.0,0.0,0.0,0.0,0.0,0.0,0.0,0.0,0.0,0.0,0.0,0.0,0.0,0.0,0.0,0.0,0.0,0.0,0.0,0.0,0.0,0.0,0.0,0.0,0.0,0.0,0.0,0.0,0.0,0.0,0.0,0.0,0.0,0.0,0.0,0.0,0.0,0.0,0.0,0.0,0.0,0.0,0.0,0.0,0.0,0.0,0.0,0.0,0.0,0.0,0.0,0.0,0.0,0.0,0.0,0.0,0.0,0.0,0.0,0.0,0.0,0.0,0.0,0.0,0.0,0.0,0.0,0.0,0.0,0.0,0.0,0.0,0.0,0.0,0.0,0.0,0.0,0.0,0.0,0.0,0.0,0.0,0.0,0.0,0.0,0.0,0.0,0.0,0.0,0.0,0.0,0.0,0.0,0.0,0.0,0.0,0.0,0.0,0.0,0.0,0.0,0.0,0.0,0.0,0.0,0.0,0.0,0.0,0.0,0.0,0.0,0.0,0.0,0.0,0.0,0.0,0.0,0.0,0.0,0.0,0.0,0.0,0.0,0.0,0.0,0.0,0.0,0.0,0.0,0.0,0.0,0.0,0.0,0.0,0.0,0.0,0.0,0.0,0.0,0.0,0.0,0.0,0.0,0.0,0.0,0.0,0.0,0.0,0.0,0.0,0.0,0.0,0.0,0.0,0.0,0.0,0.0,0.0,0.0,0.0,0.0,0.0,0.0,0.0,0.0,0.0,0.0,0.0,0.0,0.0,0.0,0.0,0.0,0.0,0.0,0.0,0.0,0.0,0.0,0.0,0.0,0.0,0.0,0.0,0.0,0.0,0.3789,0.0,0.0,0.0,-0.1844,0.0,0.0,0.0,0.0,0.0,0.0,0.0,0.0,0.0,0.0,0.0,0.0,0.0,0.0,0.0,0.0,0.0,0.0,0.0,0.0,0.0,0.0,0.0,0.0,0.0,0.0,0.0,0.0,0.0,0.0,0.0,0.0,0.0,0.0,0.0,0.0,0.0,0.0,0.0,0.0,0.0,0.0,0.0,0.0,0.0,0.0,0.0,0.0,0.0,0.0,0.0,0.0,0.0,0.0,0.0,0.0,0.0,0.0,0.0,0.0,0.0,0.0,0.0,0.0,0.0,0.0,0.0,0.0,0.0,0.0,0.0,0.0,0.0,0.0,0.0,0.0,0.0,0.0,0.0,0.0,0.0,0.0,0.0,0.0,0.0,0.0,0.0,0.0,0.0,0.0,0.0,0.0,0.0,0.0,0.0,0.0,0.0,0.0,0.0,0.0,0.0,0.0,0.0,0.0,0.0,0.0,0.0,0.0,0.0,0.0,0.3851,0.2984,0.1039,-0.057,-0.1743,0.0,0.0,0.0,0.0,0.0,0.0,0.0,0.0,0.0,0.0,0.0,0.0,0.0,0.0,0.0,0.0,0.0,0.0,0.0,0.0,0.0,0.0,0.0,0.0,0.0,0.0,0.0,0.0,0.0,0.0,0.0,0.0,0.0,0.0,0.0,0.0,0.0,0.0,0.0,0.0,0.0,0.0,0.0,0.0,0.0,0.0,0.0,0.0,0.0,0.0,0.0,0.0,0.0,0.0,0.0,0.0,0.0,0.0,0.0,0.0,0.0,0.0,0.0,0.0,0.0,0.0,0.0,0.0,0.0,0.0,0.0,0.0,0.0,0.0,0.0,0.0,0.0,0.0,0.0,0.0,0.0,0.0,0.0,0.0,0.0,0.0,0.0,0.0,0.0,0.0,0.0,0.0,0.0,0.0,0.0,0.0,0.0,0.0,0.0,0.0,0.0,0.0,0.0,0.0,0.0,0.0,0.0,0.0,0.0,0.0,0.0,0.0,0.1127,-0.0682,-0.2231,0.0,0.0,0.0,0.0,0.0,0.0,0.0,0.0,0.0,0.0,0.0,0.0,0.0,0.0,0.0,0.0,0.0,0.0,0.0,0.0,0.0,0.0,0.0,0.0,0.0,0.0,0.0,0.0,0.0,0.0,0.0,0.0,0.0,0.0,0.0,0.0,0.0,0.0,0.0,0.0,0.0,0.0,0.0,0.0,0.0,0.0,0.0,0.0,0.0,0.0,0.0,0.0,0.0,0.0,0.0,0.0,0.0,0.0,0.0,0.0,0.0,0.0,0.0,0.0,0.0,0.0,0.0,0.0,0.0,0.0,0.0,0.0,0.0,0.0,0.0,0.0,0.0,0.0,0.0,0.0,0.0,0.0,0.0,0.0,0.0,0.0,0.0,0.0,0.0,0.0,0.0,0.0,0.0,0.0,0.0,0.0,0.0,0.0,0.0,0.0,0.0,0.0,0.0,0.0,0.0,0.0,0.0,0.0,0.0,0.0,0.4009,0.3207,0.1119,0.0,-0.4003,0.0,0.0,0.0,0.0,0.0,0.0,0.0,0.0,0.0,0.0,0.0,0.0,0.0,0.0,0.0,0.0,0.0,0.0,0.0,0.0,0.0,0.0,0.0,0.0,0.0,0.0,0.0,0.0,0.0,0.0,0.0,0.0,0.0,0.0,0.0,0.0,0.0,0.0,0.0,0.0,0.0,0.0,0.0,0.0,0.0,0.0,0.0,0.0,0.0,0.0,0.0,0.0,0.0,0.0,0.0,0.0,0.0,0.0,0.0,0.0,0.0,0.0,0.0,0.0,0.0,0.0,0.0,0.0,0.0,0.0,0.0,0.0,0.0,0.0,0.0,0.0,0.0,0.0,0.0,0.0,0.0,0.0,0.0,0.0,0.0,0.0,0.0,0.0,0.0,0.0,0.0,0.0,0.0,0.0,0.0,0.0,0.0,0.0,0.0,0.0,0.0,0.0,0.0,0.0,0.0,0.0,0.0,0.0,0.0,0.0,0.3915,0.3051,0.0145,-0.2366,0.0,0.0,0.0,0.0,0.0,0.0,0.0,0.0,0.0,0.0,0.0,0.0,0.0,0.0,0.0,0.0,0.0,0.0,0.0,0.0,0.0,0.0,0.0,0.0,0.0,0.0,0.0,0.0,0.0,0.0,0.0,0.0,0.0,0.0,0.0,0.0,0.0,0.0,0.0,0.0,0.0,0.0,0.0,0.0,0.0,0.0,0.0,0.0,0.0,0.0,0.0,0.0,0.0,0.0,0.0,0.0,0.0,0.0,0.0,0.0,0.0,0.0,0.0,0.0,0.0,0.0,0.0,0.0,0.0,0.0,0.0,0.0,0.0,0.0,0.0,0.0,0.0,0.0,0.0,0.0,0.0,0.0,0.0,0.0,0.0,0.0,0.0,0.0,0.0,0.0,0.0,0.0,0.0,0.0,0.0,0.0,0.0,0.0,0.0,0.0,0.0,0.0,0.0,0.0,0.0,0.0,0.0,0.0,0.0,0.0,0.478,0.3458,0.1908,-0.0959,-0.3152,-0.4483,0.0,0.0,0.0,0.0,0.0,0.0,0.0,0.0,0.0,0.0,0.0,0.0,0.0,0.0,0.0,0.0,0.0,0.0,0.0,0.0,0.0,0.0,0.0,0.0,0.0,0.0,0.0,0.0,0.0,0.0,0.0,0.0,0.0,0.0,0.0,0.0,0.0,0.0,0.0,0.0,0.0,0.0,0.0,0.0,0.0,0.0,0.0,0.0,0.0,0.0,0.0,0.0,0.0,0.0,0.0,0.0,0.0,0.0,0.0,0.0,0.0,0.0,0.0,0.0,0.0,0.0,0.0,0.0,0.0,0.0,0.0,0.0,0.0,0.0,0.0,0.0,0.0,0.0,0.0,0.0,0.0,0.0,0.0,0.0,0.0,0.0,0.0,0.0,0.0,0.0,0.0,0.0,0.0,0.0,0.0,0.0,0.0,0.0,0.0,0.0,0.0,0.0,0.0,0.0,0.0,0.0,0.0,0.0,0.5748,0.4477,0.2441,-0.0322,-0.2046,-0.346,0.0,0.0,0.0,0.0,0.0,0.0,0.0,0.0,0.0,0.0,0.0,0.0,0.0,0.0,0.0,0.0,0.0,0.0,0.0,0.0,0.0,0.0,0.0,0.0,0.0,0.0,0.0,0.0,0.0,0.0,0.0,0.0,0.0,0.0,0.0,0.0,0.0,0.0,0.0,0.0,0.0,0.0,0.0,0.0,0.0,0.0,0.0,0.0,0.0,0.0,0.0,0.0,0.0,0.0,0.0,0.0,0.0,0.0,0.0,0.0,0.0,0.0,0.0,0.0,0.0,0.0,0.0,0.0,0.0,0.0,0.0,0.0,0.0,0.0,0.0,0.0,0.0,0.0,0.0,0.0,0.0,0.0,0.0,0.0,0.0,0.0,0.0,0.0,0.0,0.0,0.0,0.0,0.0,0.0,0.0,0.0,0.0,0.0,0.0,0.0,0.0,0.0,0.0,0.0,0.0,0.0,0.0,0.0,0.0,0.504,0.3295,0.1316,-0.0754,-0.2412,-0.377,0.0,0.0,0.0,0.0,0.0,0.0,0.0,0.0,0.0,0.0,0.0,0.0,0.0,0.0,0.0,0.0,0.0,0.0,0.0,0.0,0.0,0.0,0.0,0.0,0.0,0.0,0.0,0.0,0.0,0.0,0.0,0.0,0.0,0.0,0.0,0.0,0.0,0.0,0.0,0.0,0.0,0.0,0.0,0.0,0.0,0.0,0.0,0.0,0.0,0.0,0.0,0.0,0.0,0.0,0.0,0.0,0.0,0.0,0.0,0.0,0.0,0.0,0.0,0.0,0.0,0.0,0.0,0.0,0.0,0.0,0.0,0.0,0.0,0.0,0.0,0.0,0.0,0.0,0.0,0.0,0.0,0.0,0.0,0.0,0.0,0.0,0.0,0.0,0.0,0.0,0.0,0.0,0.0,0.0,0.0,0.0,0.0,0.0,0.0,0.0,0.0,0.0,0.0,0.0,0.0,0.0,0.0,0.0,0.0,0.3887,0.0,0.0492,-0.1044,-0.2701,-0.4086,0.0,0.0,0.0,0.0,0.0,0.0,0.0,0.0,0.0,0.0,0.0,0.0,0.0,0.0,0.0,0.0,0.0,0.0,0.0,0.0,0.0,0.0,0.0,0.0,0.0,0.0,0.0,0.0,0.0,0.0,0.0,0.0,0.0,0.0,0.0,0.0,0.0,0.0,0.0,0.0,0.0,0.0,0.0,0.0,0.0,0.0,0.0,0.0,0.0,0.0,0.0,0.0,0.0,0.0,0.0,0.0,0.0,0.0,0.0,0.0,0.0,0.0,0.0,0.0,0.0,0.0,0.0,0.0,0.0,0.0,0.0,0.0,0.0,0.0,0.0,0.0,0.0,0.0,0.0,0.0,0.0,0.0,0.0,0.0,0.0,0.0,0.0,0.0,0.0,0.0,0.0,0.0,0.0,0.0,0.0,0.0,0.0,0.0,0.0,0.0,0.0,0.0,0.0,0.0,0.0,0.0,0.0,0.0,0.3523,0.2338,0.1257,-0.0043,-0.1471,-0.2995,-0.44,0.0,0.0,0.0,0.0,0.0,0.0,0.0,0.0,0.0,0.0,0.0,0.0,0.0,0.0,0.0,0.0,0.0,0.0,0.0,0.0,0.0,0.0,0.0,0.0,0.0,0.0,0.0,0.0,0.0,0.0,0.0,0.0,0.0,0.0,0.0,0.0,0.0,0.0,0.0,0.0,0.0,0.0,0.0,0.0,0.0,0.0,0.0,0.0,0.0,0.0,0.0,0.0,0.0,0.0,0.0,0.0,0.0,0.0,0.0,0.0,0.0,0.0,0.0,0.0,0.0,0.0,0.0,0.0,0.0,0.0,0.0,0.0,0.0,0.0,0.0,0.0,0.0,0.0,0.0,0.0,0.0,0.0,0.0,0.0,0.0,0.0,0.0,0.0,0.0,0.0,0.0,0.0,0.0,0.0,0.0,0.0,0.0,0.0,0.0,0.0,0.0,0.0,0.0,0.0,0.0,0.0,0.0,0.0,0.0,0.1316,0.0431,-0.0773,-0.2269,-0.3458,-0.4587,0.0,0.0,0.0,0.0,0.0,0.0,0.0,0.0,0.0,0.0,0.0,0.0,0.0,0.0,0.0,0.0,0.0,0.0,0.0,0.0,0.0,0.0,0.0,0.0,0.0,0.0,0.0,0.0,0.0,0.0,0.0,0.0,0.0,0.0,0.0,0.0,0.0,0.0,0.0,0.0,0.0,0.0,0.0,0.0,0.0,0.0,0.0,0.0,0.0,0.0,0.0,0.0,0.0,0.0,0.0,0.0,0.0,0.0,0.0,0.0,0.0,0.0,0.0,0.0,0.0,0.0,0.0,0.0,0.0,0.0,0.0,0.0,0.0,0.0,0.0,0.0,0.0,0.0,0.0,0.0,0.0,0.0,0.0,0.0,0.0,0.0,0.0,0.0,0.0,0.0,0.0,0.0,0.0,0.0,0.0,0.0,0.0,0.0,0.0,0.0,0.0,0.0,0.0,0.0,0.0,0.0,0.0,0.0,0.0,0.0,-0.0662,-0.1627,-0.301,-0.4008,-0.4986,-0.5986,0.0,0.0,0.0,0.0,0.0,0.0,0.0,0.0,0.0,0.0,0.0,0.0,0.0,0.0,0.0,0.0,0.0,0.0,0.0,0.0,0.0,0.0,0.0,0.0,0.0,0.0,0.0,0.0,0.0,0.0,0.0,0.0,0.0,0.0,0.0,0.0,0.0,0.0,0.0,0.0,0.0,0.0,0.0,0.0,0.0,0.0,0.0,0.0,0.0,0.0,0.0,0.0,0.0,0.0,0.0,0.0,0.0,0.0,0.0,0.0,0.0,0.0,0.0,0.0,0.0,0.0,0.0,0.0,0.0,0.0,0.0,0.0,0.0,0.0,0.0,0.0,0.0,0.0,0.0,0.0,0.0,0.0,0.0,0.0,0.0,0.0,0.0,0.0,0.0,0.0,0.0,0.0,0.0,0.0,0.0,0.0,0.0,0.0,0.0,0.0,0.0,0.0,0.0,0.0,0.0,0.0,0.0,0.0,-0.1621,-0.1899,-0.2521,-0.363,-0.4603,-0.5518,0.0,0.0,0.0,0.0,0.0,0.0,0.0,0.0,0.0,0.0,0.0,0.0,0.0,0.0,0.0,0.0,0.0,0.0,0.0,0.0,0.0,0.0,0.0,0.0,0.0,0.0,0.0,0.0,0.0,0.0,0.0,0.0,0.0,0.0,0.0,0.0,0.0,0.0,0.0,0.0,0.0,0.0,0.0,0.0,0.0,0.0,0.0,0.0,0.0,0.0,0.0,0.0,0.0,0.0,0.0,0.0,0.0,0.0,0.0,0.0,0.0,0.0,0.0,0.0,0.0,0.0,0.0,0.0,0.0,0.0,0.0,0.0,0.0,0.0,0.0,0.0,0.0,0.0,0.0,0.0,0.0,0.0,0.0,0.0,0.0,0.0,0.0,0.0,0.0,0.0,0.0,0.0,0.0,0.0,0.0,0.0,0.0,0.0,0.0,0.0,0.0,0.0,0.0,0.0,0.0,0.0,0.0,0.0,0.0,-0.2457,-0.3115,-0.3796,-0.4489,-0.5083,-0.5854,0.0,0.0,0.0,0.0,0.0,0.0,0.0,0.0,0.0,0.0,0.0,0.0,0.0,0.0,0.0,0.0,0.0,0.0,0.0,0.0,0.0,0.0,0.0,0.0,0.0,0.0,0.0,0.0,0.0,0.0,0.0,0.0,0.0,0.0,0.0,0.0,0.0,0.0,0.0,0.0,0.0,0.0,0.0,0.0,0.0,0.0,0.0,0.0,0.0,0.0,0.0,0.0,0.0,0.0,0.0,0.0,0.0,0.0,0.0,0.0,0.0,0.0,0.0,0.0,0.0,0.0,0.0,0.0,0.0,0.0,0.0,0.0,0.0,0.0,0.0,0.0,0.0,0.0,0.0,0.0,0.0,0.0,0.0,0.0,0.0,0.0,0.0,0.0,0.0,0.0,0.0,0.0,0.0,0.0,0.0,0.0,0.0,0.0,0.0,0.0,0.0,0.0,0.0,0.0,0.0,0.0,0.0,0.0,-0.182,-0.3235,-0.4138,-0.4879,-0.5464,-0.5748,-0.6239,0.0,0.0,0.0,0.0,0.0,0.0,0.0,0.0,0.0,0.0,0.0,0.0,0.0,0.0,0.0,0.0,0.0,0.0,0.0,0.0,0.0,0.0,0.0,0.0,0.0,0.0,0.0,0.0,0.0,0.0,0.0,0.0,0.0,0.0,0.0,0.0,0.0,0.0,0.0,0.0,0.0,0.0,0.0,0.0,0.0,0.0,0.0,0.0,0.0,0.0,0.0,0.0,0.0,0.0,0.0,0.0,0.0,0.0,0.0,0.0,0.0,0.0,0.0,0.0,0.0,0.0,0.0,0.0,0.0,0.0,0.0,0.0,0.0,0.0,0.0,0.0,0.0,0.0,0.0,0.0,0.0,0.0,0.0,0.0,0.0,0.0,0.0,0.0,0.0,0.0,0.0,0.0,0.0,0.0,0.0,0.0,0.0,0.0,0.0,0.0,0.0,0.0,0.0,0.0,0.0,0.0,0.0,0.0,-0.2432,-0.3912,-0.4925,-0.5776,-0.6358,-0.6519,-0.6754,0.0,0.0,0.0,0.0,0.0,0.0,0.0,0.0,0.0,0.0,0.0,0.0,0.0,0.0,0.0,0.0,0.0,0.0,0.0,0.0,0.0,0.0,0.0,0.0,0.0,0.0,0.0,0.0,0.0,0.0,0.0,0.0,0.0,0.0,0.0,0.0,0.0,0.0,0.0,0.0,0.0,0.0,0.0,0.0,0.0,0.0,0.0,0.0,0.0,0.0,0.0,0.0,0.0,0.0,0.0,0.0,0.0,0.0,0.0,0.0,0.0,0.0,0.0,0.0,0.0,0.0,0.0,0.0,0.0,0.0,0.0,0.0,0.0,0.0,0.0,0.0,0.0,0.0,0.0,0.0,0.0,0.0,0.0,0.0,0.0,0.0,0.0,0.0,0.0,0.0,0.0,0.0,0.0,0.0,0.0,0.0,0.0,0.0,0.0,0.0,0.0,0.0,0.0,0.0,0.0,0.0,0.0,0.0,-0.3105,-0.4285,-0.5335,-0.603,-0.6411,-0.6934,-0.72,0.0,0.0,0.0,0.0,0.0,0.0,0.0,0.0,0.0,0.0,0.0,0.0,0.0,0.0,0.0,0.0,0.0,0.0,0.0,0.0,0.0,0.0,0.0,0.0,0.0,0.0,0.0,0.0,0.0,0.0,0.0,0.0,0.0,0.0,0.0,0.0,0.0,0.0,0.0,0.0,0.0,0.0,0.0,0.0,0.0,0.0,0.0,0.0,-1.0791,0.0,0.0,0.0,0.0,0.0,0.0,0.0,0.0,0.0,0.0,0.0,0.0,0.0,0.0,0.0,0.0,0.0,0.0,0.0,0.0,0.0,0.0,0.0,0.0,0.0,0.0,0.0,0.0,0.0,0.0,0.0,0.0,0.0,0.0,0.0,0.0,0.0,0.0,0.0,0.0,0.0,0.0,0.0,0.0,0.0,0.0,0.0,0.0,0.0,0.0,0.0,0.0,0.0,0.0,0.0,0.0,0.0,0.0,0.0,-0.3601,-0.4895,-0.5882,-0.6524,-0.6897,-0.7512,-0.7678,0.0,0.0,0.0,0.0,0.0,0.0,0.0,0.0,0.0,0.0,0.0,0.0,0.0,0.0,0.0,0.0,0.0,0.0,0.0,0.0,0.0,0.0,0.0,0.0,0.0,0.0,0.0,0.0,0.0,0.0,0.0,0.0,0.0,0.0,0.0,0.0,0.0,0.0,0.0,0.0,0.0,0.0,0.0,0.0,0.0,0.0,0.0,0.0,0.0,0.0,0.0,0.0,0.0,0.0,0.0,0.0,0.0,0.0,0.0,0.0,0.0,0.0,0.0,0.0,0.0,0.0,0.0,0.0,0.0,0.0,0.0,0.0,0.0,0.0,0.0,0.0,0.0,0.0,0.0,0.0,0.0,0.0,0.0,0.0,0.0,0.0,0.0,0.0,0.0,0.0,0.0,0.0,0.0,0.0,0.0,0.0,0.0,0.0,0.0,0.0,0.0,0.0,0.0,0.0,0.0,0.0,0.0,-0.2969,-0.4133,-0.5596,-0.6537,-0.7162,-0.756,-0.8106,-0.8211,-0.7718,0.0,0.0,0.0,0.0,0.0,0.0,0.0,0.0,0.0,0.0,0.0,0.0,0.0,0.0,0.0,0.0,0.0,0.0,0.0,0.0,0.0,0.0,0.0,0.0,0.0,0.0,0.0,0.0,0.0,0.0,0.0,0.0,0.0,0.0,0.0,0.0,0.0,0.0,0.3128,0.1098,0.0,0.0,0.0,0.0,0.0,0.0,0.0,0.0,-1.2166,0.0,0.0,0.0,0.0,0.0,0.0,0.0,0.0,0.0,0.0,0.0,0.0,0.0,0.0,0.0,0.0,0.0,0.0,0.0,0.0,0.0,0.0,0.0,0.0,0.0,0.0,0.0,0.0,0.0,0.0,0.0,0.0,0.0,0.0,0.0,0.0,0.0,0.0,0.0,0.0,0.0,0.0,0.0,0.0,0.0,0.0,0.0,0.0,0.0,0.0,0.0,0.0,0.0,0.0,0.0,0.0,-0.2651,-0.3847,-0.5026,-0.6252,-0.7276,-0.7798,-0.7846,-0.8531,-0.8669,-0.8238,0.0,0.0,0.0,0.0,0.0,0.0,0.0,0.0,0.0,0.0,0.0,0.0,0.0,0.0,0.0,0.0,0.0,0.0,0.0,0.0,0.0,0.0,0.0,0.0,0.0,0.0,0.0,0.0,0.0,0.0,0.0,0.0,0.0,0.0,0.0,0.0,0.0,0.0,0.0,0.0671,-0.1017,0.0,0.0,0.0,0.0,0.0,0.0,0.0,0.0,-1.3635,0.0,0.0,0.0,0.0,0.0,0.0,0.0,0.0,0.0,0.0,0.0,0.0,0.0,0.0,0.0,0.0,0.0,0.0,0.0,0.0,0.0,0.0,0.0,0.0,0.0,0.0,0.0,0.0,0.0,0.0,0.0,0.0,0.0,0.0,0.0,0.0,0.0,0.0,0.0,0.0,0.0,0.0,0.0,0.0,0.0,0.0,0.0,0.0,0.0,0.0,0.0,0.0,0.0,0.0,0.0,-0.313,-0.4323,-0.5528,-0.6781,-0.759,-0.814,-0.8453,-0.8816,-0.8939,0.0,0.0,0.0,0.0,0.0,0.0,0.0,0.0,0.0,0.0,0.0,0.0,0.0,0.0,0.0,0.0,0.0,0.0,0.0,0.0,0.0,0.0,0.0,0.0,0.0,0.0,0.0,0.0,0.0,0.0,0.0,0.0,0.0,0.0,0.0,0.0,0.0,0.0,0.0,0.0,0.0087,-0.141,-0.3063,0.0,0.0,0.0,0.0,0.0,0.0,-1.3242,-1.4021,0.0,0.0,0.0,0.0,0.0,0.0,0.0,0.0,0.0,0.0,0.0,0.0,0.0,0.0,0.0,0.0,0.0,0.0,0.0,0.0,0.0,0.0,0.0,0.0,0.0,0.0,0.0,0.0,0.0,0.0,0.0,0.0,0.0,0.0,0.0,0.0,0.0,0.0,0.0,0.0,0.0,0.0,0.0,0.0,0.0,0.0,0.0,0.0,0.0,0.0,0.0,0.0,0.0,0.0,0.0,-0.3539,-0.4724,-0.5953,-0.7226,-0.7889,-0.8533,-0.9058,-0.9185,-0.9248,0.0,0.0,0.0,0.0,0.0,0.0,0.0,0.0,0.0,0.0,0.0,0.0,0.0,0.0,0.0,0.0,0.0,0.0,0.0,0.0,0.0,0.0,0.0,0.0,0.0,0.0,0.0,0.0,0.0,0.0,0.0,0.0,0.0,0.0,0.0,0.0,0.0,0.0,0.0,0.0,0.0,-0.2242,-0.3755,-0.5804,0.0,0.0,0.0,0.0,-1.2941,-1.3793,0.0,0.0,0.0,0.0,0.0,0.0,0.0,0.0,0.0,0.0,0.0,0.0,0.0,0.0,0.0,0.0,0.0,0.0,0.0,0.0,0.0,0.0,0.0,0.0,0.0,0.0,0.0,0.0,0.0,0.0,0.0,0.0,0.0,0.0,0.0,0.0,0.0,0.0,0.0,0.0,0.0,0.0,0.0,0.0,0.0,0.0,0.0,0.0,0.0,0.0,0.0,0.0,0.0,0.0,0.0,0.0,-0.3745,-0.5052,-0.6353,-0.7515,-0.8535,-0.9166,-0.9384,-0.9786,-0.9831,0.0,0.0,0.0,0.0,0.0,0.0,0.0,0.0,0.0,0.0,0.0,0.0,0.0,0.0,0.0,0.0,0.0,0.0,0.0,0.0,0.0,0.0,0.0,0.0,0.0,0.0,0.0,0.0,0.0,0.0,0.0,0.0,0.0,0.0,0.0,0.0,0.0,0.0,0.0,0.0,0.0,-0.3911,-0.4383,-0.6627,-0.8827,0.0,0.0,-1.2612,-1.3452,-1.4889,0.0,0.0,0.0,0.0,0.0,0.0,0.0,0.0,0.0,0.0,0.0,0.0,0.0,0.0,0.0,0.0,0.0,0.0,0.0,0.0,0.0,0.0,0.0,0.0,0.0,0.0,0.0,0.0,0.0,0.0,0.0,0.0,0.0,0.0,0.0,0.0,0.0,0.0,0.0,0.0,0.0,0.0,0.0,0.0,0.0,0.0,0.0,0.0,0.0,0.0,0.0,0.0,0.0,0.0,0.0,-0.2848,-0.3942,-0.5425,-0.6739,-0.7752,-0.8882,-0.9502,-0.966,-1.0019,-0.9966,0.0,0.0,0.0,0.0,0.0,0.0,0.0,0.0,0.0,0.0,0.0,0.0,0.0,0.0,0.0,0.0,0.0,0.0,0.0,0.0,0.0,0.0,0.0,0.0,0.0,0.0,0.0,0.0,0.0,0.0,0.0,0.0,0.0,0.0,0.0,0.0,0.0,0.0,0.0,0.0,0.0,0.0,-0.5894,-0.7915,0.0,0.0,0.0,-1.3648,-1.4283,0.0,0.0,0.0,0.0,0.0,0.0,0.0,0.0,0.0,0.0,0.0,0.0,0.0,0.0,0.0,0.0,0.0,0.0,0.0,0.0,0.0,0.0,0.0,0.0,0.0,0.0,0.0,0.0,0.0,0.0,0.0,0.0,0.0,0.0,0.0,0.0,0.0,0.0,0.0,0.0,0.0,0.0,0.0,0.0,0.0,0.0,0.0,0.0,0.0,0.0,0.0,0.0,0.0,0.0,0.0,0.0,0.0,-0.4425,-0.5882,-0.7212,-0.8295,-0.9257,-0.9862,-0.9968,-1.0185,0.0,0.0,0.0,0.0,0.0,0.0,0.0,0.0,0.0,0.0,0.0,0.0,0.0,0.0,0.0,0.0,0.0,0.0,0.0,0.0,0.0,0.0,0.0,0.0,0.0,0.0,0.0,-0.2855,0.0,0.0,0.0,0.0,0.0,0.0,0.0,0.0,0.0,0.0,0.0,0.0,0.0,0.0,-0.6631,-0.7643,-0.9408,-1.097,0.0,0.0,-1.4558,-1.5136,-1.6086,-1.6745,0.0,0.0,0.0,0.0,0.0,0.0,0.0,0.0,0.0,0.0,0.0,0.0,0.0,0.0,0.0,0.0,0.0,0.0,0.0,0.0,0.0,0.0,0.0,0.0,0.0,0.0,0.0,0.0,0.0,0.0,0.0,0.0,0.0,0.0,0.0,0.0,0.0,0.0,0.0,0.0,0.0,0.0,0.0,0.0,0.0,0.0,0.0,0.0,0.0,0.0,0.0,0.0,0.0,0.0,-0.3827,-0.5534,-0.6388,-0.7667,-0.9416,-1.0055,-1.0365,-1.0453,-1.0538,-1.0371,0.0,0.0,0.0,0.0,0.0,0.0,0.0,0.0,0.0,0.0,0.0,0.0,0.0,0.0,0.0,0.0,0.0,0.0,0.0,0.0,0.0,0.0,0.0,0.0,0.0,0.0,0.0,0.0,0.0,0.0,0.0,0.0,0.0,0.0,0.0,0.0,0.0,0.0,0.0,0.0,0.0,-0.8571,-0.9595,-1.1129,-1.258,0.0,-1.4321,-1.5002,-1.6063,-1.7133,-1.7825,-1.7568,0.0,0.0,0.0,0.0,0.0,0.0,0.0,0.0,0.0,0.0,0.0,0.0,0.0,0.0,0.0,0.0,0.0,0.0,0.0,0.0,0.0,0.0,0.0,0.0,0.0,0.0,0.0,0.0,0.0,0.0,0.0,0.0,0.0,0.0,0.0,0.0,0.0,0.0,0.0,0.0,0.0,0.0,0.0,0.0,0.0,0.0,0.0,0.0,0.0,0.0,0.0,0.0,0.0,-0.3755,-0.5536,-0.648,-0.7759,-0.9267,-1.0184,-1.055,-1.0332,-1.0361,-1.0175,0.0,0.0,0.0,0.0,0.0,0.0,0.0,0.0,0.0,0.0,0.0,0.0,0.0,0.0,0.0,0.0,0.0,0.0,0.0,0.0,0.0,0.0,0.0,0.0,0.0,0.0,0.0,0.0,-0.3925,-0.4252,-0.4156,0.0,0.0,0.0,0.0,0.0,0.0,0.0,0.0,0.0,0.0,-1.0439,-1.0963,-1.2601,0.0,0.0,-1.5022,-1.588,-1.6595,-1.7267,-1.7796,-1.8154,-1.8443,0.0,0.0,0.0,0.0,0.0,0.0,0.0,0.0,0.0,0.0,0.0,0.0,0.0,0.0,0.0,0.0,0.0,0.0,0.0,0.0,0.0,0.0,0.0,0.0,0.0,0.0,0.0,0.0,0.0,0.0,0.0,0.0,0.0,0.0,0.0,0.0,0.0,0.0,0.0,0.0,0.0,0.0,0.0,0.0,0.0,0.0,0.0,0.0,0.0,0.0,0.0,0.0,-0.3981,-0.5907,-0.6787,-0.8024,-0.9575,-1.0479,-1.0766,-1.0533,-1.0412,-1.0093,0.0,0.0,0.0,0.0,0.0,0.0,0.0,0.0,0.0,0.0,0.0,0.0,0.0,0.0,0.0,0.0,0.0,0.0,0.0,0.0,0.0,0.0,0.0,0.0,0.0,0.0,0.0,0.0,-0.4739,-0.5114,-0.5037,0.0,0.0,0.0,0.0,0.0,0.0,0.0,0.0,0.0,0.0,-1.2072,-1.2668,-1.3941,-1.4848,-1.4978,-1.576,-1.6591,-1.7274,-1.7687,-1.8167,-1.8831,0.0,0.0,0.0,0.0,0.0,0.0,0.0,0.0,0.0,0.0,0.0,0.0,0.0,0.0,0.0,0.0,0.0,0.0,0.0,0.0,0.0,0.0,0.0,0.0,0.0,0.0,0.0,0.3566,0.0,0.0,0.2788,0.0,0.0,0.0,0.0,0.0,0.0,0.0,0.0,0.0,0.0,0.0,0.0,0.0,0.0,0.0,0.0,0.0,0.0,0.0,0.0,0.0,0.0,-0.461,-0.6842,-0.7266,-0.857,-1.0763,-1.1085,-1.1175,-1.1142,-1.0773,-1.0403,-0.9966,0.0,0.0,0.0,0.0,0.0,0.0,0.0,0.0,0.0,0.0,0.0,0.0,0.0,0.0,0.0,0.0,0.0,0.0,0.0,0.0,0.0,0.0,0.0,0.0,0.0,0.0,-0.5526,-0.5754,-0.5965,0.0,0.0,0.0,0.0,0.0,0.0,0.0,0.0,0.0,-1.1269,-1.232,-1.3521,-1.4867,-1.5045,-1.5355,-1.6193,-1.6533,-1.7057,-1.8085,-1.8601,-1.9042,0.0,0.0,0.0,0.0,0.0,0.0,0.0,0.0,0.0,0.0,0.0,0.0,0.0,0.0,0.0,0.0,0.0,0.0,0.0,0.0,0.0,0.0,0.0,0.0,0.0,0.0,0.0,0.378,0.3195,0.0,0.0,0.0,0.0,0.0,0.0,0.0,0.0,0.0,0.0,0.0,-0.1068,-0.1726,0.0,0.0,0.0,0.0,0.0,0.0,0.0,0.0,0.0,0.0,0.0,0.0,-0.4693,-0.6963,-0.7211,-0.8404,-1.0613,-1.0796,-1.0768,-1.0635,-1.0355,-0.9942,-0.9356,0.0,0.0,0.0,0.0,0.0,0.0,0.0,0.0,0.0,0.0,0.0,0.0,0.0,0.0,0.0,0.0,0.0,0.0,0.0,0.0,0.0,0.0,0.0,0.0,0.0,-0.6079,0.0,0.0,0.0,0.0,0.0,0.0,0.0,0.0,0.0,0.0,0.0,-1.1588,-1.3155,-1.4249,-1.5169,-1.5835,-1.6039,-1.6311,0.0,0.0,0.0,0.0,0.0,0.0,0.0,0.0,0.0,0.0,0.0,0.0,0.0,0.0,-2.2696,-2.1781,-2.2579,-2.3543,-2.3777,0.0,0.0,0.0,0.0,0.0,0.0,0.0,0.0,0.0,0.0,0.0,0.0,0.0,0.0,0.416,0.0,0.3076,0.0,0.0,0.0,0.0,0.0,0.0,0.0,0.0,-0.0041,-0.0746,-0.1639,-0.185,-0.227,0.0,-0.3108,-0.31,0.0,0.0,0.0,0.0,0.0,0.0,0.0,0.0,-0.4796,-0.6986,-0.719,-0.83,-1.0397,-1.0583,-1.0521,-1.0277,-0.9998,-0.962,-0.9108,-0.8965,-0.8702,0.0,0.0,0.0,0.0,0.0,0.0,0.0,0.0,0.0,0.0,0.0,0.0,0.0,0.0,0.0,0.0,0.0,0.0,0.0,0.0,0.0,0.0,0.0,-0.728,0.0,0.0,0.0,0.0,0.0,0.0,0.0,0.0,0.0,-1.1155,-1.2199,-1.3571,-1.5158,-1.6021,-1.6639,-1.7011,0.0,0.0,0.0,0.0,0.0,0.0,0.0,-1.9583,-2.0551,-2.112,-2.1782,-2.2742,-2.3453,-2.4009,-2.4369,0.0,0.0,-2.3506,-2.4039,-2.4834,-2.527,-2.5942,-2.6583,-2.698,-2.735,-2.7691,0.0,0.0,0.0,0.0,0.0,0.0,0.0,0.0,0.5241,0.4767,0.0,0.3398,0.0,0.0,0.0,0.0,0.2277,0.1585,0.0,0.0,0.0126,-0.0715,-0.1939,-0.1687,-0.2189,-0.3283,-0.3491,-0.3743,-0.3903,-0.3379,0.0,0.0,0.0,0.0,0.0,0.0,-0.4882,-0.6798,-0.7109,-0.8222,-1.0182,-1.0406,-1.0456,-1.0258,-0.9847,-0.9489,-0.9341,-0.9234,-0.8794,-0.7834,-0.7619,0.0,0.0,0.0,0.0,0.0,0.0,0.0,0.0,0.0,0.0,0.0,0.0,0.0,0.0,0.0,0.0,0.0,0.0,0.0,0.0,-0.7819,0.0,0.0,0.0,0.0,0.0,0.0,0.0,0.0,0.0,0.0,-1.2617,-1.4308,-1.6064,-1.7147,0.0,0.0,0.0,0.0,-1.74,-1.7457,-1.7765,-1.8201,-1.89,-1.9814,-2.0583,-2.1022,0.0,0.0,-2.3805,-2.3749,-2.3999,-2.4987,-2.5787,-2.5953,-2.505,-2.4791,-2.5001,-2.5757,-2.6253,-2.6635,-2.7438,-2.8266,-2.8828,0.9536,0.0,0.0,0.0,0.0,0.791,0.7464,0.693,0.6408,0.5533,0.4429,0.3992,0.0,0.0,0.0,0.0,0.0,0.0,0.1474,0.0817,0.0602,0.0,-0.0881,-0.0793,-0.11,-0.176,-0.2425,-0.2879,-0.3091,-0.3512,-0.3722,-0.3662,0.0,0.0,0.0,0.0,-0.4665,-0.6065,-0.6118,-0.7136,-0.9255,-0.9182,-0.9433,-1.0085,-0.9497,-0.9272,-0.9498,-0.8701,-0.8095,-0.7807,-0.6949,0.0,0.0,0.0,0.0,0.0,0.0,0.0,0.0,0.0,0.0,0.0,0.0,0.0,0.0,0.0,0.0,0.0,0.0,0.0,-0.766,-0.8742,-0.9362,0.0,0.0,0.0,0.0,0.0,0.0,0.0,0.0,0.0,-1.5587,-1.5935,-1.6645,0.0,0.0,-1.8216,-1.8118,-1.7697,-1.7564,-1.7995,-1.7885,0.0,-1.9005,-1.9764,-2.0469,-2.108,-2.2573,-2.4002,-2.4966,-2.5355,-2.5849,-2.6652,-2.6972,-2.7024,-2.681,-2.6767,-2.6957,-2.7623,-2.8258,-2.8886,-2.9522,-3.0192,-3.0658,1.0318,0.9735,0.93,0.908,0.8964,0.8831,0.8392,0.7793,0.7265,0.6514,0.5534,0.4634,0.3953,0.3468,0.2968,0.0,0.0,0.0,0.1551,0.1144,0.1011,0.0487,-0.0359,0.0,-0.0269,-0.1121,-0.1636,-0.1977,-0.2194,-0.3053,-0.3467,-0.3461,0.0,0.0,-0.3955,-0.3989,-0.4591,-0.5717,-0.5709,-0.6471,-0.8147,-0.8237,-0.867,-0.9422,-0.9141,-0.9023,-0.8968,-0.8431,-0.7822,-0.7139,-0.6549,-0.5935,0.0,0.0,0.0,0.0,0.0,0.0,0.0,0.0,0.0,0.0,0.0,-0.3099,-0.3404,0.0,0.0,0.0,-0.6118,-0.7401,-0.8285,-0.918,0.0,0.0,0.0,0.0,0.0,0.0,0.0,-1.4335,-1.5353,-1.6312,-1.7135,-1.7185,-1.7584,-1.87,-1.8737,-1.8521,-1.8188,0.0,-1.7751,-1.8143,-1.8055,-1.823,-1.8912,-1.9816,-2.0769,-2.1776,-2.2846,-2.395,-2.4838,-2.5534,-2.6133,-2.6616,-2.7121,-2.7425,-2.7223,-2.7239,-2.7476,-2.8035,-2.8549,-2.9061,-2.9613,-3.026,-3.0776,1.0801,1.0622,1.0208,0.985,0.97,0.9651,0.9366,0.8888,0.7996,0.7547,0.7312,0.5406,0.4563,0.451,0.3426,0.0,0.2789,0.1829,0.1453,0.1525,0.1525,0.0942,-0.009,0.0762,0.0493,-0.0852,-0.0987,-0.1121,-0.1341,-0.2238,-0.2697,-0.2739,-0.3583,-0.4012,-0.4008,-0.413,-0.4647,-0.547,-0.553,-0.6065,-0.6973,-0.7551,-0.8048,-0.8505,-0.8729,-0.8576,-0.8095,-0.8226,-0.7703,-0.6237,-0.6293,-0.5985,-0.5116,0.0,0.0,0.0,0.0,0.0,0.0,0.0,0.0,0.0,0.0,0.0,0.0,0.0,0.0,-0.6163,-0.7753,0.0,-0.8481,-0.9376,0.0,0.0,0.0,-1.1844,-1.238,-1.3608,-1.4757,-1.5671,0.0,0.0,-1.762,-1.8069,-1.8515,-1.9198,-1.8953,-1.8693,-1.8554,-1.8111,-1.7931,-1.8051,-1.8193,-1.8376,-1.8709,-1.9852,-2.1183,-2.2606,-2.3001,-2.3313,-2.4047,-2.4814,-2.5328,-2.5553,-2.6583,-2.7275,-2.6713,-2.6647,-2.6788,-2.7346,-2.7583,-2.7786,-2.8405,-2.897,-2.9546,1.1094,1.1047,1.095,1.0697,1.0366,1.0131,0.9835,0.9383,0.8975,0.818,0.7139,0.6653,0.5675,0.434,0.4099,0.3559,0.2852,0.2629,0.2546,0.2558,0.256,0.2289,0.184,0.1885,0.166,0.1076,0.0179,-0.0269,-0.0403,-0.2049,-0.2845,-0.2888,-0.376,-0.4204,-0.4187,-0.4163,-0.4334,-0.4619,-0.4641,-0.5149,-0.6146,-0.687,-0.7371,-0.7741,-0.7529,-0.7474,-0.7605,-0.6933,-0.6426,-0.6178,-0.5665,-0.5184,-0.4815,-0.4751,0.0,0.0,0.0,0.0,0.0,0.0,0.0,0.0,0.0,-0.4817,-0.5273,0.0,-0.6328,0.0,-0.8104,-0.9228,-0.9774,-1.0168,0.0,0.0,-1.1357,-1.2126,-1.344,-1.4182,-1.5047,-1.6327,-1.6887,-1.7417,-1.8053,-1.8092,-1.8114,-1.8285,-1.8242,-1.8087,-1.7783,-1.7424,-1.7501,-1.8194,-1.8026,-1.7937,-1.8597,-1.9715,-2.1096,-2.2729,-2.299,-2.325,-2.3975,-2.4743,-2.5341,-2.5519,-2.6237,-2.6615,-2.6093,-2.602,-2.6052,-2.6227,-2.6635,-2.7186,-2.7776,-2.8079,-2.8244,1.1239,1.1071,1.1161,1.1061,1.0844,1.0613,1.0269,0.9848,0.9533,0.8849,0.7994,0.7391,0.6296,0.4919,0.4476,0.3989,0.3499,0.3097,0.292,0.292,0.292,0.2739,0.2515,0.2289,0.2064,0.175,0.0987,0.0628,0.0537,-0.0879,-0.1794,-0.2208,-0.3075,-0.3748,-0.4173,-0.4253,-0.4234,-0.4242,-0.4281,-0.4652,-0.5376,-0.6056,-0.6537,-0.6879,-0.6881,-0.6869,-0.6809,-0.6284,-0.5844,-0.5537,-0.5126,-0.4713,-0.445,-0.4388,-0.4389,0.0,0.0,0.0,0.0,0.0,0.0,0.0,0.0,0.0,0.0,0.0,-0.7591,-0.8488,-0.939,-1.0118,-1.0716,-1.0749,-1.0879,-1.1272,-1.1754,-1.258,-1.3838,-1.4751,-1.5721,-1.6878,-1.7171,-1.7476,-1.7863,-1.7831,-1.7655,-1.7338,-1.7393,-1.7427,-1.7261,-1.7047,-1.7111,-1.7715,-1.7492,-1.7639,-1.8665,-1.9667,-2.0825,-2.2305,-2.2659,-2.2831,-2.3245,-2.3768,-2.4102,-2.3972,-2.4956,-2.5672,-2.5145,-2.548,-2.578,-2.5816,-2.5897,-2.6226,-2.6734,-2.6908,-2.6906,1.1429,1.1139,1.122,1.1243,1.1179,1.1009,1.0669,1.0231,0.9871,0.9541,0.912,0.7875,0.6786,0.5855,0.501,0.461,0.4431,0.3489,0.3089,0.3096,0.2955,0.2777,0.256,0.2334,0.2109,0.184,0.157,0.1433,0.1383,0.0516,-0.034,-0.1165,-0.216,-0.3073,-0.3963,-0.4178,-0.424,-0.4191,-0.4305,-0.4473,-0.4801,-0.5291,-0.5671,-0.5974,-0.6397,-0.6363,-0.5828,-0.5905,-0.5558,-0.4784,-0.4686,-0.4475,-0.4033,-0.3854,-0.3947,0.0,-0.4528,0.0,0.0,0.0,0.0,0.0,0.0,0.0,0.0,-0.7257,-0.8714,-1.0349,-1.074,-1.0998,-1.1215,-1.1067,-1.1044,-1.1335,-1.2028,-1.2841,-1.3871,-1.5101,-1.6213,-1.713,-1.7177,-1.7211,-1.7415,-1.7402,-1.7093,-1.6587,-1.6619,-1.6764,-1.6727,-1.6739,-1.6773,-1.6876,-1.6918,-1.7461,-1.8851,-1.9563,-2.041,-2.1807,-2.2226,-2.2179,-2.2251,-2.2521,-2.2557,-2.2174,-2.3377,-2.438,-2.3972,-2.4668,-2.5288,-2.5449,-2.5084,-2.4979,-2.5568,-2.5638,-2.5571,1.2091,1.2292,1.176,1.1389,1.1189,1.1151,1.0879,1.0455,1.0367,0.9888,0.9169,0.8593,0.7764,0.6874,0.665,0.6163,0.5359,0.4397,0.3967,0.3985,0.3174,0.2827,0.2827,0.256,0.2334,0.211,0.184,0.16,0.1399,0.0477,-0.0086,-0.038,-0.1968,-0.2821,-0.2923,0.0,0.0,0.0,-0.4514,-0.4662,-0.4741,-0.4967,-0.5145,-0.5218,-0.5299,0.0,-0.5171,-0.5193,-0.504,-0.474,-0.4495,0.0,0.0,0.0,0.0,0.0,0.0,0.0,0.0,0.0,0.0,0.0,-0.6145,-0.6269,-0.6622,-0.7886,-0.888,-0.9294,-1.0269,-1.0935,-1.0981,-1.1078,-1.1267,-1.1513,-1.168,-1.2338,-1.3663,-1.422,-1.4997,-1.6354,-1.6643,-1.6792,-1.6983,-1.6718,-1.6516,-1.6362,-1.6148,-1.5992,-1.6036,-1.6054,-1.6259,-1.6735,-1.6867,-1.7439,-1.8974,-1.9277,-1.9911,-2.1278,-2.1723,-2.1723,-2.1783,-2.2239,-2.2432,-2.1894,-2.2657,-2.3352,-2.3255,-2.3021,-2.3262,-2.4214,-2.3919,-2.379,-2.4884,-2.4766,-2.4409,1.3479,1.3423,1.3075,1.2475,0.0,1.1866,1.1516,1.084,1.0493,0.9855,0.9046,0.8821,0.838,0.7808,0.7319,0.6827,0.6337,0.5393,0.4958,0.4914,0.3946,0.3513,0.3542,0.2796,0.24,0.2332,0.1909,0.1713,0.1563,0.0935,0.0418,-0.0041,-0.0979,-0.1622,-0.2029,-0.2947,-0.3652,-0.4124,-0.4389,-0.4498,-0.4479,-0.4594,-0.4726,-0.487,-0.4859,0.0,0.0,0.0,0.0,0.0,0.0,0.0,0.0,-0.264,0.0,-0.298,-0.3586,-0.4235,-0.496,-0.555,-0.598,-0.6099,-0.6286,-0.6673,-0.7306,-0.8256,-0.9097,-0.9781,-1.0668,-1.1232,-1.1394,-1.1372,-1.1412,-1.1536,-1.1536,-1.1996,-1.3018,-1.379,-1.4693,-1.5658,-1.625,-1.6621,-1.6855,-1.6539,-1.6317,-1.6336,-1.6191,-1.5985,-1.5848,-1.5805,-1.5977,-1.631,-1.637,-1.6891,-1.828,-1.8844,-1.946,-2.0831,-2.1266,-2.1266,-2.1266,-2.1352,-2.1307,-2.1071,-2.1567,-2.2068,-2.2104,-2.207,-2.2329,-2.2919,-2.31,-2.3253,-2.3961,-2.4088,-2.4125,1.4899,1.4534,1.4463,1.3761,1.2694,1.2886,1.2372,1.1356,0.0,0.0,0.0,0.8972,0.8823,0.8608,0.7764,0.7363,0.7316,0.6336,0.5887,0.5857,0.487,0.435,0.4156,0.319,0.2628,0.2438,0.2004,0.1767,0.176,0.1491,0.0974,0.0282,0.0079,-0.0436,-0.134,-0.2125,-0.2866,-0.3495,-0.393,-0.4039,-0.3833,-0.3958,-0.4114,-0.43,-0.4316,-0.4387,-0.4545,-0.4545,-0.4426,-0.4185,-0.3441,-0.2889,-0.255,-0.1839,-0.1707,-0.2202,-0.2928,-0.3643,-0.43,-0.5198,-0.5744,-0.5899,-0.6244,-0.6792,-0.7541,-0.8173,-0.9029,-1.0226,-1.0874,-1.1352,-1.1718,-1.1549,-1.1417,-1.1455,-1.1417,-1.168,-1.2374,-1.3512,-1.4453,-1.514,-1.5757,-1.6321,-1.6619,-1.6268,-1.6079,-1.6158,-1.6098,-1.6096,-1.5874,-1.5805,-1.5814,-1.5874,-1.5908,-1.6307,-1.748,-1.8262,-1.9077,-2.0247,-2.0629,-2.0763,-2.0686,-2.0413,-2.0151,-2.0238,-2.0582,-2.0955,-2.1115,-2.1396,-2.1834,-2.2039,-2.2439,-2.2847,-2.3088,-2.3531,-2.3923,1.5772,1.5846,1.5168,1.4584,1.4023,1.4058,1.3379,1.2136,1.0814,1.0031,0.9728,0.916,0.8867,0.8828,0.852,0.8384,0.8321,0.7169,0.6694,0.6675,0.5692,0.4762,0.3982,0.3959,0.3401,0.2378,0.2242,0.2009,0.1646,0.1592,0.141,0.1067,0.0353,-0.0396,-0.1179,-0.144,-0.1541,-0.1599,-0.2885,-0.3125,-0.2363,-0.2707,-0.2901,-0.2826,-0.2806,-0.2817,-0.2856,-0.2856,-0.2735,-0.2534,-0.2217,-0.1753,-0.1202,-0.1105,-0.1141,-0.1439,-0.2027,-0.2927,-0.4029,-0.4611,-0.5157,-0.5822,-0.6158,-0.6408,-0.6525,-0.7321,-0.8169,-0.8923,-0.9725,-1.043,-1.1069,-1.1164,-1.1178,-1.114,-1.1172,-1.1396,-1.2044,-1.3005,-1.3903,-1.446,-1.4996,-1.5548,-1.5857,-1.5403,-1.5137,-1.5326,-1.5497,-1.5497,-1.5711,-1.5805,-1.5805,-1.5805,-1.5805,-1.6175,-1.6994,-1.7657,-1.8393,-1.9114,-1.9832,-2.0238,-2.0282,-2.0162,-2.0085,-2.0118,-2.0204,-2.0452,-2.0901,-2.0667,-2.0944,-2.1667,-2.1729,-2.1822,-2.2756,-2.3148,-2.3442,1.7223,1.7152,1.6645,1.59,1.5003,1.4541,1.3803,1.298,1.2305,1.1182,0.9899,0.9478,0.9126,0.8911,0.8823,0.8696,0.8552,0.7901,0.7612,0.7576,0.6513,0.5788,0.5305,0.4432,0.3686,0.3144,0.2571,0.2177,0.1993,0.1728,0.1548,0.1415,0.0942,0.0516,0.0163,-0.0332,-0.0337,0.0128,-0.1484,-0.2051,-0.1579,-0.1941,-0.2159,-0.211,-0.2261,-0.2388,-0.2503,-0.2503,-0.2465,-0.2349,-0.1823,-0.1395,-0.1136,-0.066,-0.0505,-0.0784,-0.1372,-0.2193,-0.3326,-0.4416,-0.5276,-0.5864,-0.6018,-0.6138,-0.6296,-0.7095,-0.7716,-0.8055,-0.9013,-0.9883,-1.0421,-1.0689,-1.0918,-1.1062,-1.1117,-1.1335,-1.1966,-1.2879,-1.368,-1.4243,-1.4813,-1.5283,-1.5454,-1.5018,-1.4821,-1.5137,-1.5206,-1.5292,-1.5446,-1.5326,-1.536,-1.5703,-1.5805,-1.6132,-1.6768,-1.7139,-1.7823,-1.8811,-1.9243,-1.966,-1.9955,-1.9943,-1.9856,-2.0042,-1.9922,-1.9974,-2.0461,-2.0324,-2.0453,-2.072,-2.1155,-2.1396,-2.1916,-2.2531,-2.331,1.8417,1.8115,1.7941,1.7194,1.61,1.5321,1.4565,1.3905,1.3831,1.2614,1.0696,1.0124,0.9689,0.9388,0.9038,0.8828,0.8623,0.8375,0.8227,0.811,0.7248,0.6717,0.6407,0.5041,0.432,0.4078,0.3287,0.278,0.2532,0.2178,0.1847,0.1612,0.1382,0.1319,0.1302,0.0657,0.067,0.125,-0.0044,-0.0746,-0.0683,-0.0977,-0.1215,-0.1311,-0.1481,-0.1694,-0.1919,-0.1957,-0.1918,-0.1918,-0.1371,-0.1019,-0.098,-0.0353,-0.0079,-0.0275,-0.0745,-0.1567,-0.2778,-0.4203,-0.525,-0.5702,-0.5864,-0.598,-0.6219,-0.6834,-0.733,-0.7574,-0.8505,-0.9301,-0.9797,-1.0277,-1.0647,-1.0875,-1.0954,-1.1156,-1.1685,-1.272,-1.3608,-1.4091,-1.47,-1.5172,-1.5206,-1.4881,-1.4658,-1.4855,-1.4966,-1.4983,-1.5035,-1.4846,-1.4975,-1.5343,-1.5608,-1.5869,-1.6532,-1.6837,-1.7366,-1.8488,-1.8736,-1.909,-1.9512,-1.9496,-1.954,-1.9824,-1.9769,-1.9801,-2.0042,-2.0118,-2.0151,-2.027,-2.0539,-2.0912,-2.1187,-2.2255,-2.3292,1.8635,1.8442,1.8419,1.8087,1.7414,1.7124,1.6264,1.5146,1.4953,1.4046,1.2671,1.1429,1.0862,1.0641,0.9471,0.8911,0.8842,0.8283,0.8048,0.8024,0.7805,0.7162,0.6354,0.6212,0.5769,0.4975,0.4755,0.413,0.3347,0.3258,0.2668,0.1693,0.1405,0.1379,0.1307,0.131,0.1285,0.1311,0.1207,0.1053,0.089,0.0613,0.0387,0.021,0.0164,0.004,-0.0314,-0.0235,-0.0235,-0.0235,0.0,0.0,0.0,0.0,0.0,0.0,-0.0275,-0.1098,-0.2656,-0.3679,-0.4548,-0.5265,-0.5664,-0.5902,-0.5941,-0.6254,-0.6721,-0.7341,-0.7871,-0.8548,-0.9416,-0.9893,-1.0207,-1.0395,-1.0605,-1.0755,-1.1098,-1.227,-1.331,-1.3528,-1.4407,-1.512,-1.5419,-1.4846,-1.4256,-1.4367,-1.4367,-1.4427,-1.4658,-1.4632,-1.4607,-1.4854,-1.5043,-1.5377,-1.5826,-1.6499,-1.6915,-1.7366,-1.795,-1.8458,-1.8834,-1.9222,-1.9431,-1.954,-1.978,-1.9943,-2.0063,-2.0118,-2.0118,-2.0118,-2.0237,-2.0388,-2.104,-2.2113,-2.316,1.8735,1.8651,1.8527,1.808,1.7467,1.7492,1.6948,1.5974,1.6083,1.5606,1.4646,1.3535,1.2535,1.1499,0.9994,0.9388,0.9405,0.8713,0.8234,0.8004,0.7882,0.7505,0.6999,0.65,0.6064,0.5667,0.5234,0.4768,0.4382,0.4109,0.3602,0.2978,0.2809,0.2561,0.2112,0.2108,0.1839,0.1348,0.1317,0.1286,0.1206,0.1016,0.0839,0.0755,0.061,0.0397,0.0197,0.0157,0.0118,0.0,0.0,0.0,0.0,0.0,0.0,0.0,-0.058,-0.1181,-0.1878,-0.3161,-0.4131,-0.4591,-0.5197,-0.5592,-0.5712,-0.5944,-0.6251,-0.6538,-0.7122,-0.779,-0.8541,-0.9157,-0.966,-1.0067,-1.0359,-1.0701,-1.1436,-1.2158,-1.2978,-1.3859,-1.4364,-1.4757,-1.5095,-1.4805,-1.4478,-1.4401,-1.4264,-1.417,-1.4316,-1.4144,-1.411,-1.4298,-1.447,-1.4701,-1.5094,-1.5365,-1.5969,-1.668,-1.7125,-1.7521,-1.8448,-1.8796,-1.9058,-1.9331,-1.9529,-1.9802,-2.0074,-2.0107,-2.0118,-2.0118,-2.0151,-2.0302,-2.0976,-2.1865,-2.2695,1.8781,1.8781,1.8566,1.8095,1.7447,1.7579,1.7249,1.6588,1.6756,1.655,1.598,1.506,1.4052,1.2813,1.1132,1.0332,1.0091,0.9341,0.8674,0.8197,0.7951,0.7756,0.7556,0.7034,0.6677,0.6599,0.6133,0.5717,0.5367,0.4704,0.4226,0.399,0.3871,0.351,0.3005,0.2946,0.2528,0.1691,0.162,0.1543,0.1332,0.1143,0.106,0.0996,0.0808,0.0593,0.0393,0.0354,0.0236,0.0079,0.0039,0.0,0.0,0.0,0.0,0.0,-0.0569,-0.1077,-0.1278,-0.2429,-0.3265,-0.3661,-0.4445,-0.4985,-0.5184,-0.5555,-0.5806,-0.5873,-0.6383,-0.7082,-0.7919,-0.8639,-0.9328,-0.9852,-1.0058,-1.0498,-1.1208,-1.179,-1.2614,-1.3621,-1.4003,-1.4338,-1.4555,-1.451,-1.4403,-1.4273,-1.4076,-1.3939,-1.3913,-1.3716,-1.3648,-1.3887,-1.3939,-1.4161,-1.4596,-1.481,-1.5269,-1.5841,-1.6348,-1.6888,-1.7922,-1.8151,-1.8523,-1.8742,-1.9037,-1.9364,-1.9704,-1.9867,-1.9976,-2.0074,-2.0096,-2.0204,-2.0646,-2.1376,-2.2021,1.8781,1.8789,1.8574,1.8225,1.7839,1.7749,1.7295,1.6706,1.6846,1.6705,1.6257,1.5431,1.5147,1.5133,1.3077,1.174,1.095,1.0244,0.9461,0.8657,0.8209,0.8,0.7992,0.7951,0.7893,0.7735,0.7646,0.7222,0.6378,0.5143,0.4384,0.4426,0.4146,0.3873,0.3777,0.3762,0.3327,0.2579,0.2456,0.2156,0.1423,0.1316,0.1196,0.1097,0.0975,0.0882,0.0591,0.0393,0.0314,0.0275,0.0118,0.0,0.0,0.0,0.0,0.0,0.0,-0.0438,-0.1126,-0.1429,-0.1851,-0.2577,-0.3518,-0.4014,-0.4152,-0.4981,-0.5494,-0.5523,-0.5879,-0.6605,-0.7734,-0.8498,-0.9101,-0.9423,-0.9602,-0.9764,-0.9904,-1.1142,-1.1975,-1.2526,-1.3325,-1.3884,-1.3953,-1.3946,-1.3819,-1.363,-1.3527,-1.3471,-1.3366,-1.3407,-1.3385,-1.3463,-1.3531,-1.3771,-1.4478,-1.4528,-1.4696,-1.5239,-1.5762,-1.6187,-1.665,-1.714,-1.773,-1.8217,-1.8589,-1.896,-1.9278,-1.9496,-1.9627,-1.9758,-1.9943,-2.0149,-2.0211,-2.0739,-2.1365,1.8781,1.8781,1.8743,1.8283,1.7687,1.7757,1.7371,1.6736,1.6989,1.6854,1.6404,1.6006,1.5727,1.543,1.4663,1.3626,1.2462,1.1225,1.0221,0.9466,0.8716,0.8247,0.8016,0.8012,0.8012,0.8012,0.8012,0.7737,0.726,0.6617,0.6268,0.609,0.5743,0.5351,0.4849,0.4648,0.4178,0.3372,0.2847,0.2384,0.2067,0.1578,0.15,0.1906,0.1471,0.107,0.0786,0.0707,0.0629,0.0471,0.0314,0.0196,0.0196,0.0079,0.0,0.0,0.0,-0.0145,-0.0499,-0.0987,-0.1407,-0.1777,-0.3039,-0.3758,-0.3917,-0.4643,-0.5242,-0.5361,-0.5876,-0.6554,-0.7017,-0.774,-0.8428,-0.9074,-0.9229,-0.94,-0.9752,-1.038,-1.0948,-1.1666,-1.265,-1.3421,-1.3477,-1.363,-1.3394,-1.2775,-1.2679,-1.2613,-1.2328,-1.2228,-1.2451,-1.2757,-1.2895,-1.3099,-1.3788,-1.3922,-1.4078,-1.4641,-1.52,-1.5792,-1.6302,-1.714,-1.7799,-1.797,-1.8305,-1.8567,-1.8916,-1.9058,-1.92,-1.9244,-1.9452,-1.9649,-1.9681,-2.0323,-2.0925,1.8781,1.8781,1.8781,1.8403,1.7804,1.802,1.7671,1.7016,1.7206,1.7034,1.6588,1.65,1.6161,1.565,1.5592,1.5042,1.3971,1.251,1.1443,1.0583,0.9686,0.8988,0.8575,0.8309,0.811,0.8008,0.7951,0.7873,0.7786,0.7552,0.731,0.7179,0.692,0.6408,0.5786,0.5583,0.5118,0.4261,0.36,0.3214,0.2899,0.2391,0.2352,0.2743,0.2391,0.2038,0.1842,0.1674,0.1513,0.1355,0.1078,0.0885,0.093,0.0625,0.0427,0.0379,0.0,0.0,0.0,-0.0557,-0.0865,-0.0935,-0.2102,-0.2961,-0.313,-0.3989,-0.4554,-0.4972,-0.5494,-0.6044,-0.6366,-0.6773,-0.749,-0.8518,-0.8854,-0.9055,-0.9434,-0.9779,-1.0315,-1.106,-1.1794,-1.2357,-1.2674,-1.2765,-1.2513,-1.1949,-1.1977,-1.1849,-1.1578,-1.1679,-1.1896,-1.2389,-1.2742,-1.3025,-1.35,-1.3673,-1.3673,-1.4141,-1.4731,-1.5362,-1.599,-1.6906,-1.755,-1.7749,-1.7988,-1.8239,-1.8436,-1.8567,-1.8643,-1.8695,-1.8927,-1.9233,-1.9522,-1.9976,-2.0513,1.8874,1.892,1.8827,1.8659,1.8282,1.8377,1.8045,1.7497,1.7504,1.722,1.6742,1.6668,1.6307,1.5949,1.5796,1.5616,1.5083,1.4048,1.3014,1.1975,1.0994,1.0243,0.9719,0.9101,0.8576,0.8258,0.7942,0.7955,0.8078,0.7708,0.7472,0.739,0.7219,0.6888,0.6602,0.6444,0.6015,0.5196,0.4846,0.4494,0.3908,0.3638,0.3636,0.3793,0.3713,0.3752,0.375,0.3259,0.2887,0.2838,0.2342,0.2179,0.2048,0.1622,0.1278,0.1097,0.048,0.0,0.0,0.0,0.0,0.0,-0.0812,-0.1638,-0.2184,-0.3017,-0.3837,-0.4385,-0.4843,-0.5246,-0.5734,-0.5906,-0.6506,-0.7776,-0.8425,-0.8684,-0.8926,-0.9396,-1.0034,-1.0613,-1.0921,-1.0947,-1.1237,-1.1563,-1.1556,-1.1488,-1.1483,-1.143,-1.1243,-1.1445,-1.2104,-1.2405,-1.2497,-1.272,-1.3147,-1.348,-1.3489,-1.364,-1.4249,-1.4844,-1.5362,-1.6151,-1.6827,-1.7127,-1.7512,-1.777,-1.7966,-1.8108,-1.8283,-1.837,-1.8622,-1.8818,-1.9228,-1.9627,-2.0117,2.0439,1.9849,1.9857,1.9241,1.8372,1.834,1.8094,1.7736,1.7575,1.7303,1.6953,1.6524,1.6119,1.5797,1.5619,1.5491,1.5389,1.4999,1.4265,1.3154,1.2052,1.1407,1.1001,1.0447,0.9973,0.9642,0.916,0.8899,0.8723,0.8276,0.7888,0.7681,0.743,0.7222,0.6999,0.6718,0.6367,0.6054,0.5354,0.4846,0.4572,0.4066,0.4066,0.4574,0.4613,0.4885,0.5431,0.4269,0.3596,0.3552,0.3073,0.2671,0.2352,0.2131,0.1714,0.1207,0.1034,0.0582,0.0,0.0,0.0,0.0,-0.0753,-0.1231,-0.1555,-0.2612,-0.3418,-0.3804,-0.4297,-0.48,-0.5039,-0.5418,-0.618,-0.7676,-0.7888,-0.8117,-0.8511,-0.8894,-0.9402,-0.9964,-1.0091,-1.0345,-1.0832,-1.1122,-1.1108,-1.0755,-1.0912,-1.0937,-1.0383,-1.0453,-1.0611,-1.1014,-1.1545,-1.2297,-1.2697,-1.3064,-1.3186,-1.3368,-1.3911,-1.4449,-1.4932,-1.54,-1.6036,-1.6616,-1.7004,-1.7316,-1.7529,-1.7671,-1.7857,-1.7933,-1.8032,-1.837,-1.8807,-1.925,-1.9714,2.1338,2.0791,2.043,2.0039,1.9468,1.8847,1.855,1.8458,1.7976,1.7546,1.7224,1.6866,1.6405,1.598,1.5809,1.5575,1.5445,1.5389,1.5041,1.4265,1.3288,1.2559,1.2031,1.109,1.0538,1.0124,0.9541,0.9347,0.9496,0.8595,0.8139,0.8179,0.7788,0.7427,0.72,0.6949,0.6795,0.6598,0.5977,0.5586,0.547,0.504,0.4963,0.5434,0.5473,0.5747,0.6183,0.5276,0.467,0.4519,0.4167,0.3791,0.3364,0.3097,0.2643,0.2101,0.1502,0.0969,0.0465,0.0,0.0,0.0,-0.0513,-0.0925,-0.1184,-0.212,-0.2648,-0.3338,-0.3714,-0.4158,-0.452,-0.4835,-0.5627,-0.6726,-0.7003,-0.7396,-0.7987,-0.8447,-0.8861,-0.9306,-0.9434,-0.969,-1.0066,-1.032,-1.0376,-0.9977,-1.0129,-1.0256,-0.9638,-0.9702,-1.0047,-1.0453,-1.1083,-1.174,-1.2243,-1.2582,-1.2836,-1.3194,-1.3588,-1.4091,-1.4558,-1.4942,-1.5459,-1.6247,-1.6751,-1.706,-1.7286,-1.7359,-1.7514,-1.7486,-1.7545,-1.789,-1.8338,-1.8796,-1.928,2.1828,2.165,2.0836,2.0962,2.1257,1.9778,1.9385,1.9601,1.8815,1.8149,1.7787,1.7473,1.7003,1.645,1.6239,1.5913,1.5516,1.5389,1.5389,1.509,1.4433,1.3719,1.2848,1.1547,1.0823,1.0357,0.9527,0.9517,1.0117,0.8932,0.8308,0.889,0.8392,0.7781,0.7671,0.7373,0.7326,0.7092,0.6788,0.6637,0.6525,0.6331,0.6183,0.6222,0.6183,0.6222,0.6257,0.6099,0.5998,0.5801,0.5422,0.5182,0.494,0.437,0.381,0.3379,0.2052,0.1488,0.1085,0.0552,0.0,0.0,0.0,-0.027,-0.0877,-0.1214,-0.179,-0.2728,-0.3163,-0.3531,-0.4051,-0.4353,-0.4706,-0.5219,-0.6075,-0.6798,-0.7456,-0.8079,-0.8474,-0.8732,-0.8802,-0.8899,-0.9177,-0.9268,-0.9268,-0.9274,-0.9428,-0.9498,-0.9402,-0.9594,-1.0104,-1.0421,-1.0604,-1.1014,-1.1452,-1.2151,-1.2398,-1.2705,-1.3133,-1.364,-1.4151,-1.4529,-1.4971,-1.5758,-1.6389,-1.6729,-1.6994,-1.7043,-1.7155,-1.7277,-1.7396,-1.7573,-1.7912,-1.8425,-1.8796,2.3333,2.2702,2.2482,2.2129,2.1695,2.1114,2.1016,2.1015,1.9857,1.9278,1.8916,1.7986,1.7266,1.6726,1.6413,1.6055,1.5646,1.545,1.5389,1.5347,1.5215,1.4655,1.394,1.3081,1.2467,1.2069,1.1053,1.0757,1.0796,0.9956,0.9636,0.966,0.9505,0.9359,0.9218,0.8955,0.8613,0.808,0.7817,0.7326,0.6753,0.6602,0.6451,0.63,0.63,0.63,0.63,0.63,0.617,0.5883,0.5777,0.5616,0.5401,0.4977,0.446,0.376,0.3237,0.259,0.1969,0.1266,0.0903,0.0867,0.0381,-0.0069,-0.027,-0.0807,-0.1244,-0.1846,-0.2482,-0.3251,-0.3522,-0.3995,-0.4364,-0.4661,-0.558,-0.6564,-0.7228,-0.7657,-0.7949,-0.8447,-0.8576,-0.8797,-0.9113,-0.93,-0.9326,-0.9422,-0.9492,-0.946,-0.9268,-0.9242,-0.9594,-0.962,-0.9805,-1.0218,-1.0724,-1.1459,-1.1965,-1.2236,-1.2636,-1.3133,-1.364,-1.4121,-1.4677,-1.5352,-1.5835,-1.6236,-1.6446,-1.6609,-1.6807,-1.7032,-1.7132,-1.7262,-1.7701,-1.8196,-1.8425,2.4262,2.3637,2.328,2.3018,2.2765,2.2059,2.1917,2.2003,2.1059,2.0288,1.9836,1.9107,1.8017,1.6947,1.6661,1.6084,1.5478,1.5357,1.5334,1.5323,1.535,1.4986,1.4422,1.3989,1.3593,1.3008,1.2088,1.1651,1.1415,1.0683,1.028,1.0317,1.0193,1.0024,0.9798,0.9782,0.9518,0.9064,0.8761,0.8275,0.7778,0.7288,0.7022,0.6795,0.6606,0.6412,0.6338,0.63,0.6219,0.6079,0.6017,0.5894,0.5698,0.5491,0.5092,0.4467,0.4024,0.3437,0.2904,0.2135,0.1558,0.1229,0.0701,0.0383,0.0034,-0.0441,-0.0673,-0.1209,-0.1913,-0.2514,-0.3218,-0.3861,-0.4233,-0.4434,-0.5024,-0.5811,-0.6498,-0.7125,-0.7619,-0.8019,-0.8349,-0.8608,-0.9049,-0.9081,-0.9139,-0.9204,-0.921,-0.9145,-0.9017,-0.899,-0.8952,-0.9043,-0.9236,-0.9646,-1.0028,-1.0661,-1.1483,-1.1763,-1.2297,-1.2736,-1.3224,-1.3731,-1.4142,-1.4697,-1.5216,-1.568,-1.5902,-1.62,-1.6542,-1.674,-1.6814,-1.7041,-1.7435,-1.7803,-1.802,2.4733,2.4454,2.3594,2.3734,2.41,2.2765,2.258,2.2974,2.2233,2.1382,2.0738,2.0413,1.9068,1.7187,1.7063,1.6268,1.5292,1.5328,1.53,1.5298,1.53,1.508,1.478,1.4441,1.3992,1.3361,1.2486,1.2336,1.2144,1.1041,1.0787,1.1095,1.0663,1.0304,1.0432,1.0308,1.0121,0.997,0.9707,0.9372,0.8974,0.8315,0.785,0.7633,0.7022,0.6718,0.6528,0.6412,0.6257,0.6296,0.63,0.6167,0.5954,0.5885,0.5704,0.5371,0.4654,0.4097,0.3737,0.3067,0.2349,0.1746,0.1451,0.0983,0.0349,0.0034,-0.0339,-0.0808,-0.1042,-0.1913,-0.3017,-0.3792,-0.4131,-0.4267,-0.44,-0.4628,-0.5282,-0.6498,-0.7391,-0.7559,-0.8117,-0.8447,-0.8517,-0.8517,-0.8544,-0.8797,-0.8765,-0.8528,-0.8468,-0.8436,-0.8501,-0.8598,-0.8856,-0.9177,-0.9492,-0.9837,-1.0692,-1.1351,-1.1981,-1.2482,-1.2889,-1.3307,-1.361,-1.4022,-1.4451,-1.4923,-1.5342,-1.569,-1.6132,-1.6485,-1.6627,-1.6768,-1.7002,-1.7327,-1.7593,2.4871,2.4775,2.4401,2.4315,2.4411,2.41,2.4003,2.41,2.3193,2.2566,2.2145,2.0953,1.9845,1.8924,1.76,1.6718,1.6283,1.5761,1.5536,1.5517,1.512,1.5155,1.5025,1.4732,1.4458,1.4085,1.3699,1.3365,1.3089,1.2763,1.2582,1.231,1.203,1.1992,1.1688,1.1552,1.1403,1.095,1.0732,1.0314,0.9675,0.908,0.8665,0.8509,0.7783,0.7326,0.7099,0.6644,0.6338,0.6296,0.63,0.6257,0.617,0.5986,0.5841,0.5682,0.5417,0.5035,0.4706,0.3999,0.337,0.3022,0.1994,0.1111,0.1053,0.0384,0.0,-0.0339,-0.0773,-0.1612,-0.2817,-0.3284,-0.3692,-0.4064,-0.4267,-0.4364,-0.4694,-0.5778,-0.6761,-0.7423,-0.8019,-0.8517,-0.8517,-0.8517,-0.8484,-0.8452,-0.8182,-0.7879,-0.7814,-0.7847,-0.7879,-0.7912,-0.8404,-0.8694,-0.8914,-0.9326,-1.0155,-1.0818,-1.1413,-1.2042,-1.2451,-1.2797,-1.3025,-1.3299,-1.3631,-1.4103,-1.4667,-1.5235,-1.5671,-1.6028,-1.641,-1.6637,-1.6821,-1.7038,-1.7177,2.5126,2.4903,2.4733,2.4625,2.4497,2.4507,2.4507,2.436,2.3813,2.3189,2.2476,2.1078,2.0058,1.941,1.8054,1.7204,1.65,1.5693,1.5231,1.5165,1.4906,1.4944,1.5082,1.488,1.4691,1.4581,1.4379,1.4064,1.3713,1.3464,1.3052,1.293,1.2708,1.237,1.2331,1.2305,1.204,1.1744,1.1558,1.1217,1.0728,1.0133,0.9379,0.9025,0.8434,0.8065,0.7644,0.7179,0.6847,0.6641,0.6444,0.6296,0.63,0.6177,0.6095,0.6003,0.5828,0.5632,0.5277,0.4934,0.435,0.3786,0.2857,0.2263,0.1686,0.0936,0.0582,0.0372,-0.0168,-0.1042,-0.2114,-0.2982,-0.3387,-0.3725,-0.4131,-0.4267,-0.4467,-0.5249,-0.6166,-0.6892,-0.7559,-0.8084,-0.8349,-0.8284,-0.8149,-0.7954,-0.7819,-0.7489,-0.7022,-0.7022,-0.7027,-0.719,-0.7749,-0.8139,-0.8366,-0.8877,-0.9709,-1.0243,-1.0654,-1.132,-1.1856,-1.2135,-1.2421,-1.2789,-1.3246,-1.348,-1.4013,-1.4588,-1.5177,-1.5652,-1.6028,-1.641,-1.6658,-1.6768,-1.6875,2.5348,2.4999,2.4956,2.4786,2.4583,2.4583,2.454,2.4435,2.4146,2.3539,2.2539,2.1329,2.0583,1.9641,1.8664,1.7601,1.6564,1.5506,1.5096,1.5242,1.4846,1.4892,1.4955,1.4955,1.4801,1.4607,1.4686,1.4451,1.4085,1.3641,1.3542,1.3216,1.2756,1.254,1.2439,1.2305,1.2268,1.2157,1.2046,1.1972,1.1792,1.1187,1.0338,0.9689,0.9297,0.8968,0.8443,0.7922,0.7475,0.7261,0.6757,0.6517,0.6423,0.6335,0.6296,0.6293,0.6083,0.5915,0.5736,0.5553,0.5057,0.4026,0.3817,0.3406,0.2487,0.1756,0.1293,0.0878,0.037,-0.0337,-0.1042,-0.2112,-0.2882,-0.3284,-0.3828,-0.4167,-0.4331,-0.4788,-0.5378,-0.6166,-0.6859,-0.7423,-0.7722,-0.7787,-0.7652,-0.7489,-0.7321,-0.706,-0.6531,-0.6231,-0.6235,-0.6433,-0.6957,-0.7619,-0.7912,-0.8436,-0.9268,-0.9805,-1.0148,-1.078,-1.1421,-1.2019,-1.2398,-1.2582,-1.292,-1.3155,-1.345,-1.3992,-1.4588,-1.5177,-1.5681,-1.6085,-1.6304,-1.6472,-1.6585,2.5559,2.5475,2.5242,2.5031,2.4861,2.4828,2.47,2.4529,2.4426,2.4124,2.3523,2.2522,2.163,2.0995,1.9691,1.8455,1.7329,1.6234,1.5701,1.5793,1.5257,1.498,1.5173,1.5068,1.4906,1.4765,1.4889,1.4955,1.4853,1.4778,1.4156,1.3717,1.3343,1.3047,1.2591,1.2415,1.2305,1.2305,1.2231,1.2231,1.2081,1.1724,1.1257,1.0677,1.0401,1.0053,0.959,0.8647,0.803,0.8038,0.7537,0.7182,0.6971,0.6614,0.6353,0.6257,0.6257,0.6115,0.5931,0.5812,0.5579,0.5081,0.4481,0.398,0.3336,0.2636,0.1981,0.125,0.0673,0.0,-0.0807,-0.161,-0.2315,-0.2885,-0.3456,-0.3861,-0.3995,-0.4225,-0.4589,-0.5345,-0.6034,-0.6728,-0.7027,-0.7158,-0.6961,-0.6662,-0.6363,-0.6104,-0.5679,-0.551,-0.5507,-0.5771,-0.6137,-0.6863,-0.7456,-0.8117,-0.8797,-0.9396,-0.9869,-1.0528,-1.1226,-1.205,-1.2498,-1.259,-1.2652,-1.2797,-1.3125,-1.3519,-1.3992,-1.4617,-1.5177,-1.5768,-1.6007,-1.6224,-1.636,2.5696,2.5559,2.5475,2.5295,2.5073,2.5073,2.4903,2.4712,2.4471,2.4158,2.3556,2.2497,2.2083,2.1907,2.069,1.9492,1.8583,1.7474,1.6817,1.6522,1.5996,1.552,1.5452,1.517,1.5046,1.4919,1.4977,1.5017,1.4948,1.4851,1.4527,1.4059,1.3638,1.3151,1.2709,1.2489,1.2415,1.2342,1.2305,1.2305,1.2305,1.2028,1.1827,1.1467,1.1321,1.1059,1.0484,0.9894,0.9244,0.9008,0.8414,0.8069,0.7717,0.7221,0.6592,0.6388,0.6296,0.6257,0.6138,0.6058,0.5868,0.5445,0.4965,0.4629,0.4195,0.3549,0.2656,0.172,0.1242,0.0672,-0.0034,-0.0806,-0.1276,-0.1779,-0.2584,-0.3188,-0.3422,-0.3692,-0.409,-0.4583,-0.5276,-0.5935,-0.6494,-0.6498,-0.6231,-0.5903,-0.5507,-0.5213,-0.4888,-0.4888,-0.4951,-0.515,-0.5547,-0.6301,-0.6961,-0.7554,-0.8214,-0.8856,-0.9454,-1.011,-1.0773,-1.1507,-1.2143,-1.2521,-1.2552,-1.2621,-1.2858,-1.3246,-1.3631,-1.4082,-1.4824,-1.5468,-1.5757,-1.5985,-1.6149,2.5822,2.5654,2.5644,2.5506,2.5327,2.5285,2.5158,2.4914,2.4556,2.4232,2.3753,2.2493,2.2221,2.2401,2.1391,2.0303,1.9971,1.8807,1.7915,1.7405,1.6818,1.639,1.5897,1.5278,1.4985,1.4937,1.4934,1.4695,1.4761,1.4685,1.4424,1.4098,1.3644,1.3208,1.2815,1.2716,1.2562,1.2415,1.2372,1.2335,1.2305,1.2291,1.2131,1.1811,1.1928,1.1721,1.1161,1.068,1.0384,0.998,0.9441,0.894,0.8738,0.8074,0.7385,0.6794,0.6465,0.6374,0.6528,0.6293,0.6043,0.561,0.5568,0.5297,0.4817,0.4077,0.3291,0.2179,0.1643,0.1276,0.0539,-0.0101,-0.0437,-0.0773,-0.1646,-0.2485,-0.2785,-0.3119,-0.3522,-0.4051,-0.4646,-0.5074,-0.5496,-0.5646,-0.5352,-0.5282,-0.4921,-0.4855,-0.4595,-0.4498,-0.4528,-0.4628,-0.502,-0.5804,-0.6429,-0.6896,-0.7554,-0.8177,-0.8775,-0.9404,-1.0104,-1.0836,-1.1531,-1.2328,-1.256,-1.2652,-1.2797,-1.295,-1.3307,-1.3812,-1.4617,-1.5167,-1.5536,-1.5808,-1.5994,2.5895,2.5853,2.5853,2.5738,2.5559,2.5559,2.538,2.5147,2.4904,2.4546,2.4189,2.3318,2.2764,2.2314,2.1271,2.0566,2.013,1.9516,1.8943,1.8668,1.779,1.7269,1.6874,1.5817,1.545,1.5342,1.5247,1.4835,1.4759,1.4629,1.4406,1.4143,1.3881,1.3508,1.3228,1.3083,1.2746,1.2599,1.2599,1.2489,1.2335,1.2305,1.2271,1.2221,1.2184,1.2104,1.1747,1.1341,1.1052,1.1039,1.0509,0.9931,0.9452,0.9464,0.8906,0.8018,0.7185,0.6606,0.7065,0.6679,0.6129,0.5801,0.5731,0.5501,0.5048,0.4492,0.3792,0.2956,0.2315,0.1644,0.0975,0.0168,-0.0202,-0.0437,-0.084,-0.1646,-0.2114,-0.2581,-0.3017,-0.3392,-0.3941,-0.4091,-0.4364,-0.445,-0.4467,-0.4431,-0.4398,-0.4364,-0.4334,-0.43,-0.4303,-0.4431,-0.4595,-0.5348,-0.5833,-0.633,-0.6994,-0.7591,-0.8093,-0.8762,-0.9673,-1.0494,-1.1423,-1.2089,-1.2328,-1.256,-1.2683,-1.2828,-1.3003,-1.3511,-1.4231,-1.4824,-1.5352,-1.5607,-1.5942,2.6157,2.5906,2.5895,2.5853,2.577,2.577,2.5644,2.5422,2.5338,2.5104,2.4619,2.376,2.291,2.2133,2.1671,2.1494,2.1185,2.0648,2.0226,1.9973,1.9226,1.8718,1.8296,1.7583,1.6949,1.6584,1.6363,1.5923,1.5389,1.4926,1.4724,1.4767,1.4275,1.3918,1.3849,1.3666,1.3477,1.3324,1.3178,1.2886,1.2556,1.2372,1.2298,1.2305,1.2298,1.2254,1.2144,1.1966,1.1736,1.1685,1.1263,1.0927,1.048,1.0211,0.9799,0.9857,0.8576,0.7812,0.7446,0.6795,0.6235,0.5891,0.5779,0.5632,0.5309,0.496,0.4459,0.3787,0.305,0.2315,0.1579,0.0907,0.0638,0.0336,-0.0168,-0.0571,-0.1241,-0.2044,-0.2506,-0.288,-0.3156,-0.3273,-0.3456,-0.3727,-0.3944,-0.4128,-0.4161,-0.4164,-0.4197,-0.4233,-0.4267,-0.4334,-0.4531,-0.4858,-0.5279,-0.5734,-0.6531,-0.7102,-0.7332,-0.8138,-0.9307,-1.0248,-1.1006,-1.1571,-1.1794,-1.2058,-1.2436,-1.2683,-1.2828,-1.3277,-1.3782,-1.435,-1.4942,-1.5786,-1.5979,2.6593,2.6406,2.6274,2.6027,2.5762,2.5948,2.5823,2.5501,2.5407,2.5335,2.5029,2.4069,2.2943,2.214,2.2136,2.2017,2.178,2.1807,2.1454,2.0972,2.0537,2.0061,1.9412,1.8891,1.8382,1.8341,1.7605,1.7043,1.6439,1.5928,1.5701,1.5524,1.5207,1.4788,1.468,1.4684,1.4615,1.415,1.3856,1.3432,1.3019,1.2726,1.2618,1.2544,1.2483,1.2447,1.2453,1.2285,1.215,1.2054,1.1899,1.1543,1.1114,1.0869,1.0665,1.0581,0.9701,0.902,0.8263,0.7437,0.6487,0.6014,0.5739,0.5627,0.5453,0.5395,0.509,0.4253,0.3518,0.2815,0.2179,0.1443,0.1075,0.0806,0.0571,0.0302,-0.0067,-0.0972,-0.1641,-0.1967,-0.2251,-0.2469,-0.2675,-0.3074,-0.3387,-0.3751,-0.3861,-0.3928,-0.3997,-0.4097,-0.4133,-0.4167,-0.4367,-0.4561,-0.4758,-0.5279,-0.6038,-0.6596,-0.6866,-0.7711,-0.9003,-0.9667,-1.0184,-1.0656,-1.1156,-1.1577,-1.1926,-1.2274,-1.2621,-1.3011,-1.3428,-1.3902,-1.4549,-1.5468,-1.5864,2.7455,2.7737,2.7298,2.6404,2.5362,2.6063,2.5914,2.5259,2.5014,2.515,2.5302,2.4345,2.3242,2.2401,2.2209,2.2144,2.1807,2.1807,2.1683,2.1405,2.0972,2.0624,2.0178,1.962,1.9011,1.8896,1.8641,1.8317,1.7893,1.7635,1.6588,1.5381,1.5976,1.6046,1.5884,1.5736,1.5593,1.5117,1.4684,1.4151,1.3767,1.3444,1.326,1.3114,1.2975,1.2855,1.2834,1.2601,1.2452,1.2365,1.2238,1.1889,1.1488,1.1477,1.1386,1.0974,1.067,1.0055,0.9353,0.8183,0.7078,0.6339,0.585,0.571,0.5612,0.5428,0.5024,0.4456,0.3851,0.305,0.228,0.1577,0.131,0.1041,0.084,0.0672,0.0336,-0.0034,-0.0671,-0.1039,-0.1364,-0.1678,-0.1801,-0.2161,-0.2783,-0.3141,-0.3694,-0.3763,-0.3758,-0.3861,-0.3928,-0.3997,-0.4167,-0.43,-0.4334,-0.4794,-0.5315,-0.5946,-0.6391,-0.7535,-0.8907,-0.9299,-0.9437,-1.0059,-1.0591,-1.1007,-1.1445,-1.1864,-1.2274,-1.2644,-1.3094,-1.3692,-1.4147,-1.479,-1.5089,2.8262,2.8353,2.807,2.7185,2.5966,2.6274,2.6023,2.5458,2.5143,2.5046,2.5137,2.4626,2.3812,2.2974,2.2702,2.2439,2.2029,2.1987,2.1911,2.1759,2.1443,2.13,2.1046,2.0843,2.0629,2.037,2.0178,1.9744,1.9221,1.9242,1.8742,1.7924,1.7138,1.6632,1.651,1.6519,1.6334,1.6123,1.5652,1.5191,1.4354,1.4101,1.3873,1.3689,1.365,1.3738,1.38,1.3317,1.312,1.2915,1.2586,1.211,1.1693,1.1863,1.1696,1.1352,1.1189,1.0809,1.007,0.8927,0.7856,0.715,0.6513,0.6085,0.6017,0.5686,0.5362,0.4824,0.4289,0.3485,0.2883,0.2147,0.1646,0.1276,0.1041,0.0907,0.0706,0.037,0.0134,-0.03,-0.0724,-0.1106,-0.1168,-0.1231,-0.1907,-0.2568,-0.3149,-0.3529,-0.3391,-0.3422,-0.3422,-0.3558,-0.3727,-0.403,-0.4097,-0.4295,-0.4556,-0.5256,-0.5973,-0.7099,-0.8254,-0.8554,-0.8779,-0.9417,-0.9958,-1.0275,-1.078,-1.1445,-1.195,-1.2336,-1.2972,-1.3662,-1.4031,-1.4295,-1.4412,2.9242,2.942,2.898,2.7755,2.6327,2.6698,2.6395,2.5634,2.524,2.4996,2.4816,2.4851,2.4406,2.3613,2.3203,2.2928,2.2467,2.2206,2.2018,2.1883,2.1807,2.1807,2.1807,2.1711,2.1469,2.1578,2.1474,2.0962,2.042,2.0799,2.012,1.9127,1.8239,1.7832,1.7322,1.7144,1.6994,1.6906,1.6613,1.6172,1.5266,1.5027,1.4816,1.4628,1.4532,1.4537,1.4539,1.4178,1.3702,1.3426,1.3026,1.2501,1.2157,1.1942,1.1835,1.1708,1.1516,1.1169,1.0411,0.9265,0.8373,0.7733,0.7274,0.6921,0.6646,0.6178,0.5885,0.5723,0.4987,0.4156,0.3518,0.2783,0.2114,0.1746,0.1378,0.121,0.1042,0.0772,0.0633,0.0363,0.0033,-0.0164,-0.0328,-0.0394,-0.109,-0.1672,-0.2044,-0.2385,-0.235,-0.2449,-0.275,-0.2919,-0.3188,-0.3525,-0.3861,-0.4059,-0.4289,-0.4981,-0.5709,-0.6416,-0.7265,-0.7633,-0.8195,-0.8893,-0.9332,-0.9582,-0.999,-1.0559,-1.1288,-1.2058,-1.2697,-1.3338,-1.3704,-1.3927,-1.3997,3.0448,3.1076,3.0065,2.812,2.6166,2.7397,2.7149,2.5811,2.5233,2.4862,2.4635,2.4934,2.4756,2.4064,2.3544,2.3163,2.2828,2.2362,2.2149,2.2063,2.1921,2.1845,2.1807,2.1807,2.1769,2.1731,2.1617,2.1464,2.1349,2.1205,2.0733,2.0294,1.9584,1.9093,1.8553,1.8134,1.7847,1.7624,1.725,1.6868,1.6421,1.6096,1.5918,1.5735,1.5528,1.5453,1.5506,1.5029,1.4557,1.415,1.3637,1.3071,1.2485,1.2146,1.1991,1.1946,1.1617,1.1394,1.1191,0.9451,0.8677,0.8394,0.8049,0.7783,0.7545,0.7092,0.6539,0.6309,0.5451,0.4758,0.409,0.342,0.285,0.2315,0.1981,0.168,0.1511,0.121,0.1033,0.0929,0.1002,0.1006,0.0771,0.0436,-0.0268,-0.0772,-0.1041,-0.1209,-0.131,-0.1612,-0.198,-0.2147,-0.2417,-0.2986,-0.3355,-0.3692,-0.4056,-0.4719,-0.5342,-0.5986,-0.6572,-0.709,-0.769,-0.8339,-0.863,-0.878,-0.9166,-0.9576,-1.0465,-1.1389,-1.2243,-1.2858,-1.3268,-1.3532,-1.3535,3.0879,3.0771,3.0018,2.8959,2.7873,2.84,2.794,2.6712,2.597,2.5199,2.4618,2.4683,2.4443,2.3911,2.3666,2.3351,2.2858,2.2724,2.2478,2.2289,2.2063,2.2025,2.1949,2.1873,2.1807,2.1769,2.1693,2.1693,2.1645,2.1502,2.1346,2.0989,2.0145,1.937,1.8662,1.8208,1.794,1.7886,1.7707,1.7475,1.7001,1.6845,1.6727,1.6607,1.6431,1.6465,1.6624,1.6018,1.5525,1.5046,1.4537,1.375,1.3171,1.2799,1.2358,1.2257,1.1961,1.1438,1.1142,1.0221,0.9766,0.9365,0.8908,0.8647,0.8517,0.7442,0.7022,0.6732,0.6046,0.5385,0.4619,0.4417,0.3915,0.3247,0.2848,0.2484,0.2182,0.1714,0.1408,0.1374,0.1445,0.1445,0.131,0.1075,0.047,0.0034,-0.0235,-0.0504,-0.0638,-0.0974,-0.1309,-0.1343,-0.1611,-0.2281,-0.2817,-0.3155,-0.3591,-0.4156,-0.4755,-0.5312,-0.5906,-0.647,-0.706,-0.7619,-0.7814,-0.8009,-0.8554,-0.9166,-0.9862,-1.0717,-1.1569,-1.2274,-1.2728,-1.2915,-1.2972,3.139,3.0941,3.0381,2.9935,2.9566,2.9425,2.8626,2.7358,2.6542,2.5657,2.4836,2.4798,2.4569,2.4105,2.3738,2.3558,2.3015,2.2757,2.2665,2.2478,2.2289,2.2176,2.2063,2.1949,2.1883,2.1845,2.1807,2.1769,2.1769,2.1693,2.1407,2.094,2.0239,1.9491,1.8853,1.8375,1.8008,1.7964,1.7896,1.7803,1.7514,1.7412,1.7355,1.7283,1.7245,1.7287,1.7332,1.7063,1.6524,1.6044,1.5401,1.4645,1.4229,1.3564,1.3042,1.2871,1.227,1.162,1.1019,1.0779,1.034,1.0136,0.9709,0.948,0.9288,0.8479,0.7804,0.7354,0.6736,0.6079,0.5481,0.5312,0.4746,0.4079,0.3716,0.3351,0.305,0.2582,0.2249,0.2182,0.2182,0.2114,0.1947,0.1546,0.1176,0.084,0.0504,0.0269,0.0067,-0.0235,-0.0538,-0.0671,-0.0873,-0.1509,-0.2147,-0.2684,-0.3121,-0.3627,-0.4159,-0.4691,-0.515,-0.5708,-0.6301,-0.683,-0.706,-0.7419,-0.8107,-0.878,-0.948,-1.018,-1.0905,-1.1577,-1.212,-1.2373,-1.2516,3.1977,3.1667,3.1209,3.0947,3.0792,3.021,2.9003,2.7366,2.6882,2.6007,2.4923,2.5283,2.4896,2.437,2.3903,2.3585,2.3438,2.2956,2.2783,2.2665,2.2478,2.2327,2.2214,2.2138,2.2025,2.1911,2.1911,2.2063,2.1845,2.1769,2.1449,2.0828,2.0244,1.9585,1.8994,1.8497,1.812,1.8076,1.8066,1.7993,1.7837,1.7876,1.7823,1.7755,1.7707,1.7682,1.7657,1.7486,1.7141,1.6751,1.635,1.5956,1.5319,1.4326,1.4041,1.3502,1.2629,1.1731,1.1049,1.0873,1.0796,1.0613,1.0474,1.0352,1.0009,0.9358,0.8748,0.8194,0.7642,0.6961,0.6375,0.591,0.5382,0.4948,0.4583,0.4317,0.4082,0.3716,0.3384,0.3284,0.3316,0.3247,0.3015,0.2649,0.2047,0.1713,0.141,0.1143,0.0907,0.0706,0.0403,0.0034,-0.0269,-0.0739,-0.1376,-0.2047,-0.2618,-0.3088,-0.3529,-0.4028,-0.4489,-0.4915,-0.5444,-0.5906,-0.6268,-0.6826,-0.7679,-0.8431,-0.9102,-0.9735,-1.0243,-1.1038,-1.1646,-1.2081,-1.232,3.173,3.0845,3.1106,3.09,3.0385,3.0179,2.9246,2.7907,2.7355,2.6419,2.5146,2.4719,2.4571,2.4149,2.3504,2.3268,2.3127,2.304,2.2959,2.2815,2.2703,2.259,2.2478,2.2365,2.2214,2.2252,2.2365,2.2365,2.1949,2.1835,2.1358,2.0581,2.0221,1.9671,1.9065,1.8552,1.8377,1.8245,1.8202,1.8144,1.8076,1.8042,1.8042,1.8008,1.794,1.7896,1.7872,1.7872,1.7588,1.7407,1.6941,1.655,1.6263,1.5477,1.4909,1.3545,1.2567,1.1698,1.1202,1.1191,1.118,1.1023,1.0996,1.0868,1.0475,0.9958,0.944,0.8882,0.849,0.7887,0.7241,0.6699,0.6272,0.591,0.5481,0.508,0.4845,0.4613,0.4284,0.4184,0.4248,0.4015,0.3849,0.3516,0.2948,0.2649,0.2316,0.2016,0.1579,0.1344,0.1076,0.0672,0.0302,-0.0201,-0.0739,-0.141,-0.198,-0.2551,-0.2989,-0.3397,-0.383,-0.4259,-0.4622,-0.5117,-0.5679,-0.6502,-0.7391,-0.7984,-0.8281,-0.8865,-0.9384,-1.0313,-1.1139,-1.1608,-1.205,3.1689,3.096,3.1238,3.1074,3.065,3.0574,2.9904,2.8884,2.8081,2.7087,2.6062,2.5396,2.4648,2.4093,2.3666,2.3346,2.3023,2.3023,2.3001,2.2964,2.29,2.2777,2.2665,2.259,2.2402,2.2478,2.2553,2.2553,2.2258,2.1983,2.1527,2.0611,2.0278,1.9644,1.9124,1.8828,1.8694,1.8539,1.8405,1.8313,1.8212,1.8144,1.8144,1.811,1.8076,1.8008,1.8008,1.8008,1.793,1.7852,1.7398,1.7295,1.7063,1.6523,1.5455,1.4145,1.3258,1.2422,1.1801,1.1407,1.1312,1.1234,1.1305,1.1128,1.0926,1.0501,0.9976,0.9464,0.9167,0.8805,0.8186,0.7619,0.7232,0.6872,0.6342,0.5844,0.558,0.5382,0.5183,0.5054,0.4885,0.4649,0.4414,0.4146,0.3946,0.3716,0.3284,0.2783,0.2182,0.1546,0.1311,0.1041,0.0706,0.0336,-0.0201,-0.0772,-0.1376,-0.1946,-0.2484,-0.2889,-0.3228,-0.3629,-0.4092,-0.4655,-0.5286,-0.5968,-0.6576,-0.6892,-0.7232,-0.7908,-0.8564,-0.92,-1.0203,-1.1202,-1.1639,3.179,3.1526,3.1529,3.1392,3.1347,3.127,3.0832,3.0121,2.8987,2.8053,2.7328,2.6618,2.5487,2.4516,2.424,2.3669,2.3313,2.3139,2.3139,2.3038,2.3001,2.2889,2.2815,2.2703,2.259,2.244,2.2553,2.2916,2.2966,2.2516,2.1711,2.0846,2.0387,1.9952,1.9634,1.9341,1.9198,1.9065,1.8774,1.8549,1.8448,1.8381,1.8313,1.8269,1.8178,1.8076,1.8076,1.8042,1.8052,1.8008,1.7998,1.793,1.7647,1.7164,1.5981,1.5065,1.4114,1.3445,1.2751,1.2318,1.1801,1.1561,1.129,1.128,1.1171,1.0944,1.0437,1.0142,0.9866,0.9447,0.891,0.8398,0.7972,0.7456,0.6896,0.6437,0.6145,0.598,0.5851,0.5686,0.5451,0.5282,0.5415,0.518,0.4779,0.4683,0.4381,0.3782,0.3082,0.2248,0.1713,0.1478,0.1076,0.0773,0.037,-0.0201,-0.0772,-0.1343,-0.1877,-0.2417,-0.2787,-0.3192,-0.3596,-0.4125,-0.4655,-0.4992,-0.5454,-0.584,-0.644,-0.7295,-0.7862,-0.8149,-0.9072,-1.0311,-1.1233,3.1753,3.1119,3.0975,3.1156,3.1495,3.1522,3.1405,3.1143,2.987,2.8834,2.801,2.6911,2.5931,2.5146,2.5052,2.4465,2.3405,2.3597,2.3434,2.3161,2.3023,2.3001,2.2927,2.2889,2.2815,2.2889,2.3075,2.3412,2.3143,2.2589,2.1951,2.1426,2.0941,2.0577,2.039,2.0074,1.9691,1.9473,1.9142,1.8785,1.8583,1.8516,1.8448,1.8448,1.8381,1.8347,1.8347,1.8347,1.8313,1.8269,1.8236,1.8144,1.7974,1.7285,1.6674,1.5909,1.5035,1.4432,1.3993,1.3449,1.2948,1.2672,1.2419,1.1911,1.1583,1.1298,1.1023,1.0767,1.0506,1.0059,0.9644,0.9177,0.8683,0.8064,0.7451,0.7097,0.6708,0.6581,0.6486,0.6251,0.602,0.6053,0.6185,0.605,0.5716,0.5448,0.5246,0.4812,0.4215,0.3449,0.2514,0.2146,0.1479,0.1109,0.0739,0.0402,-0.0167,-0.0601,-0.1067,-0.1671,-0.2309,-0.2839,-0.3263,-0.3551,-0.3954,-0.4356,-0.4697,-0.5009,-0.5661,-0.6502,-0.7096,-0.7381,-0.8143,-0.9283,-1.0355,3.178,3.1186,3.1308,3.1495,3.1663,3.1439,3.1282,3.0983,2.9839,2.9045,2.8505,2.7438,2.6496,2.5947,2.6059,2.5266,2.411,2.4303,2.394,2.3495,2.3093,2.3012,2.3001,2.3038,2.3276,2.3423,2.424,2.4434,2.348,2.2909,2.2415,2.2217,2.1832,2.1058,2.0949,2.0402,1.993,1.9594,1.9297,1.9008,1.8741,1.8674,1.865,1.865,1.8583,1.8516,1.8482,1.8482,1.8448,1.8414,1.8381,1.8337,1.8168,1.7852,1.7374,1.6807,1.6088,1.5355,1.5086,1.4647,1.4096,1.3738,1.2987,1.2243,1.2026,1.1746,1.1259,1.1031,1.1097,1.0769,1.0385,0.9932,0.948,0.8967,0.8318,0.7832,0.7419,0.7129,0.6872,0.6515,0.6317,0.6222,0.6354,0.6321,0.6053,0.602,0.5848,0.5547,0.5014,0.4649,0.3713,0.2947,0.2414,0.1612,0.1109,0.0804,0.0467,0.0067,-0.0298,-0.0945,-0.1617,-0.2358,-0.2936,-0.3109,-0.3412,-0.3807,-0.4148,-0.4348,-0.4784,-0.5516,-0.6088,-0.6583,-0.7459,-0.8285,-0.9213,3.1667,3.1395,3.1911,3.2096,3.1896,3.1402,3.1061,3.065,2.9571,2.9051,2.8811,2.7966,2.718,2.6844,2.6993,2.6093,2.5416,2.5228,2.4648,2.3846,2.3393,2.3183,2.3075,2.3038,2.3276,2.3779,2.4492,2.4259,2.3589,2.3233,2.3121,2.3262,2.2251,2.0891,2.0928,2.0527,2.0153,1.9767,1.9452,1.9231,1.9065,1.8965,1.8875,1.8774,1.8633,1.8533,1.8553,1.8512,1.8512,1.8516,1.8516,1.8448,1.8448,1.8226,1.8034,1.7549,1.7038,1.652,1.6151,1.541,1.4898,1.4302,1.3327,1.2807,1.2653,1.2243,1.1793,1.1529,1.1603,1.1321,1.0953,1.0636,1.0218,0.9735,0.9122,0.857,0.8124,0.7739,0.7386,0.6999,0.6839,0.6712,0.6618,0.6585,0.6453,0.6453,0.6284,0.5984,0.5683,0.5415,0.4882,0.4215,0.368,0.2848,0.1813,0.1307,0.1101,0.0662,0.023,-0.0319,-0.0908,-0.1651,-0.2219,-0.2596,-0.2893,-0.3253,-0.3501,-0.3677,-0.4153,-0.4672,-0.5206,-0.5812,-0.6708,-0.7476,-0.8081,3.0961,3.1355,3.1974,3.2169,3.2119,3.201,3.1663,3.1099,3.025,2.9603,2.906,2.8319,2.749,2.671,2.7408,2.6869,2.5768,2.5826,2.5111,2.4152,2.3847,2.3494,2.3213,2.3176,2.3139,2.3497,2.3888,2.3663,2.3823,2.3681,2.3827,2.4348,2.412,2.326,2.2983,2.2218,2.103,2.0511,1.9791,1.9485,1.9682,1.9485,1.9098,1.8874,1.8647,1.8728,1.8769,1.8594,1.8609,1.8619,1.865,1.8583,1.8549,1.8539,1.8372,1.8178,1.7662,1.7599,1.7106,1.652,1.6043,1.5859,1.4979,1.4087,1.3802,1.3303,1.2825,1.2251,1.2131,1.1612,1.1223,1.109,1.073,1.0212,0.9665,0.9244,0.8828,0.8603,0.835,0.8027,0.7772,0.7549,0.7326,0.7097,0.6708,0.6646,0.6482,0.6247,0.6185,0.605,0.5885,0.5382,0.4815,0.3885,0.2785,0.2114,0.1736,0.129,0.0811,0.0282,-0.0307,-0.0926,-0.1435,-0.1762,-0.2256,-0.2681,-0.2888,-0.3136,-0.357,-0.408,-0.449,-0.5078,-0.5927,-0.6678,-0.7265]}]]